<?xml version="1.0" encoding="UTF-8" standalone="no" ?>
<gpx xmlns="http://www.topografix.com/GPX/1/1" xmlns:xsi="http://www.w3.org/2001/XMLSchema-instance" xsi:schemaLocation="http://www.topografix.com/GPX/1/1 http://www.topografix.com/GPX/1/1/gpx.xsd" version="1.1" creator="VisuGPX - https://www.visugpx.com">
  <metadata>
    <name>Gorges de la vis</name>
    <desc><![CDATA[belle rando tres variée. ]]></desc>
  </metadata>
  <trk>
    <name><![CDATA[15-JUIN-15 17:22:07]]></name>
    <trkseg>
      <trkpt lat="43.85462" lon="3.56518">
        <ele>214.51</ele>
        <time>2015-06-15T09:29:34Z</time>
      </trkpt>
      <trkpt lat="43.85459" lon="3.56519">
        <ele>213.55</ele>
        <time>2015-06-15T09:29:35Z</time>
      </trkpt>
      <trkpt lat="43.85442" lon="3.56519">
        <ele>214.03</ele>
        <time>2015-06-15T09:29:52Z</time>
      </trkpt>
      <trkpt lat="43.85443" lon="3.56521">
        <ele>214.51</ele>
        <time>2015-06-15T09:30:13Z</time>
      </trkpt>
      <trkpt lat="43.85442" lon="3.56519">
        <ele>214.51</ele>
        <time>2015-06-15T09:30:20Z</time>
      </trkpt>
      <trkpt lat="43.85442" lon="3.56518">
        <ele>214.03</ele>
        <time>2015-06-15T09:30:22Z</time>
      </trkpt>
      <trkpt lat="43.85439" lon="3.56517">
        <ele>214.51</ele>
        <time>2015-06-15T09:30:45Z</time>
      </trkpt>
      <trkpt lat="43.85441" lon="3.56523">
        <ele>214.99</ele>
        <time>2015-06-15T09:30:57Z</time>
      </trkpt>
      <trkpt lat="43.8544" lon="3.56521">
        <ele>214.99</ele>
        <time>2015-06-15T09:31:12Z</time>
      </trkpt>
      <trkpt lat="43.85439" lon="3.56521">
        <ele>214.99</ele>
        <time>2015-06-15T09:31:30Z</time>
      </trkpt>
      <trkpt lat="43.85439" lon="3.56519">
        <ele>214.51</ele>
        <time>2015-06-15T09:31:37Z</time>
      </trkpt>
      <trkpt lat="43.8544" lon="3.56515">
        <ele>214.51</ele>
        <time>2015-06-15T09:31:39Z</time>
      </trkpt>
      <trkpt lat="43.85446" lon="3.56489">
        <ele>215.47</ele>
        <time>2015-06-15T09:31:53Z</time>
      </trkpt>
      <trkpt lat="43.85451" lon="3.56474">
        <ele>215.95</ele>
        <time>2015-06-15T09:32:05Z</time>
      </trkpt>
      <trkpt lat="43.85448" lon="3.5647">
        <ele>215.95</ele>
        <time>2015-06-15T09:32:09Z</time>
      </trkpt>
      <trkpt lat="43.85436" lon="3.56458">
        <ele>214.99</ele>
        <time>2015-06-15T09:32:19Z</time>
      </trkpt>
      <trkpt lat="43.85428" lon="3.56445">
        <ele>214.51</ele>
        <time>2015-06-15T09:32:29Z</time>
      </trkpt>
      <trkpt lat="43.85415" lon="3.56425">
        <ele>214.51</ele>
        <time>2015-06-15T09:32:43Z</time>
      </trkpt>
      <trkpt lat="43.85412" lon="3.5642">
        <ele>214.51</ele>
        <time>2015-06-15T09:32:47Z</time>
      </trkpt>
      <trkpt lat="43.85404" lon="3.564">
        <ele>214.51</ele>
        <time>2015-06-15T09:32:59Z</time>
      </trkpt>
      <trkpt lat="43.85402" lon="3.56399">
        <ele>214.51</ele>
        <time>2015-06-15T09:33:00Z</time>
      </trkpt>
      <trkpt lat="43.85402" lon="3.56396">
        <ele>214.51</ele>
        <time>2015-06-15T09:33:02Z</time>
      </trkpt>
      <trkpt lat="43.85399" lon="3.56389">
        <ele>214.51</ele>
        <time>2015-06-15T09:33:09Z</time>
      </trkpt>
      <trkpt lat="43.85394" lon="3.56383">
        <ele>214.51</ele>
        <time>2015-06-15T09:33:14Z</time>
      </trkpt>
      <trkpt lat="43.85379" lon="3.5636">
        <ele>214.99</ele>
        <time>2015-06-15T09:33:29Z</time>
      </trkpt>
      <trkpt lat="43.85372" lon="3.56343">
        <ele>215.47</ele>
        <time>2015-06-15T09:33:42Z</time>
      </trkpt>
      <trkpt lat="43.85368" lon="3.56334">
        <ele>214.99</ele>
        <time>2015-06-15T09:33:48Z</time>
      </trkpt>
      <trkpt lat="43.85365" lon="3.56335">
        <ele>214.99</ele>
        <time>2015-06-15T09:33:50Z</time>
      </trkpt>
      <trkpt lat="43.85353" lon="3.56359">
        <ele>213.55</ele>
        <time>2015-06-15T09:34:05Z</time>
      </trkpt>
      <trkpt lat="43.85344" lon="3.56386">
        <ele>213.07</ele>
        <time>2015-06-15T09:34:20Z</time>
      </trkpt>
      <trkpt lat="43.85334" lon="3.56403">
        <ele>212.59</ele>
        <time>2015-06-15T09:34:33Z</time>
      </trkpt>
      <trkpt lat="43.85326" lon="3.56418">
        <ele>212.11</ele>
        <time>2015-06-15T09:34:43Z</time>
      </trkpt>
      <trkpt lat="43.85312" lon="3.56436">
        <ele>210.19</ele>
        <time>2015-06-15T09:34:57Z</time>
      </trkpt>
      <trkpt lat="43.85311" lon="3.56438">
        <ele>210.19</ele>
        <time>2015-06-15T09:34:58Z</time>
      </trkpt>
      <trkpt lat="43.8531" lon="3.56461">
        <ele>209.7</ele>
        <time>2015-06-15T09:35:12Z</time>
      </trkpt>
      <trkpt lat="43.85302" lon="3.56486">
        <ele>212.11</ele>
        <time>2015-06-15T09:35:27Z</time>
      </trkpt>
      <trkpt lat="43.85298" lon="3.56492">
        <ele>213.07</ele>
        <time>2015-06-15T09:35:32Z</time>
      </trkpt>
      <trkpt lat="43.85296" lon="3.565">
        <ele>214.51</ele>
        <time>2015-06-15T09:35:38Z</time>
      </trkpt>
      <trkpt lat="43.85294" lon="3.56505">
        <ele>214.99</ele>
        <time>2015-06-15T09:35:42Z</time>
      </trkpt>
      <trkpt lat="43.85291" lon="3.56511">
        <ele>215.47</ele>
        <time>2015-06-15T09:35:47Z</time>
      </trkpt>
      <trkpt lat="43.85276" lon="3.56522">
        <ele>216.91</ele>
        <time>2015-06-15T09:36:01Z</time>
      </trkpt>
      <trkpt lat="43.85272" lon="3.56526">
        <ele>217.4</ele>
        <time>2015-06-15T09:36:05Z</time>
      </trkpt>
      <trkpt lat="43.85261" lon="3.56535">
        <ele>218.36</ele>
        <time>2015-06-15T09:36:16Z</time>
      </trkpt>
      <trkpt lat="43.85253" lon="3.56544">
        <ele>219.32</ele>
        <time>2015-06-15T09:36:25Z</time>
      </trkpt>
      <trkpt lat="43.85249" lon="3.56557">
        <ele>219.8</ele>
        <time>2015-06-15T09:36:34Z</time>
      </trkpt>
      <trkpt lat="43.85248" lon="3.56561">
        <ele>219.8</ele>
        <time>2015-06-15T09:36:36Z</time>
      </trkpt>
      <trkpt lat="43.8524" lon="3.56581">
        <ele>221.24</ele>
        <time>2015-06-15T09:36:51Z</time>
      </trkpt>
      <trkpt lat="43.85232" lon="3.56602">
        <ele>222.68</ele>
        <time>2015-06-15T09:37:06Z</time>
      </trkpt>
      <trkpt lat="43.8523" lon="3.56609">
        <ele>223.16</ele>
        <time>2015-06-15T09:37:11Z</time>
      </trkpt>
      <trkpt lat="43.85219" lon="3.56618">
        <ele>225.57</ele>
        <time>2015-06-15T09:37:24Z</time>
      </trkpt>
      <trkpt lat="43.85205" lon="3.56611">
        <ele>228.45</ele>
        <time>2015-06-15T09:37:39Z</time>
      </trkpt>
      <trkpt lat="43.85204" lon="3.56607">
        <ele>230.85</ele>
        <time>2015-06-15T09:37:53Z</time>
      </trkpt>
      <trkpt lat="43.85205" lon="3.56623">
        <ele>234.22</ele>
        <time>2015-06-15T09:38:10Z</time>
      </trkpt>
      <trkpt lat="43.85202" lon="3.56634">
        <ele>237.58</ele>
        <time>2015-06-15T09:38:23Z</time>
      </trkpt>
      <trkpt lat="43.852" lon="3.56642">
        <ele>239.99</ele>
        <time>2015-06-15T09:38:36Z</time>
      </trkpt>
      <trkpt lat="43.852" lon="3.56648">
        <ele>241.43</ele>
        <time>2015-06-15T09:38:43Z</time>
      </trkpt>
      <trkpt lat="43.852" lon="3.56652">
        <ele>241.43</ele>
        <time>2015-06-15T09:38:45Z</time>
      </trkpt>
      <trkpt lat="43.85198" lon="3.56672">
        <ele>243.35</ele>
        <time>2015-06-15T09:39:00Z</time>
      </trkpt>
      <trkpt lat="43.85195" lon="3.56686">
        <ele>244.79</ele>
        <time>2015-06-15T09:39:11Z</time>
      </trkpt>
      <trkpt lat="43.85192" lon="3.56698">
        <ele>247.2</ele>
        <time>2015-06-15T09:39:24Z</time>
      </trkpt>
      <trkpt lat="43.8519" lon="3.56697">
        <ele>247.2</ele>
        <time>2015-06-15T09:39:25Z</time>
      </trkpt>
      <trkpt lat="43.85188" lon="3.56701">
        <ele>249.12</ele>
        <time>2015-06-15T09:39:37Z</time>
      </trkpt>
      <trkpt lat="43.85187" lon="3.56714">
        <ele>250.56</ele>
        <time>2015-06-15T09:39:52Z</time>
      </trkpt>
      <trkpt lat="43.85188" lon="3.56715">
        <ele>250.56</ele>
        <time>2015-06-15T09:39:53Z</time>
      </trkpt>
      <trkpt lat="43.8519" lon="3.56721">
        <ele>252</ele>
        <time>2015-06-15T09:39:59Z</time>
      </trkpt>
      <trkpt lat="43.8519" lon="3.56736">
        <ele>253.44</ele>
        <time>2015-06-15T09:40:11Z</time>
      </trkpt>
      <trkpt lat="43.85192" lon="3.56744">
        <ele>254.89</ele>
        <time>2015-06-15T09:40:17Z</time>
      </trkpt>
      <trkpt lat="43.85191" lon="3.56758">
        <ele>256.33</ele>
        <time>2015-06-15T09:40:29Z</time>
      </trkpt>
      <trkpt lat="43.85189" lon="3.56758">
        <ele>256.81</ele>
        <time>2015-06-15T09:40:30Z</time>
      </trkpt>
      <trkpt lat="43.85177" lon="3.56752">
        <ele>258.25</ele>
        <time>2015-06-15T09:40:43Z</time>
      </trkpt>
      <trkpt lat="43.85168" lon="3.56749">
        <ele>259.21</ele>
        <time>2015-06-15T09:40:52Z</time>
      </trkpt>
      <trkpt lat="43.85154" lon="3.56753">
        <ele>260.65</ele>
        <time>2015-06-15T09:41:05Z</time>
      </trkpt>
      <trkpt lat="43.8515" lon="3.56755">
        <ele>261.62</ele>
        <time>2015-06-15T09:41:10Z</time>
      </trkpt>
      <trkpt lat="43.85151" lon="3.56749">
        <ele>263.54</ele>
        <time>2015-06-15T09:41:22Z</time>
      </trkpt>
      <trkpt lat="43.85151" lon="3.56744">
        <ele>264.5</ele>
        <time>2015-06-15T09:41:29Z</time>
      </trkpt>
      <trkpt lat="43.85145" lon="3.56745">
        <ele>266.42</ele>
        <time>2015-06-15T09:41:39Z</time>
      </trkpt>
      <trkpt lat="43.85137" lon="3.56746">
        <ele>268.35</ele>
        <time>2015-06-15T09:41:51Z</time>
      </trkpt>
      <trkpt lat="43.85131" lon="3.56748">
        <ele>270.27</ele>
        <time>2015-06-15T09:42:03Z</time>
      </trkpt>
      <trkpt lat="43.85126" lon="3.56757">
        <ele>272.19</ele>
        <time>2015-06-15T09:42:16Z</time>
      </trkpt>
      <trkpt lat="43.8511" lon="3.56765">
        <ele>275.07</ele>
        <time>2015-06-15T09:42:29Z</time>
      </trkpt>
      <trkpt lat="43.85098" lon="3.56763">
        <ele>277.48</ele>
        <time>2015-06-15T09:42:42Z</time>
      </trkpt>
      <trkpt lat="43.85088" lon="3.56759">
        <ele>278.92</ele>
        <time>2015-06-15T09:42:55Z</time>
      </trkpt>
      <trkpt lat="43.85081" lon="3.56758">
        <ele>281.32</ele>
        <time>2015-06-15T09:43:08Z</time>
      </trkpt>
      <trkpt lat="43.85087" lon="3.56752">
        <ele>282.77</ele>
        <time>2015-06-15T09:43:21Z</time>
      </trkpt>
      <trkpt lat="43.85092" lon="3.56745">
        <ele>284.69</ele>
        <time>2015-06-15T09:43:33Z</time>
      </trkpt>
      <trkpt lat="43.85099" lon="3.56738">
        <ele>286.61</ele>
        <time>2015-06-15T09:43:45Z</time>
      </trkpt>
      <trkpt lat="43.85098" lon="3.56738">
        <ele>287.09</ele>
        <time>2015-06-15T09:43:47Z</time>
      </trkpt>
      <trkpt lat="43.85091" lon="3.56741">
        <ele>287.57</ele>
        <time>2015-06-15T09:43:57Z</time>
      </trkpt>
      <trkpt lat="43.85081" lon="3.56737">
        <ele>289.01</ele>
        <time>2015-06-15T09:44:10Z</time>
      </trkpt>
      <trkpt lat="43.8508" lon="3.56737">
        <ele>289.49</ele>
        <time>2015-06-15T09:44:12Z</time>
      </trkpt>
      <trkpt lat="43.85073" lon="3.56739">
        <ele>290.46</ele>
        <time>2015-06-15T09:44:18Z</time>
      </trkpt>
      <trkpt lat="43.85061" lon="3.56739">
        <ele>293.34</ele>
        <time>2015-06-15T09:44:34Z</time>
      </trkpt>
      <trkpt lat="43.85051" lon="3.56739">
        <ele>295.74</ele>
        <time>2015-06-15T09:44:47Z</time>
      </trkpt>
      <trkpt lat="43.85048" lon="3.56738">
        <ele>296.22</ele>
        <time>2015-06-15T09:44:51Z</time>
      </trkpt>
      <trkpt lat="43.85046" lon="3.56739">
        <ele>297.18</ele>
        <time>2015-06-15T09:44:54Z</time>
      </trkpt>
      <trkpt lat="43.85039" lon="3.56737">
        <ele>300.07</ele>
        <time>2015-06-15T09:45:08Z</time>
      </trkpt>
      <trkpt lat="43.85045" lon="3.56725">
        <ele>301.99</ele>
        <time>2015-06-15T09:45:22Z</time>
      </trkpt>
      <trkpt lat="43.8505" lon="3.56712">
        <ele>304.39</ele>
        <time>2015-06-15T09:45:36Z</time>
      </trkpt>
      <trkpt lat="43.85043" lon="3.56713">
        <ele>306.32</ele>
        <time>2015-06-15T09:45:48Z</time>
      </trkpt>
      <trkpt lat="43.85035" lon="3.56718">
        <ele>308.24</ele>
        <time>2015-06-15T09:46:00Z</time>
      </trkpt>
      <trkpt lat="43.85028" lon="3.56724">
        <ele>310.64</ele>
        <time>2015-06-15T09:46:12Z</time>
      </trkpt>
      <trkpt lat="43.8502" lon="3.56732">
        <ele>313.53</ele>
        <time>2015-06-15T09:46:27Z</time>
      </trkpt>
      <trkpt lat="43.85018" lon="3.56735">
        <ele>314.01</ele>
        <time>2015-06-15T09:46:30Z</time>
      </trkpt>
      <trkpt lat="43.8501" lon="3.56746">
        <ele>317.37</ele>
        <time>2015-06-15T09:46:44Z</time>
      </trkpt>
      <trkpt lat="43.85008" lon="3.56751">
        <ele>318.33</ele>
        <time>2015-06-15T09:46:51Z</time>
      </trkpt>
      <trkpt lat="43.85006" lon="3.56754">
        <ele>321.22</ele>
        <time>2015-06-15T09:47:03Z</time>
      </trkpt>
      <trkpt lat="43.85" lon="3.56763">
        <ele>323.62</ele>
        <time>2015-06-15T09:47:17Z</time>
      </trkpt>
      <trkpt lat="43.84994" lon="3.56771">
        <ele>326.02</ele>
        <time>2015-06-15T09:47:29Z</time>
      </trkpt>
      <trkpt lat="43.84989" lon="3.56781">
        <ele>328.43</ele>
        <time>2015-06-15T09:47:41Z</time>
      </trkpt>
      <trkpt lat="43.84986" lon="3.56783">
        <ele>328.91</ele>
        <time>2015-06-15T09:47:44Z</time>
      </trkpt>
      <trkpt lat="43.84979" lon="3.56796">
        <ele>330.35</ele>
        <time>2015-06-15T09:47:55Z</time>
      </trkpt>
      <trkpt lat="43.84973" lon="3.56806">
        <ele>331.31</ele>
        <time>2015-06-15T09:48:08Z</time>
      </trkpt>
      <trkpt lat="43.84972" lon="3.56808">
        <ele>331.79</ele>
        <time>2015-06-15T09:48:12Z</time>
      </trkpt>
      <trkpt lat="43.84964" lon="3.56815">
        <ele>333.71</ele>
        <time>2015-06-15T09:48:24Z</time>
      </trkpt>
      <trkpt lat="43.84961" lon="3.56804">
        <ele>336.6</ele>
        <time>2015-06-15T09:48:39Z</time>
      </trkpt>
      <trkpt lat="43.84961" lon="3.56793">
        <ele>338.52</ele>
        <time>2015-06-15T09:48:52Z</time>
      </trkpt>
      <trkpt lat="43.84961" lon="3.56779">
        <ele>340.44</ele>
        <time>2015-06-15T09:49:07Z</time>
      </trkpt>
      <trkpt lat="43.84959" lon="3.56787">
        <ele>342.37</ele>
        <time>2015-06-15T09:49:20Z</time>
      </trkpt>
      <trkpt lat="43.84954" lon="3.56785">
        <ele>344.29</ele>
        <time>2015-06-15T09:49:31Z</time>
      </trkpt>
      <trkpt lat="43.84954" lon="3.56785">
        <ele>344.29</ele>
        <time>2015-06-15T09:49:32Z</time>
      </trkpt>
      <trkpt lat="43.84952" lon="3.56771">
        <ele>346.69</ele>
        <time>2015-06-15T09:49:44Z</time>
      </trkpt>
      <trkpt lat="43.84951" lon="3.56758">
        <ele>349.1</ele>
        <time>2015-06-15T09:49:57Z</time>
      </trkpt>
      <trkpt lat="43.84955" lon="3.56747">
        <ele>351.02</ele>
        <time>2015-06-15T09:50:08Z</time>
      </trkpt>
      <trkpt lat="43.84948" lon="3.56752">
        <ele>353.42</ele>
        <time>2015-06-15T09:50:22Z</time>
      </trkpt>
      <trkpt lat="43.84946" lon="3.56759">
        <ele>355.83</ele>
        <time>2015-06-15T09:50:35Z</time>
      </trkpt>
      <trkpt lat="43.84946" lon="3.5676">
        <ele>355.83</ele>
        <time>2015-06-15T09:50:36Z</time>
      </trkpt>
      <trkpt lat="43.84943" lon="3.56775">
        <ele>357.27</ele>
        <time>2015-06-15T09:50:50Z</time>
      </trkpt>
      <trkpt lat="43.84942" lon="3.56775">
        <ele>358.23</ele>
        <time>2015-06-15T09:50:52Z</time>
      </trkpt>
      <trkpt lat="43.84937" lon="3.56772">
        <ele>360.15</ele>
        <time>2015-06-15T09:51:04Z</time>
      </trkpt>
      <trkpt lat="43.84936" lon="3.56774">
        <ele>361.11</ele>
        <time>2015-06-15T09:51:07Z</time>
      </trkpt>
      <trkpt lat="43.84936" lon="3.56777">
        <ele>361.11</ele>
        <time>2015-06-15T09:51:09Z</time>
      </trkpt>
      <trkpt lat="43.84937" lon="3.56781">
        <ele>361.59</ele>
        <time>2015-06-15T09:51:13Z</time>
      </trkpt>
      <trkpt lat="43.84937" lon="3.56795">
        <ele>364</ele>
        <time>2015-06-15T09:51:28Z</time>
      </trkpt>
      <trkpt lat="43.84933" lon="3.56801">
        <ele>365.44</ele>
        <time>2015-06-15T09:51:37Z</time>
      </trkpt>
      <trkpt lat="43.84927" lon="3.5681">
        <ele>367.36</ele>
        <time>2015-06-15T09:51:49Z</time>
      </trkpt>
      <trkpt lat="43.84922" lon="3.56812">
        <ele>370.24</ele>
        <time>2015-06-15T09:52:04Z</time>
      </trkpt>
      <trkpt lat="43.84919" lon="3.56806">
        <ele>372.17</ele>
        <time>2015-06-15T09:52:16Z</time>
      </trkpt>
      <trkpt lat="43.84915" lon="3.56812">
        <ele>373.61</ele>
        <time>2015-06-15T09:52:30Z</time>
      </trkpt>
      <trkpt lat="43.84915" lon="3.56814">
        <ele>374.09</ele>
        <time>2015-06-15T09:52:32Z</time>
      </trkpt>
      <trkpt lat="43.84915" lon="3.56829">
        <ele>375.53</ele>
        <time>2015-06-15T09:52:46Z</time>
      </trkpt>
      <trkpt lat="43.84913" lon="3.56845">
        <ele>377.94</ele>
        <time>2015-06-15T09:53:00Z</time>
      </trkpt>
      <trkpt lat="43.84903" lon="3.56849">
        <ele>381.3</ele>
        <time>2015-06-15T09:53:15Z</time>
      </trkpt>
      <trkpt lat="43.84899" lon="3.56853">
        <ele>381.3</ele>
        <time>2015-06-15T09:53:21Z</time>
      </trkpt>
      <trkpt lat="43.84892" lon="3.56863">
        <ele>383.7</ele>
        <time>2015-06-15T09:53:33Z</time>
      </trkpt>
      <trkpt lat="43.84883" lon="3.56873">
        <ele>385.63</ele>
        <time>2015-06-15T09:53:45Z</time>
      </trkpt>
      <trkpt lat="43.84881" lon="3.56873">
        <ele>386.11</ele>
        <time>2015-06-15T09:53:47Z</time>
      </trkpt>
      <trkpt lat="43.84879" lon="3.56873">
        <ele>386.59</ele>
        <time>2015-06-15T09:53:59Z</time>
      </trkpt>
      <trkpt lat="43.8488" lon="3.56872">
        <ele>386.59</ele>
        <time>2015-06-15T09:54:12Z</time>
      </trkpt>
      <trkpt lat="43.8488" lon="3.56871">
        <ele>386.59</ele>
        <time>2015-06-15T09:54:32Z</time>
      </trkpt>
      <trkpt lat="43.8488" lon="3.56872">
        <ele>386.59</ele>
        <time>2015-06-15T09:54:52Z</time>
      </trkpt>
      <trkpt lat="43.8488" lon="3.56872">
        <ele>386.59</ele>
        <time>2015-06-15T09:55:08Z</time>
      </trkpt>
      <trkpt lat="43.84879" lon="3.5687">
        <ele>387.07</ele>
        <time>2015-06-15T09:55:25Z</time>
      </trkpt>
      <trkpt lat="43.84879" lon="3.56871">
        <ele>387.55</ele>
        <time>2015-06-15T09:55:45Z</time>
      </trkpt>
      <trkpt lat="43.84878" lon="3.56872">
        <ele>387.07</ele>
        <time>2015-06-15T09:55:59Z</time>
      </trkpt>
      <trkpt lat="43.84875" lon="3.56872">
        <ele>387.55</ele>
        <time>2015-06-15T09:56:05Z</time>
      </trkpt>
      <trkpt lat="43.84865" lon="3.5687">
        <ele>387.07</ele>
        <time>2015-06-15T09:56:14Z</time>
      </trkpt>
      <trkpt lat="43.84858" lon="3.56871">
        <ele>387.07</ele>
        <time>2015-06-15T09:56:20Z</time>
      </trkpt>
      <trkpt lat="43.84852" lon="3.56874">
        <ele>387.55</ele>
        <time>2015-06-15T09:56:25Z</time>
      </trkpt>
      <trkpt lat="43.84847" lon="3.56875">
        <ele>387.55</ele>
        <time>2015-06-15T09:56:29Z</time>
      </trkpt>
      <trkpt lat="43.8484" lon="3.56878">
        <ele>387.55</ele>
        <time>2015-06-15T09:56:36Z</time>
      </trkpt>
      <trkpt lat="43.84832" lon="3.56886">
        <ele>388.03</ele>
        <time>2015-06-15T09:56:43Z</time>
      </trkpt>
      <trkpt lat="43.84825" lon="3.56886">
        <ele>388.03</ele>
        <time>2015-06-15T09:56:49Z</time>
      </trkpt>
      <trkpt lat="43.84819" lon="3.56888">
        <ele>388.51</ele>
        <time>2015-06-15T09:56:54Z</time>
      </trkpt>
      <trkpt lat="43.84816" lon="3.56887">
        <ele>388.51</ele>
        <time>2015-06-15T09:56:57Z</time>
      </trkpt>
      <trkpt lat="43.8481" lon="3.56887">
        <ele>388.51</ele>
        <time>2015-06-15T09:57:08Z</time>
      </trkpt>
      <trkpt lat="43.84804" lon="3.56887">
        <ele>388.51</ele>
        <time>2015-06-15T09:57:14Z</time>
      </trkpt>
      <trkpt lat="43.8479" lon="3.56887">
        <ele>389.47</ele>
        <time>2015-06-15T09:57:25Z</time>
      </trkpt>
      <trkpt lat="43.84785" lon="3.56885">
        <ele>389.95</ele>
        <time>2015-06-15T09:57:30Z</time>
      </trkpt>
      <trkpt lat="43.84783" lon="3.56886">
        <ele>390.43</ele>
        <time>2015-06-15T09:57:32Z</time>
      </trkpt>
      <trkpt lat="43.8478" lon="3.56887">
        <ele>390.91</ele>
        <time>2015-06-15T09:57:35Z</time>
      </trkpt>
      <trkpt lat="43.84775" lon="3.56889">
        <ele>391.39</ele>
        <time>2015-06-15T09:57:41Z</time>
      </trkpt>
      <trkpt lat="43.84765" lon="3.56898">
        <ele>392.36</ele>
        <time>2015-06-15T09:57:53Z</time>
      </trkpt>
      <trkpt lat="43.84764" lon="3.56899">
        <ele>392.84</ele>
        <time>2015-06-15T09:57:55Z</time>
      </trkpt>
      <trkpt lat="43.84753" lon="3.56908">
        <ele>394.28</ele>
        <time>2015-06-15T09:58:11Z</time>
      </trkpt>
      <trkpt lat="43.84744" lon="3.56916">
        <ele>396.2</ele>
        <time>2015-06-15T09:58:25Z</time>
      </trkpt>
      <trkpt lat="43.84733" lon="3.56925">
        <ele>397.16</ele>
        <time>2015-06-15T09:58:36Z</time>
      </trkpt>
      <trkpt lat="43.84723" lon="3.56933">
        <ele>398.12</ele>
        <time>2015-06-15T09:58:48Z</time>
      </trkpt>
      <trkpt lat="43.84717" lon="3.56935">
        <ele>398.6</ele>
        <time>2015-06-15T09:58:54Z</time>
      </trkpt>
      <trkpt lat="43.84702" lon="3.56942">
        <ele>400.05</ele>
        <time>2015-06-15T09:59:09Z</time>
      </trkpt>
      <trkpt lat="43.84695" lon="3.5695">
        <ele>400.53</ele>
        <time>2015-06-15T09:59:22Z</time>
      </trkpt>
      <trkpt lat="43.84681" lon="3.56973">
        <ele>401.49</ele>
        <time>2015-06-15T09:59:37Z</time>
      </trkpt>
      <trkpt lat="43.84673" lon="3.56982">
        <ele>402.45</ele>
        <time>2015-06-15T09:59:48Z</time>
      </trkpt>
      <trkpt lat="43.84668" lon="3.56989">
        <ele>402.45</ele>
        <time>2015-06-15T09:59:53Z</time>
      </trkpt>
      <trkpt lat="43.84655" lon="3.57002">
        <ele>401.97</ele>
        <time>2015-06-15T10:00:07Z</time>
      </trkpt>
      <trkpt lat="43.84649" lon="3.57006">
        <ele>401.49</ele>
        <time>2015-06-15T10:00:20Z</time>
      </trkpt>
      <trkpt lat="43.84647" lon="3.57008">
        <ele>402.45</ele>
        <time>2015-06-15T10:00:34Z</time>
      </trkpt>
      <trkpt lat="43.84643" lon="3.57017">
        <ele>402.93</ele>
        <time>2015-06-15T10:00:46Z</time>
      </trkpt>
      <trkpt lat="43.84636" lon="3.57038">
        <ele>403.89</ele>
        <time>2015-06-15T10:01:01Z</time>
      </trkpt>
      <trkpt lat="43.84623" lon="3.57068">
        <ele>405.81</ele>
        <time>2015-06-15T10:01:14Z</time>
      </trkpt>
      <trkpt lat="43.84616" lon="3.57086">
        <ele>407.74</ele>
        <time>2015-06-15T10:01:27Z</time>
      </trkpt>
      <trkpt lat="43.8461" lon="3.57101">
        <ele>409.18</ele>
        <time>2015-06-15T10:01:40Z</time>
      </trkpt>
      <trkpt lat="43.84609" lon="3.57104">
        <ele>409.18</ele>
        <time>2015-06-15T10:01:43Z</time>
      </trkpt>
      <trkpt lat="43.84604" lon="3.5712">
        <ele>411.1</ele>
        <time>2015-06-15T10:01:58Z</time>
      </trkpt>
      <trkpt lat="43.84598" lon="3.57137">
        <ele>412.54</ele>
        <time>2015-06-15T10:02:12Z</time>
      </trkpt>
      <trkpt lat="43.84592" lon="3.57153">
        <ele>414.47</ele>
        <time>2015-06-15T10:02:27Z</time>
      </trkpt>
      <trkpt lat="43.84583" lon="3.57166">
        <ele>416.39</ele>
        <time>2015-06-15T10:02:39Z</time>
      </trkpt>
      <trkpt lat="43.84576" lon="3.57177">
        <ele>418.31</ele>
        <time>2015-06-15T10:02:52Z</time>
      </trkpt>
      <trkpt lat="43.84569" lon="3.57188">
        <ele>420.23</ele>
        <time>2015-06-15T10:03:05Z</time>
      </trkpt>
      <trkpt lat="43.84562" lon="3.57198">
        <ele>422.16</ele>
        <time>2015-06-15T10:03:19Z</time>
      </trkpt>
      <trkpt lat="43.84551" lon="3.5721">
        <ele>424.08</ele>
        <time>2015-06-15T10:03:34Z</time>
      </trkpt>
      <trkpt lat="43.8454" lon="3.57218">
        <ele>426</ele>
        <time>2015-06-15T10:03:45Z</time>
      </trkpt>
      <trkpt lat="43.8453" lon="3.57232">
        <ele>426.96</ele>
        <time>2015-06-15T10:03:57Z</time>
      </trkpt>
      <trkpt lat="43.8452" lon="3.57242">
        <ele>428.4</ele>
        <time>2015-06-15T10:04:10Z</time>
      </trkpt>
      <trkpt lat="43.84508" lon="3.57254">
        <ele>429.85</ele>
        <time>2015-06-15T10:04:25Z</time>
      </trkpt>
      <trkpt lat="43.845" lon="3.57265">
        <ele>431.29</ele>
        <time>2015-06-15T10:04:38Z</time>
      </trkpt>
      <trkpt lat="43.84489" lon="3.57282">
        <ele>432.73</ele>
        <time>2015-06-15T10:04:55Z</time>
      </trkpt>
      <trkpt lat="43.84483" lon="3.57294">
        <ele>433.69</ele>
        <time>2015-06-15T10:05:08Z</time>
      </trkpt>
      <trkpt lat="43.84475" lon="3.57308">
        <ele>435.13</ele>
        <time>2015-06-15T10:05:22Z</time>
      </trkpt>
      <trkpt lat="43.84467" lon="3.57325">
        <ele>437.06</ele>
        <time>2015-06-15T10:05:38Z</time>
      </trkpt>
      <trkpt lat="43.84463" lon="3.5733">
        <ele>438.02</ele>
        <time>2015-06-15T10:05:44Z</time>
      </trkpt>
      <trkpt lat="43.84455" lon="3.57348">
        <ele>439.46</ele>
        <time>2015-06-15T10:05:58Z</time>
      </trkpt>
      <trkpt lat="43.84448" lon="3.57364">
        <ele>438.98</ele>
        <time>2015-06-15T10:06:10Z</time>
      </trkpt>
      <trkpt lat="43.84442" lon="3.57388">
        <ele>437.06</ele>
        <time>2015-06-15T10:06:26Z</time>
      </trkpt>
      <trkpt lat="43.84438" lon="3.574">
        <ele>436.58</ele>
        <time>2015-06-15T10:06:36Z</time>
      </trkpt>
      <trkpt lat="43.84437" lon="3.57402">
        <ele>436.58</ele>
        <time>2015-06-15T10:06:38Z</time>
      </trkpt>
      <trkpt lat="43.84432" lon="3.5741">
        <ele>435.61</ele>
        <time>2015-06-15T10:06:44Z</time>
      </trkpt>
      <trkpt lat="43.8443" lon="3.57414">
        <ele>435.13</ele>
        <time>2015-06-15T10:06:46Z</time>
      </trkpt>
      <trkpt lat="43.84423" lon="3.5743">
        <ele>433.69</ele>
        <time>2015-06-15T10:06:59Z</time>
      </trkpt>
      <trkpt lat="43.84418" lon="3.5745">
        <ele>432.25</ele>
        <time>2015-06-15T10:07:11Z</time>
      </trkpt>
      <trkpt lat="43.84413" lon="3.57464">
        <ele>431.77</ele>
        <time>2015-06-15T10:07:21Z</time>
      </trkpt>
      <trkpt lat="43.84406" lon="3.57485">
        <ele>430.81</ele>
        <time>2015-06-15T10:07:35Z</time>
      </trkpt>
      <trkpt lat="43.84403" lon="3.57499">
        <ele>429.37</ele>
        <time>2015-06-15T10:07:45Z</time>
      </trkpt>
      <trkpt lat="43.84401" lon="3.57523">
        <ele>428.4</ele>
        <time>2015-06-15T10:07:57Z</time>
      </trkpt>
      <trkpt lat="43.844" lon="3.57527">
        <ele>427.92</ele>
        <time>2015-06-15T10:07:59Z</time>
      </trkpt>
      <trkpt lat="43.84399" lon="3.57535">
        <ele>427.44</ele>
        <time>2015-06-15T10:08:03Z</time>
      </trkpt>
      <trkpt lat="43.84399" lon="3.57541">
        <ele>426.96</ele>
        <time>2015-06-15T10:08:06Z</time>
      </trkpt>
      <trkpt lat="43.84402" lon="3.57552">
        <ele>426.48</ele>
        <time>2015-06-15T10:08:13Z</time>
      </trkpt>
      <trkpt lat="43.84399" lon="3.57575">
        <ele>425.52</ele>
        <time>2015-06-15T10:08:27Z</time>
      </trkpt>
      <trkpt lat="43.84397" lon="3.57595">
        <ele>425.04</ele>
        <time>2015-06-15T10:08:39Z</time>
      </trkpt>
      <trkpt lat="43.84397" lon="3.57612">
        <ele>424.56</ele>
        <time>2015-06-15T10:08:49Z</time>
      </trkpt>
      <trkpt lat="43.84397" lon="3.57634">
        <ele>424.08</ele>
        <time>2015-06-15T10:09:00Z</time>
      </trkpt>
      <trkpt lat="43.84395" lon="3.57639">
        <ele>424.08</ele>
        <time>2015-06-15T10:09:03Z</time>
      </trkpt>
      <trkpt lat="43.84396" lon="3.57664">
        <ele>424.08</ele>
        <time>2015-06-15T10:09:17Z</time>
      </trkpt>
      <trkpt lat="43.84395" lon="3.57668">
        <ele>424.08</ele>
        <time>2015-06-15T10:09:20Z</time>
      </trkpt>
      <trkpt lat="43.84391" lon="3.57685">
        <ele>424.56</ele>
        <time>2015-06-15T10:09:30Z</time>
      </trkpt>
      <trkpt lat="43.84388" lon="3.577">
        <ele>425.04</ele>
        <time>2015-06-15T10:09:38Z</time>
      </trkpt>
      <trkpt lat="43.84383" lon="3.5772">
        <ele>426</ele>
        <time>2015-06-15T10:09:52Z</time>
      </trkpt>
      <trkpt lat="43.8438" lon="3.57736">
        <ele>425.04</ele>
        <time>2015-06-15T10:10:03Z</time>
      </trkpt>
      <trkpt lat="43.84378" lon="3.57761">
        <ele>423.6</ele>
        <time>2015-06-15T10:10:18Z</time>
      </trkpt>
      <trkpt lat="43.84378" lon="3.57765">
        <ele>423.6</ele>
        <time>2015-06-15T10:10:20Z</time>
      </trkpt>
      <trkpt lat="43.84377" lon="3.5777">
        <ele>423.12</ele>
        <time>2015-06-15T10:10:23Z</time>
      </trkpt>
      <trkpt lat="43.8437" lon="3.57796">
        <ele>423.12</ele>
        <time>2015-06-15T10:10:39Z</time>
      </trkpt>
      <trkpt lat="43.84356" lon="3.57821">
        <ele>423.12</ele>
        <time>2015-06-15T10:10:53Z</time>
      </trkpt>
      <trkpt lat="43.84344" lon="3.57828">
        <ele>424.08</ele>
        <time>2015-06-15T10:11:06Z</time>
      </trkpt>
      <trkpt lat="43.84341" lon="3.57829">
        <ele>423.6</ele>
        <time>2015-06-15T10:11:26Z</time>
      </trkpt>
      <trkpt lat="43.8434" lon="3.57831">
        <ele>423.6</ele>
        <time>2015-06-15T10:11:47Z</time>
      </trkpt>
      <trkpt lat="43.8434" lon="3.57832">
        <ele>424.56</ele>
        <time>2015-06-15T10:12:12Z</time>
      </trkpt>
      <trkpt lat="43.84339" lon="3.57837">
        <ele>423.6</ele>
        <time>2015-06-15T10:12:23Z</time>
      </trkpt>
      <trkpt lat="43.84335" lon="3.57841">
        <ele>423.6</ele>
        <time>2015-06-15T10:12:36Z</time>
      </trkpt>
      <trkpt lat="43.84332" lon="3.57842">
        <ele>423.6</ele>
        <time>2015-06-15T10:12:41Z</time>
      </trkpt>
      <trkpt lat="43.84329" lon="3.57846">
        <ele>423.12</ele>
        <time>2015-06-15T10:12:45Z</time>
      </trkpt>
      <trkpt lat="43.84322" lon="3.5785">
        <ele>422.64</ele>
        <time>2015-06-15T10:12:55Z</time>
      </trkpt>
      <trkpt lat="43.8431" lon="3.57854">
        <ele>421.68</ele>
        <time>2015-06-15T10:13:10Z</time>
      </trkpt>
      <trkpt lat="43.84302" lon="3.57857">
        <ele>420.23</ele>
        <time>2015-06-15T10:13:21Z</time>
      </trkpt>
      <trkpt lat="43.84294" lon="3.57863">
        <ele>420.23</ele>
        <time>2015-06-15T10:13:33Z</time>
      </trkpt>
      <trkpt lat="43.84294" lon="3.5786">
        <ele>420.23</ele>
        <time>2015-06-15T10:13:45Z</time>
      </trkpt>
      <trkpt lat="43.84294" lon="3.57862">
        <ele>419.75</ele>
        <time>2015-06-15T10:14:00Z</time>
      </trkpt>
      <trkpt lat="43.84292" lon="3.57862">
        <ele>420.23</ele>
        <time>2015-06-15T10:14:24Z</time>
      </trkpt>
      <trkpt lat="43.84292" lon="3.57862">
        <ele>420.71</ele>
        <time>2015-06-15T10:14:45Z</time>
      </trkpt>
      <trkpt lat="43.84292" lon="3.57863">
        <ele>420.71</ele>
        <time>2015-06-15T10:15:12Z</time>
      </trkpt>
      <trkpt lat="43.84292" lon="3.57864">
        <ele>421.68</ele>
        <time>2015-06-15T10:15:43Z</time>
      </trkpt>
      <trkpt lat="43.84292" lon="3.57863">
        <ele>422.16</ele>
        <time>2015-06-15T10:16:12Z</time>
      </trkpt>
      <trkpt lat="43.84292" lon="3.57863">
        <ele>423.12</ele>
        <time>2015-06-15T10:16:43Z</time>
      </trkpt>
      <trkpt lat="43.84292" lon="3.57862">
        <ele>422.64</ele>
        <time>2015-06-15T10:17:13Z</time>
      </trkpt>
      <trkpt lat="43.84292" lon="3.57862">
        <ele>422.64</ele>
        <time>2015-06-15T10:17:39Z</time>
      </trkpt>
      <trkpt lat="43.84292" lon="3.57862">
        <ele>423.12</ele>
        <time>2015-06-15T10:18:09Z</time>
      </trkpt>
      <trkpt lat="43.84292" lon="3.57862">
        <ele>423.12</ele>
        <time>2015-06-15T10:18:40Z</time>
      </trkpt>
      <trkpt lat="43.84292" lon="3.57861">
        <ele>423.6</ele>
        <time>2015-06-15T10:19:08Z</time>
      </trkpt>
      <trkpt lat="43.84292" lon="3.57863">
        <ele>419.75</ele>
        <time>2015-06-15T10:19:31Z</time>
      </trkpt>
      <trkpt lat="43.84292" lon="3.57863">
        <ele>426.48</ele>
        <time>2015-06-15T10:19:32Z</time>
      </trkpt>
      <trkpt lat="43.84294" lon="3.57865">
        <ele>423.6</ele>
        <time>2015-06-15T10:20:01Z</time>
      </trkpt>
      <trkpt lat="43.84294" lon="3.57867">
        <ele>424.08</ele>
        <time>2015-06-15T10:20:34Z</time>
      </trkpt>
      <trkpt lat="43.84294" lon="3.57867">
        <ele>424.56</ele>
        <time>2015-06-15T10:20:49Z</time>
      </trkpt>
      <trkpt lat="43.84293" lon="3.57861">
        <ele>425.04</ele>
        <time>2015-06-15T10:21:05Z</time>
      </trkpt>
      <trkpt lat="43.84292" lon="3.5786">
        <ele>425.04</ele>
        <time>2015-06-15T10:21:25Z</time>
      </trkpt>
      <trkpt lat="43.84296" lon="3.57857">
        <ele>425.52</ele>
        <time>2015-06-15T10:21:38Z</time>
      </trkpt>
      <trkpt lat="43.84306" lon="3.57847">
        <ele>426.96</ele>
        <time>2015-06-15T10:21:50Z</time>
      </trkpt>
      <trkpt lat="43.84307" lon="3.57846">
        <ele>426.96</ele>
        <time>2015-06-15T10:21:51Z</time>
      </trkpt>
      <trkpt lat="43.84322" lon="3.57836">
        <ele>427.92</ele>
        <time>2015-06-15T10:22:05Z</time>
      </trkpt>
      <trkpt lat="43.84332" lon="3.57828">
        <ele>428.89</ele>
        <time>2015-06-15T10:22:18Z</time>
      </trkpt>
      <trkpt lat="43.84334" lon="3.57829">
        <ele>430.33</ele>
        <time>2015-06-15T10:22:36Z</time>
      </trkpt>
      <trkpt lat="43.84335" lon="3.5783">
        <ele>430.33</ele>
        <time>2015-06-15T10:22:38Z</time>
      </trkpt>
      <trkpt lat="43.8433" lon="3.57831">
        <ele>431.29</ele>
        <time>2015-06-15T10:22:45Z</time>
      </trkpt>
      <trkpt lat="43.84318" lon="3.57831">
        <ele>432.73</ele>
        <time>2015-06-15T10:22:58Z</time>
      </trkpt>
      <trkpt lat="43.84307" lon="3.57829">
        <ele>433.69</ele>
        <time>2015-06-15T10:23:10Z</time>
      </trkpt>
      <trkpt lat="43.843" lon="3.57827">
        <ele>434.17</ele>
        <time>2015-06-15T10:23:15Z</time>
      </trkpt>
      <trkpt lat="43.84288" lon="3.57826">
        <ele>434.65</ele>
        <time>2015-06-15T10:23:24Z</time>
      </trkpt>
      <trkpt lat="43.84281" lon="3.57824">
        <ele>435.13</ele>
        <time>2015-06-15T10:23:29Z</time>
      </trkpt>
      <trkpt lat="43.84276" lon="3.57817">
        <ele>436.1</ele>
        <time>2015-06-15T10:23:35Z</time>
      </trkpt>
      <trkpt lat="43.84261" lon="3.57809">
        <ele>436.58</ele>
        <time>2015-06-15T10:23:47Z</time>
      </trkpt>
      <trkpt lat="43.84257" lon="3.57808">
        <ele>436.1</ele>
        <time>2015-06-15T10:23:51Z</time>
      </trkpt>
      <trkpt lat="43.84251" lon="3.57807">
        <ele>435.61</ele>
        <time>2015-06-15T10:23:57Z</time>
      </trkpt>
      <trkpt lat="43.84242" lon="3.57802">
        <ele>435.61</ele>
        <time>2015-06-15T10:24:05Z</time>
      </trkpt>
      <trkpt lat="43.84235" lon="3.57798">
        <ele>435.61</ele>
        <time>2015-06-15T10:24:12Z</time>
      </trkpt>
      <trkpt lat="43.84227" lon="3.57796">
        <ele>435.13</ele>
        <time>2015-06-15T10:24:28Z</time>
      </trkpt>
      <trkpt lat="43.84216" lon="3.57794">
        <ele>435.13</ele>
        <time>2015-06-15T10:24:38Z</time>
      </trkpt>
      <trkpt lat="43.842" lon="3.57791">
        <ele>434.65</ele>
        <time>2015-06-15T10:24:50Z</time>
      </trkpt>
      <trkpt lat="43.84196" lon="3.5779">
        <ele>434.65</ele>
        <time>2015-06-15T10:24:53Z</time>
      </trkpt>
      <trkpt lat="43.84188" lon="3.57784">
        <ele>435.13</ele>
        <time>2015-06-15T10:25:01Z</time>
      </trkpt>
      <trkpt lat="43.84179" lon="3.57781">
        <ele>435.13</ele>
        <time>2015-06-15T10:25:07Z</time>
      </trkpt>
      <trkpt lat="43.84163" lon="3.57777">
        <ele>435.61</ele>
        <time>2015-06-15T10:25:20Z</time>
      </trkpt>
      <trkpt lat="43.84144" lon="3.57766">
        <ele>436.58</ele>
        <time>2015-06-15T10:25:33Z</time>
      </trkpt>
      <trkpt lat="43.84141" lon="3.57763">
        <ele>436.1</ele>
        <time>2015-06-15T10:25:35Z</time>
      </trkpt>
      <trkpt lat="43.84134" lon="3.57763">
        <ele>435.61</ele>
        <time>2015-06-15T10:25:41Z</time>
      </trkpt>
      <trkpt lat="43.84126" lon="3.57758">
        <ele>434.65</ele>
        <time>2015-06-15T10:25:50Z</time>
      </trkpt>
      <trkpt lat="43.84114" lon="3.57755">
        <ele>433.69</ele>
        <time>2015-06-15T10:26:01Z</time>
      </trkpt>
      <trkpt lat="43.84106" lon="3.57753">
        <ele>433.69</ele>
        <time>2015-06-15T10:26:14Z</time>
      </trkpt>
      <trkpt lat="43.84104" lon="3.57749">
        <ele>434.17</ele>
        <time>2015-06-15T10:26:39Z</time>
      </trkpt>
      <trkpt lat="43.84098" lon="3.57749">
        <ele>434.17</ele>
        <time>2015-06-15T10:26:55Z</time>
      </trkpt>
      <trkpt lat="43.84085" lon="3.57751">
        <ele>433.69</ele>
        <time>2015-06-15T10:27:08Z</time>
      </trkpt>
      <trkpt lat="43.84077" lon="3.57752">
        <ele>434.17</ele>
        <time>2015-06-15T10:27:14Z</time>
      </trkpt>
      <trkpt lat="43.84063" lon="3.57749">
        <ele>435.13</ele>
        <time>2015-06-15T10:27:27Z</time>
      </trkpt>
      <trkpt lat="43.84055" lon="3.57745">
        <ele>435.61</ele>
        <time>2015-06-15T10:27:35Z</time>
      </trkpt>
      <trkpt lat="43.84041" lon="3.57735">
        <ele>436.58</ele>
        <time>2015-06-15T10:27:46Z</time>
      </trkpt>
      <trkpt lat="43.84027" lon="3.57724">
        <ele>437.06</ele>
        <time>2015-06-15T10:28:00Z</time>
      </trkpt>
      <trkpt lat="43.84025" lon="3.57723">
        <ele>437.06</ele>
        <time>2015-06-15T10:28:02Z</time>
      </trkpt>
      <trkpt lat="43.84009" lon="3.57714">
        <ele>438.5</ele>
        <time>2015-06-15T10:28:15Z</time>
      </trkpt>
      <trkpt lat="43.83996" lon="3.57707">
        <ele>439.94</ele>
        <time>2015-06-15T10:28:27Z</time>
      </trkpt>
      <trkpt lat="43.83993" lon="3.57706">
        <ele>439.94</ele>
        <time>2015-06-15T10:28:29Z</time>
      </trkpt>
      <trkpt lat="43.83982" lon="3.57703">
        <ele>440.42</ele>
        <time>2015-06-15T10:28:36Z</time>
      </trkpt>
      <trkpt lat="43.83978" lon="3.57704">
        <ele>440.42</ele>
        <time>2015-06-15T10:28:38Z</time>
      </trkpt>
      <trkpt lat="43.83968" lon="3.577">
        <ele>441.38</ele>
        <time>2015-06-15T10:28:48Z</time>
      </trkpt>
      <trkpt lat="43.8395" lon="3.57684">
        <ele>441.86</ele>
        <time>2015-06-15T10:29:03Z</time>
      </trkpt>
      <trkpt lat="43.83939" lon="3.57667">
        <ele>443.79</ele>
        <time>2015-06-15T10:29:16Z</time>
      </trkpt>
      <trkpt lat="43.83926" lon="3.5765">
        <ele>442.82</ele>
        <time>2015-06-15T10:29:29Z</time>
      </trkpt>
      <trkpt lat="43.83925" lon="3.5765">
        <ele>442.82</ele>
        <time>2015-06-15T10:29:30Z</time>
      </trkpt>
      <trkpt lat="43.83913" lon="3.5763">
        <ele>441.86</ele>
        <time>2015-06-15T10:29:43Z</time>
      </trkpt>
      <trkpt lat="43.83909" lon="3.57624">
        <ele>442.34</ele>
        <time>2015-06-15T10:29:47Z</time>
      </trkpt>
      <trkpt lat="43.83898" lon="3.57603">
        <ele>440.9</ele>
        <time>2015-06-15T10:30:01Z</time>
      </trkpt>
      <trkpt lat="43.83896" lon="3.57602">
        <ele>440.9</ele>
        <time>2015-06-15T10:30:02Z</time>
      </trkpt>
      <trkpt lat="43.83887" lon="3.57592">
        <ele>440.9</ele>
        <time>2015-06-15T10:30:10Z</time>
      </trkpt>
      <trkpt lat="43.83879" lon="3.57588">
        <ele>439.94</ele>
        <time>2015-06-15T10:30:19Z</time>
      </trkpt>
      <trkpt lat="43.83869" lon="3.57573">
        <ele>438.5</ele>
        <time>2015-06-15T10:30:31Z</time>
      </trkpt>
      <trkpt lat="43.83858" lon="3.57563">
        <ele>437.54</ele>
        <time>2015-06-15T10:30:43Z</time>
      </trkpt>
      <trkpt lat="43.83851" lon="3.57553">
        <ele>438.02</ele>
        <time>2015-06-15T10:30:53Z</time>
      </trkpt>
      <trkpt lat="43.83844" lon="3.57545">
        <ele>438.5</ele>
        <time>2015-06-15T10:31:06Z</time>
      </trkpt>
      <trkpt lat="43.83832" lon="3.57527">
        <ele>438.98</ele>
        <time>2015-06-15T10:31:18Z</time>
      </trkpt>
      <trkpt lat="43.83829" lon="3.5752">
        <ele>438.98</ele>
        <time>2015-06-15T10:31:23Z</time>
      </trkpt>
      <trkpt lat="43.83828" lon="3.57518">
        <ele>439.46</ele>
        <time>2015-06-15T10:31:24Z</time>
      </trkpt>
      <trkpt lat="43.83816" lon="3.57485">
        <ele>439.94</ele>
        <time>2015-06-15T10:31:37Z</time>
      </trkpt>
      <trkpt lat="43.83812" lon="3.57473">
        <ele>439.94</ele>
        <time>2015-06-15T10:31:42Z</time>
      </trkpt>
      <trkpt lat="43.83803" lon="3.57438">
        <ele>441.38</ele>
        <time>2015-06-15T10:31:58Z</time>
      </trkpt>
      <trkpt lat="43.83801" lon="3.57436">
        <ele>441.38</ele>
        <time>2015-06-15T10:32:00Z</time>
      </trkpt>
      <trkpt lat="43.83795" lon="3.57424">
        <ele>441.38</ele>
        <time>2015-06-15T10:32:10Z</time>
      </trkpt>
      <trkpt lat="43.83791" lon="3.57413">
        <ele>441.38</ele>
        <time>2015-06-15T10:32:16Z</time>
      </trkpt>
      <trkpt lat="43.8378" lon="3.57399">
        <ele>441.38</ele>
        <time>2015-06-15T10:32:28Z</time>
      </trkpt>
      <trkpt lat="43.83768" lon="3.57384">
        <ele>441.38</ele>
        <time>2015-06-15T10:32:41Z</time>
      </trkpt>
      <trkpt lat="43.83763" lon="3.57377">
        <ele>440.9</ele>
        <time>2015-06-15T10:32:46Z</time>
      </trkpt>
      <trkpt lat="43.83757" lon="3.5737">
        <ele>440.42</ele>
        <time>2015-06-15T10:32:50Z</time>
      </trkpt>
      <trkpt lat="43.83754" lon="3.57365">
        <ele>440.42</ele>
        <time>2015-06-15T10:32:53Z</time>
      </trkpt>
      <trkpt lat="43.83742" lon="3.5736">
        <ele>439.46</ele>
        <time>2015-06-15T10:33:02Z</time>
      </trkpt>
      <trkpt lat="43.83736" lon="3.5736">
        <ele>439.46</ele>
        <time>2015-06-15T10:33:17Z</time>
      </trkpt>
      <trkpt lat="43.83735" lon="3.57363">
        <ele>438.5</ele>
        <time>2015-06-15T10:33:25Z</time>
      </trkpt>
      <trkpt lat="43.83728" lon="3.57359">
        <ele>438.5</ele>
        <time>2015-06-15T10:33:38Z</time>
      </trkpt>
      <trkpt lat="43.8373" lon="3.57349">
        <ele>438.98</ele>
        <time>2015-06-15T10:33:53Z</time>
      </trkpt>
      <trkpt lat="43.83731" lon="3.57348">
        <ele>438.98</ele>
        <time>2015-06-15T10:34:21Z</time>
      </trkpt>
      <trkpt lat="43.83732" lon="3.57348">
        <ele>438.98</ele>
        <time>2015-06-15T10:34:41Z</time>
      </trkpt>
      <trkpt lat="43.83731" lon="3.57348">
        <ele>431.77</ele>
        <time>2015-06-15T10:34:53Z</time>
      </trkpt>
      <trkpt lat="43.83731" lon="3.57348">
        <ele>438.98</ele>
        <time>2015-06-15T10:34:54Z</time>
      </trkpt>
      <trkpt lat="43.83731" lon="3.57348">
        <ele>438.98</ele>
        <time>2015-06-15T10:35:19Z</time>
      </trkpt>
      <trkpt lat="43.83732" lon="3.57349">
        <ele>438.98</ele>
        <time>2015-06-15T10:35:46Z</time>
      </trkpt>
      <trkpt lat="43.83731" lon="3.5735">
        <ele>438.98</ele>
        <time>2015-06-15T10:36:13Z</time>
      </trkpt>
      <trkpt lat="43.83732" lon="3.57351">
        <ele>439.46</ele>
        <time>2015-06-15T10:36:45Z</time>
      </trkpt>
      <trkpt lat="43.83731" lon="3.57352">
        <ele>438.98</ele>
        <time>2015-06-15T10:37:16Z</time>
      </trkpt>
      <trkpt lat="43.83731" lon="3.57353">
        <ele>438.98</ele>
        <time>2015-06-15T10:37:47Z</time>
      </trkpt>
      <trkpt lat="43.83731" lon="3.57354">
        <ele>438.98</ele>
        <time>2015-06-15T10:38:16Z</time>
      </trkpt>
      <trkpt lat="43.8373" lon="3.57355">
        <ele>439.46</ele>
        <time>2015-06-15T10:38:44Z</time>
      </trkpt>
      <trkpt lat="43.8373" lon="3.57353">
        <ele>441.86</ele>
        <time>2015-06-15T10:39:05Z</time>
      </trkpt>
      <trkpt lat="43.8373" lon="3.57354">
        <ele>441.38</ele>
        <time>2015-06-15T10:39:17Z</time>
      </trkpt>
      <trkpt lat="43.83731" lon="3.57354">
        <ele>439.94</ele>
        <time>2015-06-15T10:39:32Z</time>
      </trkpt>
      <trkpt lat="43.83733" lon="3.5735">
        <ele>439.94</ele>
        <time>2015-06-15T10:39:48Z</time>
      </trkpt>
      <trkpt lat="43.83741" lon="3.57348">
        <ele>439.94</ele>
        <time>2015-06-15T10:39:59Z</time>
      </trkpt>
      <trkpt lat="43.83746" lon="3.57352">
        <ele>440.9</ele>
        <time>2015-06-15T10:40:10Z</time>
      </trkpt>
      <trkpt lat="43.83749" lon="3.57357">
        <ele>441.38</ele>
        <time>2015-06-15T10:40:15Z</time>
      </trkpt>
      <trkpt lat="43.83765" lon="3.57369">
        <ele>442.82</ele>
        <time>2015-06-15T10:40:28Z</time>
      </trkpt>
      <trkpt lat="43.83769" lon="3.57383">
        <ele>442.82</ele>
        <time>2015-06-15T10:40:36Z</time>
      </trkpt>
      <trkpt lat="43.83771" lon="3.57389">
        <ele>442.82</ele>
        <time>2015-06-15T10:40:40Z</time>
      </trkpt>
      <trkpt lat="43.83783" lon="3.57401">
        <ele>442.82</ele>
        <time>2015-06-15T10:40:51Z</time>
      </trkpt>
      <trkpt lat="43.83797" lon="3.57419">
        <ele>442.82</ele>
        <time>2015-06-15T10:41:05Z</time>
      </trkpt>
      <trkpt lat="43.838" lon="3.57423">
        <ele>442.82</ele>
        <time>2015-06-15T10:41:08Z</time>
      </trkpt>
      <trkpt lat="43.83803" lon="3.57431">
        <ele>442.82</ele>
        <time>2015-06-15T10:41:12Z</time>
      </trkpt>
      <trkpt lat="43.8381" lon="3.57444">
        <ele>441.86</ele>
        <time>2015-06-15T10:41:21Z</time>
      </trkpt>
      <trkpt lat="43.83815" lon="3.57453">
        <ele>441.86</ele>
        <time>2015-06-15T10:41:26Z</time>
      </trkpt>
      <trkpt lat="43.83817" lon="3.57456">
        <ele>441.86</ele>
        <time>2015-06-15T10:41:28Z</time>
      </trkpt>
      <trkpt lat="43.83822" lon="3.57461">
        <ele>441.38</ele>
        <time>2015-06-15T10:41:33Z</time>
      </trkpt>
      <trkpt lat="43.83826" lon="3.57467">
        <ele>440.9</ele>
        <time>2015-06-15T10:41:39Z</time>
      </trkpt>
      <trkpt lat="43.83832" lon="3.57472">
        <ele>440.42</ele>
        <time>2015-06-15T10:41:44Z</time>
      </trkpt>
      <trkpt lat="43.83834" lon="3.57474">
        <ele>440.42</ele>
        <time>2015-06-15T10:41:46Z</time>
      </trkpt>
      <trkpt lat="43.83842" lon="3.57493">
        <ele>439.94</ele>
        <time>2015-06-15T10:41:57Z</time>
      </trkpt>
      <trkpt lat="43.83852" lon="3.57519">
        <ele>438.98</ele>
        <time>2015-06-15T10:42:11Z</time>
      </trkpt>
      <trkpt lat="43.83861" lon="3.57539">
        <ele>438.5</ele>
        <time>2015-06-15T10:42:24Z</time>
      </trkpt>
      <trkpt lat="43.83875" lon="3.57557">
        <ele>440.42</ele>
        <time>2015-06-15T10:42:40Z</time>
      </trkpt>
      <trkpt lat="43.83877" lon="3.57559">
        <ele>440.9</ele>
        <time>2015-06-15T10:42:42Z</time>
      </trkpt>
      <trkpt lat="43.83886" lon="3.5757">
        <ele>441.86</ele>
        <time>2015-06-15T10:42:53Z</time>
      </trkpt>
      <trkpt lat="43.83893" lon="3.57581">
        <ele>442.34</ele>
        <time>2015-06-15T10:43:00Z</time>
      </trkpt>
      <trkpt lat="43.83904" lon="3.57596">
        <ele>442.34</ele>
        <time>2015-06-15T10:43:14Z</time>
      </trkpt>
      <trkpt lat="43.83909" lon="3.57599">
        <ele>442.82</ele>
        <time>2015-06-15T10:43:18Z</time>
      </trkpt>
      <trkpt lat="43.83913" lon="3.57604">
        <ele>443.31</ele>
        <time>2015-06-15T10:43:21Z</time>
      </trkpt>
      <trkpt lat="43.8393" lon="3.57621">
        <ele>444.27</ele>
        <time>2015-06-15T10:43:35Z</time>
      </trkpt>
      <trkpt lat="43.83938" lon="3.5763">
        <ele>444.75</ele>
        <time>2015-06-15T10:43:44Z</time>
      </trkpt>
      <trkpt lat="43.83943" lon="3.57637">
        <ele>445.23</ele>
        <time>2015-06-15T10:43:51Z</time>
      </trkpt>
      <trkpt lat="43.83954" lon="3.57652">
        <ele>444.27</ele>
        <time>2015-06-15T10:44:04Z</time>
      </trkpt>
      <trkpt lat="43.83965" lon="3.57671">
        <ele>443.79</ele>
        <time>2015-06-15T10:44:18Z</time>
      </trkpt>
      <trkpt lat="43.83977" lon="3.57684">
        <ele>442.34</ele>
        <time>2015-06-15T10:44:31Z</time>
      </trkpt>
      <trkpt lat="43.83981" lon="3.57687">
        <ele>442.34</ele>
        <time>2015-06-15T10:44:34Z</time>
      </trkpt>
      <trkpt lat="43.83988" lon="3.5769">
        <ele>441.86</ele>
        <time>2015-06-15T10:44:39Z</time>
      </trkpt>
      <trkpt lat="43.83993" lon="3.5769">
        <ele>441.86</ele>
        <time>2015-06-15T10:44:42Z</time>
      </trkpt>
      <trkpt lat="43.84014" lon="3.57695">
        <ele>439.46</ele>
        <time>2015-06-15T10:44:57Z</time>
      </trkpt>
      <trkpt lat="43.84029" lon="3.57705">
        <ele>438.5</ele>
        <time>2015-06-15T10:45:12Z</time>
      </trkpt>
      <trkpt lat="43.84041" lon="3.57713">
        <ele>438.02</ele>
        <time>2015-06-15T10:45:25Z</time>
      </trkpt>
      <trkpt lat="43.84066" lon="3.57723">
        <ele>436.58</ele>
        <time>2015-06-15T10:45:39Z</time>
      </trkpt>
      <trkpt lat="43.84082" lon="3.57723">
        <ele>436.1</ele>
        <time>2015-06-15T10:45:54Z</time>
      </trkpt>
      <trkpt lat="43.84093" lon="3.57726">
        <ele>436.58</ele>
        <time>2015-06-15T10:46:09Z</time>
      </trkpt>
      <trkpt lat="43.84097" lon="3.57732">
        <ele>436.1</ele>
        <time>2015-06-15T10:46:28Z</time>
      </trkpt>
      <trkpt lat="43.841" lon="3.57734">
        <ele>436.1</ele>
        <time>2015-06-15T10:46:43Z</time>
      </trkpt>
      <trkpt lat="43.84111" lon="3.57736">
        <ele>436.1</ele>
        <time>2015-06-15T10:47:04Z</time>
      </trkpt>
      <trkpt lat="43.84121" lon="3.57738">
        <ele>436.58</ele>
        <time>2015-06-15T10:47:15Z</time>
      </trkpt>
      <trkpt lat="43.84131" lon="3.57739">
        <ele>438.02</ele>
        <time>2015-06-15T10:47:27Z</time>
      </trkpt>
      <trkpt lat="43.84137" lon="3.5774">
        <ele>438.5</ele>
        <time>2015-06-15T10:47:32Z</time>
      </trkpt>
      <trkpt lat="43.84152" lon="3.57748">
        <ele>438.98</ele>
        <time>2015-06-15T10:47:45Z</time>
      </trkpt>
      <trkpt lat="43.84157" lon="3.57754">
        <ele>438.5</ele>
        <time>2015-06-15T10:47:51Z</time>
      </trkpt>
      <trkpt lat="43.84169" lon="3.57764">
        <ele>437.54</ele>
        <time>2015-06-15T10:48:05Z</time>
      </trkpt>
      <trkpt lat="43.84192" lon="3.57769">
        <ele>437.54</ele>
        <time>2015-06-15T10:48:19Z</time>
      </trkpt>
      <trkpt lat="43.84207" lon="3.57776">
        <ele>437.54</ele>
        <time>2015-06-15T10:48:33Z</time>
      </trkpt>
      <trkpt lat="43.84222" lon="3.57778">
        <ele>437.54</ele>
        <time>2015-06-15T10:48:48Z</time>
      </trkpt>
      <trkpt lat="43.84227" lon="3.5778">
        <ele>438.02</ele>
        <time>2015-06-15T10:48:56Z</time>
      </trkpt>
      <trkpt lat="43.84229" lon="3.5778">
        <ele>438.02</ele>
        <time>2015-06-15T10:49:12Z</time>
      </trkpt>
      <trkpt lat="43.84231" lon="3.57786">
        <ele>438.5</ele>
        <time>2015-06-15T10:49:47Z</time>
      </trkpt>
      <trkpt lat="43.84235" lon="3.57787">
        <ele>438.5</ele>
        <time>2015-06-15T10:49:51Z</time>
      </trkpt>
      <trkpt lat="43.84246" lon="3.57795">
        <ele>438.5</ele>
        <time>2015-06-15T10:50:04Z</time>
      </trkpt>
      <trkpt lat="43.84265" lon="3.57793">
        <ele>439.46</ele>
        <time>2015-06-15T10:50:13Z</time>
      </trkpt>
      <trkpt lat="43.8427" lon="3.57797">
        <ele>439.46</ele>
        <time>2015-06-15T10:50:17Z</time>
      </trkpt>
      <trkpt lat="43.84272" lon="3.57799">
        <ele>439.46</ele>
        <time>2015-06-15T10:50:19Z</time>
      </trkpt>
      <trkpt lat="43.84276" lon="3.57804">
        <ele>438.98</ele>
        <time>2015-06-15T10:50:23Z</time>
      </trkpt>
      <trkpt lat="43.84288" lon="3.57811">
        <ele>437.54</ele>
        <time>2015-06-15T10:50:33Z</time>
      </trkpt>
      <trkpt lat="43.84291" lon="3.57811">
        <ele>437.54</ele>
        <time>2015-06-15T10:50:35Z</time>
      </trkpt>
      <trkpt lat="43.843" lon="3.57813">
        <ele>437.06</ele>
        <time>2015-06-15T10:50:41Z</time>
      </trkpt>
      <trkpt lat="43.84317" lon="3.57823">
        <ele>436.1</ele>
        <time>2015-06-15T10:50:55Z</time>
      </trkpt>
      <trkpt lat="43.84319" lon="3.57824">
        <ele>435.61</ele>
        <time>2015-06-15T10:50:57Z</time>
      </trkpt>
      <trkpt lat="43.84333" lon="3.57826">
        <ele>434.65</ele>
        <time>2015-06-15T10:51:11Z</time>
      </trkpt>
      <trkpt lat="43.8434" lon="3.57831">
        <ele>432.73</ele>
        <time>2015-06-15T10:51:20Z</time>
      </trkpt>
      <trkpt lat="43.84331" lon="3.57842">
        <ele>432.73</ele>
        <time>2015-06-15T10:51:31Z</time>
      </trkpt>
      <trkpt lat="43.84328" lon="3.57847">
        <ele>432.73</ele>
        <time>2015-06-15T10:51:34Z</time>
      </trkpt>
      <trkpt lat="43.8432" lon="3.57853">
        <ele>431.77</ele>
        <time>2015-06-15T10:51:41Z</time>
      </trkpt>
      <trkpt lat="43.84309" lon="3.57859">
        <ele>429.85</ele>
        <time>2015-06-15T10:51:51Z</time>
      </trkpt>
      <trkpt lat="43.84305" lon="3.57863">
        <ele>429.37</ele>
        <time>2015-06-15T10:51:56Z</time>
      </trkpt>
      <trkpt lat="43.8429" lon="3.57874">
        <ele>428.4</ele>
        <time>2015-06-15T10:52:12Z</time>
      </trkpt>
      <trkpt lat="43.84288" lon="3.57879">
        <ele>428.4</ele>
        <time>2015-06-15T10:52:17Z</time>
      </trkpt>
      <trkpt lat="43.84289" lon="3.57885">
        <ele>427.92</ele>
        <time>2015-06-15T10:52:24Z</time>
      </trkpt>
      <trkpt lat="43.84289" lon="3.57889">
        <ele>428.4</ele>
        <time>2015-06-15T10:52:33Z</time>
      </trkpt>
      <trkpt lat="43.84291" lon="3.57892">
        <ele>428.89</ele>
        <time>2015-06-15T10:52:36Z</time>
      </trkpt>
      <trkpt lat="43.84303" lon="3.57902">
        <ele>429.85</ele>
        <time>2015-06-15T10:52:49Z</time>
      </trkpt>
      <trkpt lat="43.84303" lon="3.57902">
        <ele>429.85</ele>
        <time>2015-06-15T10:52:50Z</time>
      </trkpt>
      <trkpt lat="43.84317" lon="3.57911">
        <ele>430.33</ele>
        <time>2015-06-15T10:53:03Z</time>
      </trkpt>
      <trkpt lat="43.84325" lon="3.57915">
        <ele>430.81</ele>
        <time>2015-06-15T10:53:11Z</time>
      </trkpt>
      <trkpt lat="43.84328" lon="3.57922">
        <ele>431.29</ele>
        <time>2015-06-15T10:53:15Z</time>
      </trkpt>
      <trkpt lat="43.8433" lon="3.57927">
        <ele>431.77</ele>
        <time>2015-06-15T10:53:19Z</time>
      </trkpt>
      <trkpt lat="43.84334" lon="3.57944">
        <ele>432.73</ele>
        <time>2015-06-15T10:53:32Z</time>
      </trkpt>
      <trkpt lat="43.84331" lon="3.57957">
        <ele>435.13</ele>
        <time>2015-06-15T10:53:46Z</time>
      </trkpt>
      <trkpt lat="43.84333" lon="3.57962">
        <ele>434.65</ele>
        <time>2015-06-15T10:53:57Z</time>
      </trkpt>
      <trkpt lat="43.84332" lon="3.57967">
        <ele>434.65</ele>
        <time>2015-06-15T10:54:13Z</time>
      </trkpt>
      <trkpt lat="43.84332" lon="3.57966">
        <ele>433.69</ele>
        <time>2015-06-15T10:54:33Z</time>
      </trkpt>
      <trkpt lat="43.84331" lon="3.57965">
        <ele>433.69</ele>
        <time>2015-06-15T10:55:03Z</time>
      </trkpt>
      <trkpt lat="43.84329" lon="3.57965">
        <ele>433.69</ele>
        <time>2015-06-15T10:55:37Z</time>
      </trkpt>
      <trkpt lat="43.84329" lon="3.57966">
        <ele>433.69</ele>
        <time>2015-06-15T10:56:05Z</time>
      </trkpt>
      <trkpt lat="43.84328" lon="3.57967">
        <ele>433.21</ele>
        <time>2015-06-15T10:56:38Z</time>
      </trkpt>
      <trkpt lat="43.8433" lon="3.57966">
        <ele>433.21</ele>
        <time>2015-06-15T10:57:05Z</time>
      </trkpt>
      <trkpt lat="43.84331" lon="3.57966">
        <ele>433.21</ele>
        <time>2015-06-15T10:57:30Z</time>
      </trkpt>
      <trkpt lat="43.84332" lon="3.57966">
        <ele>433.69</ele>
        <time>2015-06-15T10:58:03Z</time>
      </trkpt>
      <trkpt lat="43.84333" lon="3.57966">
        <ele>434.17</ele>
        <time>2015-06-15T10:58:30Z</time>
      </trkpt>
      <trkpt lat="43.84331" lon="3.57966">
        <ele>434.17</ele>
        <time>2015-06-15T10:59:02Z</time>
      </trkpt>
      <trkpt lat="43.84331" lon="3.57967">
        <ele>434.17</ele>
        <time>2015-06-15T10:59:40Z</time>
      </trkpt>
      <trkpt lat="43.84331" lon="3.57968">
        <ele>433.69</ele>
        <time>2015-06-15T11:00:08Z</time>
      </trkpt>
      <trkpt lat="43.8433" lon="3.57969">
        <ele>434.17</ele>
        <time>2015-06-15T11:00:43Z</time>
      </trkpt>
      <trkpt lat="43.84331" lon="3.57971">
        <ele>435.13</ele>
        <time>2015-06-15T11:01:07Z</time>
      </trkpt>
      <trkpt lat="43.8433" lon="3.57971">
        <ele>432.25</ele>
        <time>2015-06-15T11:01:12Z</time>
      </trkpt>
      <trkpt lat="43.8433" lon="3.57971">
        <ele>437.06</ele>
        <time>2015-06-15T11:01:13Z</time>
      </trkpt>
      <trkpt lat="43.8433" lon="3.57971">
        <ele>435.13</ele>
        <time>2015-06-15T11:01:14Z</time>
      </trkpt>
      <trkpt lat="43.84332" lon="3.57974">
        <ele>435.13</ele>
        <time>2015-06-15T11:01:34Z</time>
      </trkpt>
      <trkpt lat="43.84332" lon="3.57975">
        <ele>434.17</ele>
        <time>2015-06-15T11:01:52Z</time>
      </trkpt>
      <trkpt lat="43.8433" lon="3.57972">
        <ele>435.13</ele>
        <time>2015-06-15T11:02:18Z</time>
      </trkpt>
      <trkpt lat="43.8433" lon="3.57971">
        <ele>435.13</ele>
        <time>2015-06-15T11:02:32Z</time>
      </trkpt>
      <trkpt lat="43.84329" lon="3.5797">
        <ele>435.13</ele>
        <time>2015-06-15T11:02:55Z</time>
      </trkpt>
      <trkpt lat="43.8433" lon="3.57969">
        <ele>435.13</ele>
        <time>2015-06-15T11:03:15Z</time>
      </trkpt>
      <trkpt lat="43.84327" lon="3.57966">
        <ele>434.17</ele>
        <time>2015-06-15T11:03:29Z</time>
      </trkpt>
      <trkpt lat="43.84323" lon="3.57967">
        <ele>435.61</ele>
        <time>2015-06-15T11:03:44Z</time>
      </trkpt>
      <trkpt lat="43.84316" lon="3.57965">
        <ele>437.06</ele>
        <time>2015-06-15T11:03:56Z</time>
      </trkpt>
      <trkpt lat="43.8431" lon="3.57968">
        <ele>438.5</ele>
        <time>2015-06-15T11:04:08Z</time>
      </trkpt>
      <trkpt lat="43.84305" lon="3.57967">
        <ele>440.42</ele>
        <time>2015-06-15T11:04:21Z</time>
      </trkpt>
      <trkpt lat="43.84307" lon="3.5797">
        <ele>441.38</ele>
        <time>2015-06-15T11:04:26Z</time>
      </trkpt>
      <trkpt lat="43.84309" lon="3.57976">
        <ele>442.82</ele>
        <time>2015-06-15T11:04:37Z</time>
      </trkpt>
      <trkpt lat="43.84314" lon="3.57988">
        <ele>443.79</ele>
        <time>2015-06-15T11:04:47Z</time>
      </trkpt>
      <trkpt lat="43.84314" lon="3.5799">
        <ele>444.27</ele>
        <time>2015-06-15T11:04:48Z</time>
      </trkpt>
      <trkpt lat="43.84314" lon="3.58004">
        <ele>445.23</ele>
        <time>2015-06-15T11:04:59Z</time>
      </trkpt>
      <trkpt lat="43.84315" lon="3.58006">
        <ele>445.23</ele>
        <time>2015-06-15T11:05:00Z</time>
      </trkpt>
      <trkpt lat="43.84314" lon="3.5802">
        <ele>447.63</ele>
        <time>2015-06-15T11:05:12Z</time>
      </trkpt>
      <trkpt lat="43.84314" lon="3.58029">
        <ele>448.59</ele>
        <time>2015-06-15T11:05:23Z</time>
      </trkpt>
      <trkpt lat="43.84315" lon="3.58044">
        <ele>450.52</ele>
        <time>2015-06-15T11:05:35Z</time>
      </trkpt>
      <trkpt lat="43.84313" lon="3.58061">
        <ele>453.4</ele>
        <time>2015-06-15T11:05:48Z</time>
      </trkpt>
      <trkpt lat="43.84313" lon="3.58078">
        <ele>454.36</ele>
        <time>2015-06-15T11:05:59Z</time>
      </trkpt>
      <trkpt lat="43.84313" lon="3.58093">
        <ele>455.8</ele>
        <time>2015-06-15T11:06:11Z</time>
      </trkpt>
      <trkpt lat="43.84309" lon="3.58109">
        <ele>457.72</ele>
        <time>2015-06-15T11:06:23Z</time>
      </trkpt>
      <trkpt lat="43.84306" lon="3.58119">
        <ele>458.69</ele>
        <time>2015-06-15T11:06:31Z</time>
      </trkpt>
      <trkpt lat="43.843" lon="3.5813">
        <ele>460.13</ele>
        <time>2015-06-15T11:06:40Z</time>
      </trkpt>
      <trkpt lat="43.84292" lon="3.5814">
        <ele>462.53</ele>
        <time>2015-06-15T11:06:54Z</time>
      </trkpt>
      <trkpt lat="43.8429" lon="3.58143">
        <ele>463.01</ele>
        <time>2015-06-15T11:06:58Z</time>
      </trkpt>
      <trkpt lat="43.8429" lon="3.58156">
        <ele>464.45</ele>
        <time>2015-06-15T11:07:10Z</time>
      </trkpt>
      <trkpt lat="43.84292" lon="3.58163">
        <ele>465.9</ele>
        <time>2015-06-15T11:07:18Z</time>
      </trkpt>
      <trkpt lat="43.84297" lon="3.58166">
        <ele>466.86</ele>
        <time>2015-06-15T11:07:27Z</time>
      </trkpt>
      <trkpt lat="43.84299" lon="3.58166">
        <ele>467.82</ele>
        <time>2015-06-15T11:07:30Z</time>
      </trkpt>
      <trkpt lat="43.84308" lon="3.58159">
        <ele>468.78</ele>
        <time>2015-06-15T11:07:45Z</time>
      </trkpt>
      <trkpt lat="43.8431" lon="3.58158">
        <ele>469.74</ele>
        <time>2015-06-15T11:07:47Z</time>
      </trkpt>
      <trkpt lat="43.8432" lon="3.58156">
        <ele>472.14</ele>
        <time>2015-06-15T11:08:00Z</time>
      </trkpt>
      <trkpt lat="43.84327" lon="3.58155">
        <ele>474.07</ele>
        <time>2015-06-15T11:08:12Z</time>
      </trkpt>
      <trkpt lat="43.84329" lon="3.58153">
        <ele>474.55</ele>
        <time>2015-06-15T11:08:15Z</time>
      </trkpt>
      <trkpt lat="43.84335" lon="3.58151">
        <ele>474.55</ele>
        <time>2015-06-15T11:08:19Z</time>
      </trkpt>
      <trkpt lat="43.84341" lon="3.58149">
        <ele>475.51</ele>
        <time>2015-06-15T11:08:31Z</time>
      </trkpt>
      <trkpt lat="43.84342" lon="3.5815">
        <ele>476.47</ele>
        <time>2015-06-15T11:08:50Z</time>
      </trkpt>
      <trkpt lat="43.84341" lon="3.58154">
        <ele>476.47</ele>
        <time>2015-06-15T11:09:11Z</time>
      </trkpt>
      <trkpt lat="43.84344" lon="3.58152">
        <ele>476.47</ele>
        <time>2015-06-15T11:09:16Z</time>
      </trkpt>
      <trkpt lat="43.84346" lon="3.58145">
        <ele>477.43</ele>
        <time>2015-06-15T11:09:26Z</time>
      </trkpt>
      <trkpt lat="43.84346" lon="3.58145">
        <ele>477.43</ele>
        <time>2015-06-15T11:09:27Z</time>
      </trkpt>
      <trkpt lat="43.84348" lon="3.5814">
        <ele>477.91</ele>
        <time>2015-06-15T11:09:31Z</time>
      </trkpt>
      <trkpt lat="43.84353" lon="3.58132">
        <ele>478.87</ele>
        <time>2015-06-15T11:09:37Z</time>
      </trkpt>
      <trkpt lat="43.84364" lon="3.58123">
        <ele>480.32</ele>
        <time>2015-06-15T11:09:47Z</time>
      </trkpt>
      <trkpt lat="43.84371" lon="3.58113">
        <ele>481.28</ele>
        <time>2015-06-15T11:09:58Z</time>
      </trkpt>
      <trkpt lat="43.84372" lon="3.58112">
        <ele>481.28</ele>
        <time>2015-06-15T11:09:59Z</time>
      </trkpt>
      <trkpt lat="43.84383" lon="3.58098">
        <ele>482.72</ele>
        <time>2015-06-15T11:10:11Z</time>
      </trkpt>
      <trkpt lat="43.84395" lon="3.58091">
        <ele>484.16</ele>
        <time>2015-06-15T11:10:23Z</time>
      </trkpt>
      <trkpt lat="43.84399" lon="3.58091">
        <ele>484.64</ele>
        <time>2015-06-15T11:10:26Z</time>
      </trkpt>
      <trkpt lat="43.84407" lon="3.58087">
        <ele>485.6</ele>
        <time>2015-06-15T11:10:35Z</time>
      </trkpt>
      <trkpt lat="43.84421" lon="3.58086">
        <ele>487.53</ele>
        <time>2015-06-15T11:10:49Z</time>
      </trkpt>
      <trkpt lat="43.84428" lon="3.58086">
        <ele>488.97</ele>
        <time>2015-06-15T11:10:56Z</time>
      </trkpt>
      <trkpt lat="43.84435" lon="3.58088">
        <ele>489.93</ele>
        <time>2015-06-15T11:11:04Z</time>
      </trkpt>
      <trkpt lat="43.84448" lon="3.58093">
        <ele>490.89</ele>
        <time>2015-06-15T11:11:16Z</time>
      </trkpt>
      <trkpt lat="43.84461" lon="3.58098">
        <ele>492.33</ele>
        <time>2015-06-15T11:11:27Z</time>
      </trkpt>
      <trkpt lat="43.84463" lon="3.58099">
        <ele>492.81</ele>
        <time>2015-06-15T11:11:29Z</time>
      </trkpt>
      <trkpt lat="43.84466" lon="3.58097">
        <ele>493.29</ele>
        <time>2015-06-15T11:11:33Z</time>
      </trkpt>
      <trkpt lat="43.8448" lon="3.58103">
        <ele>495.22</ele>
        <time>2015-06-15T11:11:46Z</time>
      </trkpt>
      <trkpt lat="43.84483" lon="3.58105">
        <ele>495.7</ele>
        <time>2015-06-15T11:11:49Z</time>
      </trkpt>
      <trkpt lat="43.84492" lon="3.58106">
        <ele>496.66</ele>
        <time>2015-06-15T11:12:01Z</time>
      </trkpt>
      <trkpt lat="43.84494" lon="3.58106">
        <ele>497.14</ele>
        <time>2015-06-15T11:12:03Z</time>
      </trkpt>
      <trkpt lat="43.84496" lon="3.58119">
        <ele>499.54</ele>
        <time>2015-06-15T11:12:17Z</time>
      </trkpt>
      <trkpt lat="43.84495" lon="3.5812">
        <ele>500.02</ele>
        <time>2015-06-15T11:12:18Z</time>
      </trkpt>
      <trkpt lat="43.84484" lon="3.58127">
        <ele>500.98</ele>
        <time>2015-06-15T11:12:31Z</time>
      </trkpt>
      <trkpt lat="43.84483" lon="3.58128">
        <ele>500.98</ele>
        <time>2015-06-15T11:12:32Z</time>
      </trkpt>
      <trkpt lat="43.84478" lon="3.58135">
        <ele>502.91</ele>
        <time>2015-06-15T11:12:41Z</time>
      </trkpt>
      <trkpt lat="43.84468" lon="3.58141">
        <ele>503.87</ele>
        <time>2015-06-15T11:12:54Z</time>
      </trkpt>
      <trkpt lat="43.84458" lon="3.5815">
        <ele>505.79</ele>
        <time>2015-06-15T11:13:06Z</time>
      </trkpt>
      <trkpt lat="43.84443" lon="3.58158">
        <ele>507.23</ele>
        <time>2015-06-15T11:13:21Z</time>
      </trkpt>
      <trkpt lat="43.84431" lon="3.58166">
        <ele>508.67</ele>
        <time>2015-06-15T11:13:33Z</time>
      </trkpt>
      <trkpt lat="43.84422" lon="3.58173">
        <ele>510.12</ele>
        <time>2015-06-15T11:13:45Z</time>
      </trkpt>
      <trkpt lat="43.84425" lon="3.58168">
        <ele>511.56</ele>
        <time>2015-06-15T11:13:54Z</time>
      </trkpt>
      <trkpt lat="43.8443" lon="3.58163">
        <ele>512.52</ele>
        <time>2015-06-15T11:14:02Z</time>
      </trkpt>
      <trkpt lat="43.84443" lon="3.58161">
        <ele>515.4</ele>
        <time>2015-06-15T11:14:15Z</time>
      </trkpt>
      <trkpt lat="43.84454" lon="3.58164">
        <ele>516.37</ele>
        <time>2015-06-15T11:14:25Z</time>
      </trkpt>
      <trkpt lat="43.84459" lon="3.58169">
        <ele>517.33</ele>
        <time>2015-06-15T11:14:32Z</time>
      </trkpt>
      <trkpt lat="43.84466" lon="3.58171">
        <ele>519.25</ele>
        <time>2015-06-15T11:14:47Z</time>
      </trkpt>
      <trkpt lat="43.84468" lon="3.58173">
        <ele>520.21</ele>
        <time>2015-06-15T11:15:02Z</time>
      </trkpt>
      <trkpt lat="43.84476" lon="3.58176">
        <ele>521.17</ele>
        <time>2015-06-15T11:15:14Z</time>
      </trkpt>
      <trkpt lat="43.84477" lon="3.58179">
        <ele>521.65</ele>
        <time>2015-06-15T11:15:27Z</time>
      </trkpt>
      <trkpt lat="43.84478" lon="3.58179">
        <ele>521.65</ele>
        <time>2015-06-15T11:15:53Z</time>
      </trkpt>
      <trkpt lat="43.84482" lon="3.58183">
        <ele>523.09</ele>
        <time>2015-06-15T11:16:13Z</time>
      </trkpt>
      <trkpt lat="43.8449" lon="3.58187">
        <ele>525.98</ele>
        <time>2015-06-15T11:16:27Z</time>
      </trkpt>
      <trkpt lat="43.84492" lon="3.58187">
        <ele>526.46</ele>
        <time>2015-06-15T11:16:29Z</time>
      </trkpt>
      <trkpt lat="43.84496" lon="3.58189">
        <ele>526.94</ele>
        <time>2015-06-15T11:16:34Z</time>
      </trkpt>
      <trkpt lat="43.84501" lon="3.58193">
        <ele>528.38</ele>
        <time>2015-06-15T11:16:41Z</time>
      </trkpt>
      <trkpt lat="43.84511" lon="3.58197">
        <ele>531.27</ele>
        <time>2015-06-15T11:16:54Z</time>
      </trkpt>
      <trkpt lat="43.84515" lon="3.58196">
        <ele>531.75</ele>
        <time>2015-06-15T11:16:58Z</time>
      </trkpt>
      <trkpt lat="43.84523" lon="3.58193">
        <ele>533.67</ele>
        <time>2015-06-15T11:17:10Z</time>
      </trkpt>
      <trkpt lat="43.84529" lon="3.58195">
        <ele>535.59</ele>
        <time>2015-06-15T11:17:21Z</time>
      </trkpt>
      <trkpt lat="43.84537" lon="3.58195">
        <ele>537.51</ele>
        <time>2015-06-15T11:17:32Z</time>
      </trkpt>
      <trkpt lat="43.84543" lon="3.58195">
        <ele>538.48</ele>
        <time>2015-06-15T11:17:40Z</time>
      </trkpt>
      <trkpt lat="43.84554" lon="3.58194">
        <ele>539.92</ele>
        <time>2015-06-15T11:17:53Z</time>
      </trkpt>
      <trkpt lat="43.84559" lon="3.58197">
        <ele>540.4</ele>
        <time>2015-06-15T11:17:59Z</time>
      </trkpt>
      <trkpt lat="43.84564" lon="3.58202">
        <ele>541.36</ele>
        <time>2015-06-15T11:18:11Z</time>
      </trkpt>
      <trkpt lat="43.84565" lon="3.58201">
        <ele>540.88</ele>
        <time>2015-06-15T11:18:12Z</time>
      </trkpt>
      <trkpt lat="43.84569" lon="3.58201">
        <ele>541.36</ele>
        <time>2015-06-15T11:18:15Z</time>
      </trkpt>
      <trkpt lat="43.84577" lon="3.582">
        <ele>541.84</ele>
        <time>2015-06-15T11:18:24Z</time>
      </trkpt>
      <trkpt lat="43.84583" lon="3.58203">
        <ele>542.32</ele>
        <time>2015-06-15T11:18:29Z</time>
      </trkpt>
      <trkpt lat="43.84588" lon="3.58204">
        <ele>541.84</ele>
        <time>2015-06-15T11:18:34Z</time>
      </trkpt>
      <trkpt lat="43.84591" lon="3.58205">
        <ele>542.32</ele>
        <time>2015-06-15T11:18:37Z</time>
      </trkpt>
      <trkpt lat="43.846" lon="3.58203">
        <ele>540.88</ele>
        <time>2015-06-15T11:18:47Z</time>
      </trkpt>
      <trkpt lat="43.84603" lon="3.58198">
        <ele>540.88</ele>
        <time>2015-06-15T11:18:51Z</time>
      </trkpt>
      <trkpt lat="43.84605" lon="3.58193">
        <ele>540.88</ele>
        <time>2015-06-15T11:18:55Z</time>
      </trkpt>
      <trkpt lat="43.84605" lon="3.58189">
        <ele>540.88</ele>
        <time>2015-06-15T11:18:58Z</time>
      </trkpt>
      <trkpt lat="43.84606" lon="3.58174">
        <ele>541.84</ele>
        <time>2015-06-15T11:19:08Z</time>
      </trkpt>
      <trkpt lat="43.84614" lon="3.58167">
        <ele>542.32</ele>
        <time>2015-06-15T11:19:15Z</time>
      </trkpt>
      <trkpt lat="43.84617" lon="3.58166">
        <ele>542.8</ele>
        <time>2015-06-15T11:19:18Z</time>
      </trkpt>
      <trkpt lat="43.84623" lon="3.58161">
        <ele>542.8</ele>
        <time>2015-06-15T11:19:25Z</time>
      </trkpt>
      <trkpt lat="43.8463" lon="3.58156">
        <ele>543.28</ele>
        <time>2015-06-15T11:19:31Z</time>
      </trkpt>
      <trkpt lat="43.84637" lon="3.5815">
        <ele>543.76</ele>
        <time>2015-06-15T11:19:37Z</time>
      </trkpt>
      <trkpt lat="43.84641" lon="3.58147">
        <ele>544.72</ele>
        <time>2015-06-15T11:19:41Z</time>
      </trkpt>
      <trkpt lat="43.84648" lon="3.58147">
        <ele>544.72</ele>
        <time>2015-06-15T11:19:46Z</time>
      </trkpt>
      <trkpt lat="43.84656" lon="3.58142">
        <ele>545.2</ele>
        <time>2015-06-15T11:19:53Z</time>
      </trkpt>
      <trkpt lat="43.84663" lon="3.58134">
        <ele>546.17</ele>
        <time>2015-06-15T11:20:01Z</time>
      </trkpt>
      <trkpt lat="43.84665" lon="3.58133">
        <ele>546.17</ele>
        <time>2015-06-15T11:20:03Z</time>
      </trkpt>
      <trkpt lat="43.84668" lon="3.5813">
        <ele>546.65</ele>
        <time>2015-06-15T11:20:07Z</time>
      </trkpt>
      <trkpt lat="43.84671" lon="3.58127">
        <ele>547.13</ele>
        <time>2015-06-15T11:20:10Z</time>
      </trkpt>
      <trkpt lat="43.8468" lon="3.58117">
        <ele>548.09</ele>
        <time>2015-06-15T11:20:21Z</time>
      </trkpt>
      <trkpt lat="43.84691" lon="3.58104">
        <ele>548.57</ele>
        <time>2015-06-15T11:20:34Z</time>
      </trkpt>
      <trkpt lat="43.84697" lon="3.58096">
        <ele>549.53</ele>
        <time>2015-06-15T11:20:46Z</time>
      </trkpt>
      <trkpt lat="43.84705" lon="3.58082">
        <ele>550.97</ele>
        <time>2015-06-15T11:20:57Z</time>
      </trkpt>
      <trkpt lat="43.84705" lon="3.58081">
        <ele>550.97</ele>
        <time>2015-06-15T11:20:58Z</time>
      </trkpt>
      <trkpt lat="43.84707" lon="3.58078">
        <ele>551.45</ele>
        <time>2015-06-15T11:21:00Z</time>
      </trkpt>
      <trkpt lat="43.84712" lon="3.58063">
        <ele>552.41</ele>
        <time>2015-06-15T11:21:11Z</time>
      </trkpt>
      <trkpt lat="43.84712" lon="3.58052">
        <ele>552.9</ele>
        <time>2015-06-15T11:21:18Z</time>
      </trkpt>
      <trkpt lat="43.84713" lon="3.58048">
        <ele>553.38</ele>
        <time>2015-06-15T11:21:21Z</time>
      </trkpt>
      <trkpt lat="43.84714" lon="3.58038">
        <ele>554.34</ele>
        <time>2015-06-15T11:21:28Z</time>
      </trkpt>
      <trkpt lat="43.84716" lon="3.58031">
        <ele>555.3</ele>
        <time>2015-06-15T11:21:34Z</time>
      </trkpt>
      <trkpt lat="43.84716" lon="3.58013">
        <ele>556.26</ele>
        <time>2015-06-15T11:21:46Z</time>
      </trkpt>
      <trkpt lat="43.84718" lon="3.58006">
        <ele>557.22</ele>
        <time>2015-06-15T11:21:52Z</time>
      </trkpt>
      <trkpt lat="43.84726" lon="3.57993">
        <ele>558.18</ele>
        <time>2015-06-15T11:22:03Z</time>
      </trkpt>
      <trkpt lat="43.84732" lon="3.57974">
        <ele>559.62</ele>
        <time>2015-06-15T11:22:16Z</time>
      </trkpt>
      <trkpt lat="43.84741" lon="3.57958">
        <ele>560.11</ele>
        <time>2015-06-15T11:22:28Z</time>
      </trkpt>
      <trkpt lat="43.84744" lon="3.57956">
        <ele>560.11</ele>
        <time>2015-06-15T11:22:31Z</time>
      </trkpt>
      <trkpt lat="43.84749" lon="3.57957">
        <ele>560.59</ele>
        <time>2015-06-15T11:22:35Z</time>
      </trkpt>
      <trkpt lat="43.84753" lon="3.57958">
        <ele>560.59</ele>
        <time>2015-06-15T11:22:38Z</time>
      </trkpt>
      <trkpt lat="43.84763" lon="3.57964">
        <ele>561.07</ele>
        <time>2015-06-15T11:22:46Z</time>
      </trkpt>
      <trkpt lat="43.84772" lon="3.57966">
        <ele>561.07</ele>
        <time>2015-06-15T11:22:53Z</time>
      </trkpt>
      <trkpt lat="43.84777" lon="3.57969">
        <ele>562.03</ele>
        <time>2015-06-15T11:23:05Z</time>
      </trkpt>
      <trkpt lat="43.84778" lon="3.57969">
        <ele>562.03</ele>
        <time>2015-06-15T11:23:26Z</time>
      </trkpt>
      <trkpt lat="43.84777" lon="3.5797">
        <ele>562.03</ele>
        <time>2015-06-15T11:23:39Z</time>
      </trkpt>
      <trkpt lat="43.84779" lon="3.57973">
        <ele>561.55</ele>
        <time>2015-06-15T11:23:53Z</time>
      </trkpt>
      <trkpt lat="43.8478" lon="3.57976">
        <ele>562.03</ele>
        <time>2015-06-15T11:23:55Z</time>
      </trkpt>
      <trkpt lat="43.84782" lon="3.57985">
        <ele>562.03</ele>
        <time>2015-06-15T11:24:01Z</time>
      </trkpt>
      <trkpt lat="43.84784" lon="3.57995">
        <ele>562.03</ele>
        <time>2015-06-15T11:24:08Z</time>
      </trkpt>
      <trkpt lat="43.84791" lon="3.58002">
        <ele>562.51</ele>
        <time>2015-06-15T11:24:16Z</time>
      </trkpt>
      <trkpt lat="43.84798" lon="3.58016">
        <ele>562.99</ele>
        <time>2015-06-15T11:24:28Z</time>
      </trkpt>
      <trkpt lat="43.84799" lon="3.58017">
        <ele>562.99</ele>
        <time>2015-06-15T11:24:30Z</time>
      </trkpt>
      <trkpt lat="43.84806" lon="3.58022">
        <ele>563.47</ele>
        <time>2015-06-15T11:24:37Z</time>
      </trkpt>
      <trkpt lat="43.84806" lon="3.58031">
        <ele>562.99</ele>
        <time>2015-06-15T11:24:43Z</time>
      </trkpt>
      <trkpt lat="43.84807" lon="3.58037">
        <ele>562.99</ele>
        <time>2015-06-15T11:24:47Z</time>
      </trkpt>
      <trkpt lat="43.84808" lon="3.58042">
        <ele>563.47</ele>
        <time>2015-06-15T11:24:50Z</time>
      </trkpt>
      <trkpt lat="43.84807" lon="3.58048">
        <ele>563.47</ele>
        <time>2015-06-15T11:24:54Z</time>
      </trkpt>
      <trkpt lat="43.84807" lon="3.58052">
        <ele>563.47</ele>
        <time>2015-06-15T11:24:57Z</time>
      </trkpt>
      <trkpt lat="43.84808" lon="3.58067">
        <ele>563.47</ele>
        <time>2015-06-15T11:25:11Z</time>
      </trkpt>
      <trkpt lat="43.84811" lon="3.58068">
        <ele>563.47</ele>
        <time>2015-06-15T11:25:14Z</time>
      </trkpt>
      <trkpt lat="43.84814" lon="3.58074">
        <ele>564.43</ele>
        <time>2015-06-15T11:25:28Z</time>
      </trkpt>
      <trkpt lat="43.84809" lon="3.58076">
        <ele>563.47</ele>
        <time>2015-06-15T11:25:35Z</time>
      </trkpt>
      <trkpt lat="43.84811" lon="3.58092">
        <ele>563.47</ele>
        <time>2015-06-15T11:25:47Z</time>
      </trkpt>
      <trkpt lat="43.84814" lon="3.58099">
        <ele>562.99</ele>
        <time>2015-06-15T11:25:53Z</time>
      </trkpt>
      <trkpt lat="43.84816" lon="3.58108">
        <ele>562.99</ele>
        <time>2015-06-15T11:26:00Z</time>
      </trkpt>
      <trkpt lat="43.84817" lon="3.58111">
        <ele>562.99</ele>
        <time>2015-06-15T11:26:03Z</time>
      </trkpt>
      <trkpt lat="43.84822" lon="3.58124">
        <ele>562.51</ele>
        <time>2015-06-15T11:26:12Z</time>
      </trkpt>
      <trkpt lat="43.84824" lon="3.58129">
        <ele>562.51</ele>
        <time>2015-06-15T11:26:16Z</time>
      </trkpt>
      <trkpt lat="43.84827" lon="3.58146">
        <ele>561.55</ele>
        <time>2015-06-15T11:26:28Z</time>
      </trkpt>
      <trkpt lat="43.84837" lon="3.58157">
        <ele>561.07</ele>
        <time>2015-06-15T11:26:39Z</time>
      </trkpt>
      <trkpt lat="43.84841" lon="3.5816">
        <ele>561.07</ele>
        <time>2015-06-15T11:26:42Z</time>
      </trkpt>
      <trkpt lat="43.84854" lon="3.58175">
        <ele>560.59</ele>
        <time>2015-06-15T11:26:55Z</time>
      </trkpt>
      <trkpt lat="43.84856" lon="3.58177">
        <ele>560.11</ele>
        <time>2015-06-15T11:26:57Z</time>
      </trkpt>
      <trkpt lat="43.84865" lon="3.58189">
        <ele>558.66</ele>
        <time>2015-06-15T11:27:07Z</time>
      </trkpt>
      <trkpt lat="43.8487" lon="3.58196">
        <ele>558.18</ele>
        <time>2015-06-15T11:27:12Z</time>
      </trkpt>
      <trkpt lat="43.84875" lon="3.582">
        <ele>557.7</ele>
        <time>2015-06-15T11:27:16Z</time>
      </trkpt>
      <trkpt lat="43.84884" lon="3.58215">
        <ele>556.74</ele>
        <time>2015-06-15T11:27:27Z</time>
      </trkpt>
      <trkpt lat="43.84886" lon="3.58227">
        <ele>555.3</ele>
        <time>2015-06-15T11:27:33Z</time>
      </trkpt>
      <trkpt lat="43.84887" lon="3.58253">
        <ele>554.82</ele>
        <time>2015-06-15T11:27:47Z</time>
      </trkpt>
      <trkpt lat="43.84886" lon="3.58282">
        <ele>552.41</ele>
        <time>2015-06-15T11:28:03Z</time>
      </trkpt>
      <trkpt lat="43.84885" lon="3.58291">
        <ele>551.93</ele>
        <time>2015-06-15T11:28:08Z</time>
      </trkpt>
      <trkpt lat="43.84885" lon="3.58298">
        <ele>552.41</ele>
        <time>2015-06-15T11:28:12Z</time>
      </trkpt>
      <trkpt lat="43.84884" lon="3.58312">
        <ele>550.97</ele>
        <time>2015-06-15T11:28:20Z</time>
      </trkpt>
      <trkpt lat="43.84883" lon="3.58319">
        <ele>550.49</ele>
        <time>2015-06-15T11:28:35Z</time>
      </trkpt>
      <trkpt lat="43.84882" lon="3.58321">
        <ele>550.49</ele>
        <time>2015-06-15T11:28:50Z</time>
      </trkpt>
      <trkpt lat="43.84883" lon="3.58324">
        <ele>550.49</ele>
        <time>2015-06-15T11:28:52Z</time>
      </trkpt>
      <trkpt lat="43.84883" lon="3.58329">
        <ele>550.49</ele>
        <time>2015-06-15T11:28:55Z</time>
      </trkpt>
      <trkpt lat="43.84884" lon="3.58331">
        <ele>550.49</ele>
        <time>2015-06-15T11:29:06Z</time>
      </trkpt>
      <trkpt lat="43.84886" lon="3.58333">
        <ele>550.97</ele>
        <time>2015-06-15T11:29:20Z</time>
      </trkpt>
      <trkpt lat="43.84885" lon="3.58337">
        <ele>550.49</ele>
        <time>2015-06-15T11:29:23Z</time>
      </trkpt>
      <trkpt lat="43.84884" lon="3.58346">
        <ele>550.49</ele>
        <time>2015-06-15T11:29:33Z</time>
      </trkpt>
      <trkpt lat="43.84882" lon="3.5835">
        <ele>550.49</ele>
        <time>2015-06-15T11:29:47Z</time>
      </trkpt>
      <trkpt lat="43.84881" lon="3.58357">
        <ele>550.49</ele>
        <time>2015-06-15T11:29:56Z</time>
      </trkpt>
      <trkpt lat="43.8488" lon="3.58372">
        <ele>550.97</ele>
        <time>2015-06-15T11:30:07Z</time>
      </trkpt>
      <trkpt lat="43.84881" lon="3.58375">
        <ele>550.49</ele>
        <time>2015-06-15T11:30:21Z</time>
      </trkpt>
      <trkpt lat="43.84882" lon="3.58374">
        <ele>550.97</ele>
        <time>2015-06-15T11:30:31Z</time>
      </trkpt>
      <trkpt lat="43.84883" lon="3.58371">
        <ele>550.97</ele>
        <time>2015-06-15T11:30:33Z</time>
      </trkpt>
      <trkpt lat="43.84883" lon="3.58352">
        <ele>550.49</ele>
        <time>2015-06-15T11:30:46Z</time>
      </trkpt>
      <trkpt lat="43.84885" lon="3.58347">
        <ele>550.49</ele>
        <time>2015-06-15T11:30:50Z</time>
      </trkpt>
      <trkpt lat="43.84885" lon="3.58336">
        <ele>550.01</ele>
        <time>2015-06-15T11:30:57Z</time>
      </trkpt>
      <trkpt lat="43.84889" lon="3.5833">
        <ele>550.49</ele>
        <time>2015-06-15T11:31:06Z</time>
      </trkpt>
      <trkpt lat="43.84893" lon="3.58333">
        <ele>550.01</ele>
        <time>2015-06-15T11:31:11Z</time>
      </trkpt>
      <trkpt lat="43.84898" lon="3.58341">
        <ele>550.49</ele>
        <time>2015-06-15T11:31:20Z</time>
      </trkpt>
      <trkpt lat="43.84902" lon="3.58344">
        <ele>550.49</ele>
        <time>2015-06-15T11:31:33Z</time>
      </trkpt>
      <trkpt lat="43.84908" lon="3.58347">
        <ele>550.49</ele>
        <time>2015-06-15T11:31:46Z</time>
      </trkpt>
      <trkpt lat="43.8491" lon="3.58347">
        <ele>550.49</ele>
        <time>2015-06-15T11:32:00Z</time>
      </trkpt>
      <trkpt lat="43.8491" lon="3.58351">
        <ele>550.01</ele>
        <time>2015-06-15T11:32:10Z</time>
      </trkpt>
      <trkpt lat="43.84913" lon="3.58363">
        <ele>550.01</ele>
        <time>2015-06-15T11:32:24Z</time>
      </trkpt>
      <trkpt lat="43.84915" lon="3.58366">
        <ele>550.49</ele>
        <time>2015-06-15T11:32:27Z</time>
      </trkpt>
      <trkpt lat="43.8492" lon="3.58368">
        <ele>550.01</ele>
        <time>2015-06-15T11:32:32Z</time>
      </trkpt>
      <trkpt lat="43.84924" lon="3.58369">
        <ele>550.01</ele>
        <time>2015-06-15T11:32:37Z</time>
      </trkpt>
      <trkpt lat="43.84937" lon="3.58373">
        <ele>549.53</ele>
        <time>2015-06-15T11:32:50Z</time>
      </trkpt>
      <trkpt lat="43.84939" lon="3.58376">
        <ele>549.53</ele>
        <time>2015-06-15T11:32:52Z</time>
      </trkpt>
      <trkpt lat="43.84941" lon="3.58379">
        <ele>549.05</ele>
        <time>2015-06-15T11:32:55Z</time>
      </trkpt>
      <trkpt lat="43.84945" lon="3.58382">
        <ele>549.05</ele>
        <time>2015-06-15T11:32:59Z</time>
      </trkpt>
      <trkpt lat="43.84946" lon="3.58382">
        <ele>548.09</ele>
        <time>2015-06-15T11:33:01Z</time>
      </trkpt>
      <trkpt lat="43.84953" lon="3.58389">
        <ele>548.57</ele>
        <time>2015-06-15T11:33:12Z</time>
      </trkpt>
      <trkpt lat="43.8496" lon="3.58396">
        <ele>548.09</ele>
        <time>2015-06-15T11:33:23Z</time>
      </trkpt>
      <trkpt lat="43.84962" lon="3.58399">
        <ele>547.61</ele>
        <time>2015-06-15T11:33:40Z</time>
      </trkpt>
      <trkpt lat="43.84956" lon="3.58397">
        <ele>548.09</ele>
        <time>2015-06-15T11:33:51Z</time>
      </trkpt>
      <trkpt lat="43.84953" lon="3.58393">
        <ele>548.09</ele>
        <time>2015-06-15T11:33:55Z</time>
      </trkpt>
      <trkpt lat="43.84945" lon="3.58388">
        <ele>548.57</ele>
        <time>2015-06-15T11:34:02Z</time>
      </trkpt>
      <trkpt lat="43.84935" lon="3.5838">
        <ele>549.53</ele>
        <time>2015-06-15T11:34:14Z</time>
      </trkpt>
      <trkpt lat="43.84931" lon="3.5838">
        <ele>550.49</ele>
        <time>2015-06-15T11:34:18Z</time>
      </trkpt>
      <trkpt lat="43.84927" lon="3.58378">
        <ele>549.53</ele>
        <time>2015-06-15T11:34:23Z</time>
      </trkpt>
      <trkpt lat="43.84923" lon="3.58377">
        <ele>550.01</ele>
        <time>2015-06-15T11:34:28Z</time>
      </trkpt>
      <trkpt lat="43.84921" lon="3.58377">
        <ele>549.53</ele>
        <time>2015-06-15T11:34:30Z</time>
      </trkpt>
      <trkpt lat="43.84916" lon="3.58372">
        <ele>550.01</ele>
        <time>2015-06-15T11:34:37Z</time>
      </trkpt>
      <trkpt lat="43.84907" lon="3.58365">
        <ele>550.01</ele>
        <time>2015-06-15T11:34:50Z</time>
      </trkpt>
      <trkpt lat="43.84901" lon="3.58374">
        <ele>550.49</ele>
        <time>2015-06-15T11:35:03Z</time>
      </trkpt>
      <trkpt lat="43.84899" lon="3.58376">
        <ele>550.97</ele>
        <time>2015-06-15T11:35:05Z</time>
      </trkpt>
      <trkpt lat="43.84883" lon="3.58387">
        <ele>550.97</ele>
        <time>2015-06-15T11:35:18Z</time>
      </trkpt>
      <trkpt lat="43.84885" lon="3.58387">
        <ele>551.45</ele>
        <time>2015-06-15T11:35:31Z</time>
      </trkpt>
      <trkpt lat="43.84886" lon="3.58391">
        <ele>551.45</ele>
        <time>2015-06-15T11:35:34Z</time>
      </trkpt>
      <trkpt lat="43.84887" lon="3.58396">
        <ele>551.93</ele>
        <time>2015-06-15T11:35:38Z</time>
      </trkpt>
      <trkpt lat="43.84887" lon="3.584">
        <ele>551.45</ele>
        <time>2015-06-15T11:35:41Z</time>
      </trkpt>
      <trkpt lat="43.84888" lon="3.58403">
        <ele>551.45</ele>
        <time>2015-06-15T11:35:43Z</time>
      </trkpt>
      <trkpt lat="43.8489" lon="3.58418">
        <ele>550.49</ele>
        <time>2015-06-15T11:35:56Z</time>
      </trkpt>
      <trkpt lat="43.84894" lon="3.58436">
        <ele>551.45</ele>
        <time>2015-06-15T11:36:09Z</time>
      </trkpt>
      <trkpt lat="43.84897" lon="3.58452">
        <ele>551.93</ele>
        <time>2015-06-15T11:36:19Z</time>
      </trkpt>
      <trkpt lat="43.84898" lon="3.58457">
        <ele>551.93</ele>
        <time>2015-06-15T11:36:22Z</time>
      </trkpt>
      <trkpt lat="43.84902" lon="3.58476">
        <ele>551.93</ele>
        <time>2015-06-15T11:36:36Z</time>
      </trkpt>
      <trkpt lat="43.84903" lon="3.58477">
        <ele>551.93</ele>
        <time>2015-06-15T11:36:56Z</time>
      </trkpt>
      <trkpt lat="43.84904" lon="3.58482">
        <ele>552.41</ele>
        <time>2015-06-15T11:37:00Z</time>
      </trkpt>
      <trkpt lat="43.84905" lon="3.58489">
        <ele>551.93</ele>
        <time>2015-06-15T11:37:04Z</time>
      </trkpt>
      <trkpt lat="43.84908" lon="3.585">
        <ele>551.93</ele>
        <time>2015-06-15T11:37:11Z</time>
      </trkpt>
      <trkpt lat="43.84911" lon="3.58511">
        <ele>551.93</ele>
        <time>2015-06-15T11:37:20Z</time>
      </trkpt>
      <trkpt lat="43.84911" lon="3.58516">
        <ele>552.41</ele>
        <time>2015-06-15T11:37:23Z</time>
      </trkpt>
      <trkpt lat="43.84918" lon="3.58524">
        <ele>551.45</ele>
        <time>2015-06-15T11:37:38Z</time>
      </trkpt>
      <trkpt lat="43.84917" lon="3.58525">
        <ele>551.93</ele>
        <time>2015-06-15T11:37:41Z</time>
      </trkpt>
      <trkpt lat="43.84916" lon="3.58537">
        <ele>551.45</ele>
        <time>2015-06-15T11:37:50Z</time>
      </trkpt>
      <trkpt lat="43.84919" lon="3.58547">
        <ele>551.93</ele>
        <time>2015-06-15T11:37:57Z</time>
      </trkpt>
      <trkpt lat="43.84924" lon="3.58571">
        <ele>551.93</ele>
        <time>2015-06-15T11:38:12Z</time>
      </trkpt>
      <trkpt lat="43.84924" lon="3.58575">
        <ele>551.45</ele>
        <time>2015-06-15T11:38:15Z</time>
      </trkpt>
      <trkpt lat="43.84923" lon="3.58581">
        <ele>551.45</ele>
        <time>2015-06-15T11:38:20Z</time>
      </trkpt>
      <trkpt lat="43.84931" lon="3.58602">
        <ele>551.45</ele>
        <time>2015-06-15T11:38:33Z</time>
      </trkpt>
      <trkpt lat="43.84938" lon="3.58621">
        <ele>550.97</ele>
        <time>2015-06-15T11:38:44Z</time>
      </trkpt>
      <trkpt lat="43.84947" lon="3.58636">
        <ele>550.97</ele>
        <time>2015-06-15T11:38:55Z</time>
      </trkpt>
      <trkpt lat="43.84949" lon="3.5864">
        <ele>550.97</ele>
        <time>2015-06-15T11:38:57Z</time>
      </trkpt>
      <trkpt lat="43.84957" lon="3.5866">
        <ele>550.97</ele>
        <time>2015-06-15T11:39:12Z</time>
      </trkpt>
      <trkpt lat="43.84964" lon="3.58676">
        <ele>550.97</ele>
        <time>2015-06-15T11:39:25Z</time>
      </trkpt>
      <trkpt lat="43.84971" lon="3.58673">
        <ele>551.45</ele>
        <time>2015-06-15T11:39:34Z</time>
      </trkpt>
      <trkpt lat="43.84975" lon="3.58668">
        <ele>549.53</ele>
        <time>2015-06-15T11:39:40Z</time>
      </trkpt>
      <trkpt lat="43.84978" lon="3.58659">
        <ele>549.05</ele>
        <time>2015-06-15T11:39:47Z</time>
      </trkpt>
      <trkpt lat="43.84982" lon="3.58653">
        <ele>549.53</ele>
        <time>2015-06-15T11:39:52Z</time>
      </trkpt>
      <trkpt lat="43.84983" lon="3.58649">
        <ele>549.53</ele>
        <time>2015-06-15T11:39:54Z</time>
      </trkpt>
      <trkpt lat="43.84984" lon="3.58627">
        <ele>548.09</ele>
        <time>2015-06-15T11:40:09Z</time>
      </trkpt>
      <trkpt lat="43.84985" lon="3.58606">
        <ele>546.65</ele>
        <time>2015-06-15T11:40:21Z</time>
      </trkpt>
      <trkpt lat="43.84984" lon="3.58599">
        <ele>546.65</ele>
        <time>2015-06-15T11:40:25Z</time>
      </trkpt>
      <trkpt lat="43.84986" lon="3.58582">
        <ele>546.17</ele>
        <time>2015-06-15T11:40:33Z</time>
      </trkpt>
      <trkpt lat="43.8499" lon="3.58575">
        <ele>545.2</ele>
        <time>2015-06-15T11:40:39Z</time>
      </trkpt>
      <trkpt lat="43.84993" lon="3.58572">
        <ele>545.69</ele>
        <time>2015-06-15T11:40:41Z</time>
      </trkpt>
      <trkpt lat="43.85012" lon="3.58564">
        <ele>545.2</ele>
        <time>2015-06-15T11:40:55Z</time>
      </trkpt>
      <trkpt lat="43.85015" lon="3.58566">
        <ele>544.72</ele>
        <time>2015-06-15T11:40:59Z</time>
      </trkpt>
      <trkpt lat="43.85019" lon="3.58571">
        <ele>546.17</ele>
        <time>2015-06-15T11:41:07Z</time>
      </trkpt>
      <trkpt lat="43.8502" lon="3.58574">
        <ele>543.28</ele>
        <time>2015-06-15T11:41:10Z</time>
      </trkpt>
      <trkpt lat="43.85022" lon="3.58579">
        <ele>543.76</ele>
        <time>2015-06-15T11:41:23Z</time>
      </trkpt>
      <trkpt lat="43.85023" lon="3.58581">
        <ele>545.2</ele>
        <time>2015-06-15T11:41:24Z</time>
      </trkpt>
      <trkpt lat="43.85027" lon="3.58603">
        <ele>544.72</ele>
        <time>2015-06-15T11:41:37Z</time>
      </trkpt>
      <trkpt lat="43.85033" lon="3.58642">
        <ele>545.2</ele>
        <time>2015-06-15T11:41:55Z</time>
      </trkpt>
      <trkpt lat="43.85033" lon="3.58643">
        <ele>545.69</ele>
        <time>2015-06-15T11:41:56Z</time>
      </trkpt>
      <trkpt lat="43.8504" lon="3.58665">
        <ele>545.69</ele>
        <time>2015-06-15T11:42:11Z</time>
      </trkpt>
      <trkpt lat="43.8504" lon="3.58666">
        <ele>544.72</ele>
        <time>2015-06-15T11:42:12Z</time>
      </trkpt>
      <trkpt lat="43.85043" lon="3.58674">
        <ele>545.2</ele>
        <time>2015-06-15T11:42:16Z</time>
      </trkpt>
      <trkpt lat="43.85046" lon="3.5868">
        <ele>545.2</ele>
        <time>2015-06-15T11:42:19Z</time>
      </trkpt>
      <trkpt lat="43.85049" lon="3.58693">
        <ele>545.69</ele>
        <time>2015-06-15T11:42:27Z</time>
      </trkpt>
      <trkpt lat="43.8505" lon="3.587">
        <ele>545.69</ele>
        <time>2015-06-15T11:42:32Z</time>
      </trkpt>
      <trkpt lat="43.8505" lon="3.58706">
        <ele>546.17</ele>
        <time>2015-06-15T11:42:36Z</time>
      </trkpt>
      <trkpt lat="43.85053" lon="3.58726">
        <ele>547.61</ele>
        <time>2015-06-15T11:42:49Z</time>
      </trkpt>
      <trkpt lat="43.85053" lon="3.58728">
        <ele>547.13</ele>
        <time>2015-06-15T11:42:51Z</time>
      </trkpt>
      <trkpt lat="43.85056" lon="3.58737">
        <ele>547.61</ele>
        <time>2015-06-15T11:42:56Z</time>
      </trkpt>
      <trkpt lat="43.85064" lon="3.58759">
        <ele>547.61</ele>
        <time>2015-06-15T11:43:10Z</time>
      </trkpt>
      <trkpt lat="43.8507" lon="3.58779">
        <ele>545.2</ele>
        <time>2015-06-15T11:43:22Z</time>
      </trkpt>
      <trkpt lat="43.85071" lon="3.58788">
        <ele>544.24</ele>
        <time>2015-06-15T11:43:27Z</time>
      </trkpt>
      <trkpt lat="43.85074" lon="3.58809">
        <ele>541.84</ele>
        <time>2015-06-15T11:43:38Z</time>
      </trkpt>
      <trkpt lat="43.85073" lon="3.58832">
        <ele>540.4</ele>
        <time>2015-06-15T11:43:53Z</time>
      </trkpt>
      <trkpt lat="43.85073" lon="3.58833">
        <ele>540.88</ele>
        <time>2015-06-15T11:44:16Z</time>
      </trkpt>
      <trkpt lat="43.85076" lon="3.58834">
        <ele>540.4</ele>
        <time>2015-06-15T11:44:26Z</time>
      </trkpt>
      <trkpt lat="43.85078" lon="3.58833">
        <ele>540.4</ele>
        <time>2015-06-15T11:44:29Z</time>
      </trkpt>
      <trkpt lat="43.85082" lon="3.58828">
        <ele>539.92</ele>
        <time>2015-06-15T11:44:35Z</time>
      </trkpt>
      <trkpt lat="43.85095" lon="3.58821">
        <ele>541.36</ele>
        <time>2015-06-15T11:44:49Z</time>
      </trkpt>
      <trkpt lat="43.85108" lon="3.58817">
        <ele>543.76</ele>
        <time>2015-06-15T11:45:00Z</time>
      </trkpt>
      <trkpt lat="43.85111" lon="3.58818">
        <ele>544.24</ele>
        <time>2015-06-15T11:45:02Z</time>
      </trkpt>
      <trkpt lat="43.85125" lon="3.58826">
        <ele>545.69</ele>
        <time>2015-06-15T11:45:14Z</time>
      </trkpt>
      <trkpt lat="43.85134" lon="3.58834">
        <ele>547.13</ele>
        <time>2015-06-15T11:45:23Z</time>
      </trkpt>
      <trkpt lat="43.85149" lon="3.58839">
        <ele>547.13</ele>
        <time>2015-06-15T11:45:37Z</time>
      </trkpt>
      <trkpt lat="43.85161" lon="3.58837">
        <ele>547.61</ele>
        <time>2015-06-15T11:45:49Z</time>
      </trkpt>
      <trkpt lat="43.85166" lon="3.58833">
        <ele>546.17</ele>
        <time>2015-06-15T11:45:55Z</time>
      </trkpt>
      <trkpt lat="43.85183" lon="3.58828">
        <ele>546.65</ele>
        <time>2015-06-15T11:46:06Z</time>
      </trkpt>
      <trkpt lat="43.85185" lon="3.58827">
        <ele>545.2</ele>
        <time>2015-06-15T11:46:08Z</time>
      </trkpt>
      <trkpt lat="43.85195" lon="3.58823">
        <ele>544.24</ele>
        <time>2015-06-15T11:46:17Z</time>
      </trkpt>
      <trkpt lat="43.85209" lon="3.58816">
        <ele>543.76</ele>
        <time>2015-06-15T11:46:30Z</time>
      </trkpt>
      <trkpt lat="43.85213" lon="3.58818">
        <ele>542.8</ele>
        <time>2015-06-15T11:46:34Z</time>
      </trkpt>
      <trkpt lat="43.85219" lon="3.5882">
        <ele>543.28</ele>
        <time>2015-06-15T11:46:40Z</time>
      </trkpt>
      <trkpt lat="43.8523" lon="3.58825">
        <ele>541.84</ele>
        <time>2015-06-15T11:46:49Z</time>
      </trkpt>
      <trkpt lat="43.85241" lon="3.58826">
        <ele>542.32</ele>
        <time>2015-06-15T11:46:59Z</time>
      </trkpt>
      <trkpt lat="43.85256" lon="3.58823">
        <ele>543.76</ele>
        <time>2015-06-15T11:47:12Z</time>
      </trkpt>
      <trkpt lat="43.85267" lon="3.5883">
        <ele>543.76</ele>
        <time>2015-06-15T11:47:24Z</time>
      </trkpt>
      <trkpt lat="43.85266" lon="3.58831">
        <ele>543.28</ele>
        <time>2015-06-15T11:47:45Z</time>
      </trkpt>
      <trkpt lat="43.85267" lon="3.58832">
        <ele>542.8</ele>
        <time>2015-06-15T11:47:49Z</time>
      </trkpt>
      <trkpt lat="43.8527" lon="3.58834">
        <ele>542.8</ele>
        <time>2015-06-15T11:47:52Z</time>
      </trkpt>
      <trkpt lat="43.85275" lon="3.5884">
        <ele>542.32</ele>
        <time>2015-06-15T11:47:57Z</time>
      </trkpt>
      <trkpt lat="43.85282" lon="3.58843">
        <ele>542.32</ele>
        <time>2015-06-15T11:48:03Z</time>
      </trkpt>
      <trkpt lat="43.85288" lon="3.58852">
        <ele>541.36</ele>
        <time>2015-06-15T11:48:10Z</time>
      </trkpt>
      <trkpt lat="43.8529" lon="3.58854">
        <ele>540.88</ele>
        <time>2015-06-15T11:48:13Z</time>
      </trkpt>
      <trkpt lat="43.85297" lon="3.58844">
        <ele>541.36</ele>
        <time>2015-06-15T11:48:24Z</time>
      </trkpt>
      <trkpt lat="43.85298" lon="3.5884">
        <ele>541.84</ele>
        <time>2015-06-15T11:48:27Z</time>
      </trkpt>
      <trkpt lat="43.85307" lon="3.58826">
        <ele>544.24</ele>
        <time>2015-06-15T11:48:40Z</time>
      </trkpt>
      <trkpt lat="43.85308" lon="3.58825">
        <ele>544.24</ele>
        <time>2015-06-15T11:48:41Z</time>
      </trkpt>
      <trkpt lat="43.85311" lon="3.58823">
        <ele>544.24</ele>
        <time>2015-06-15T11:48:44Z</time>
      </trkpt>
      <trkpt lat="43.85318" lon="3.58813">
        <ele>544.24</ele>
        <time>2015-06-15T11:48:52Z</time>
      </trkpt>
      <trkpt lat="43.85333" lon="3.58804">
        <ele>543.28</ele>
        <time>2015-06-15T11:49:05Z</time>
      </trkpt>
      <trkpt lat="43.85349" lon="3.58796">
        <ele>542.32</ele>
        <time>2015-06-15T11:49:19Z</time>
      </trkpt>
      <trkpt lat="43.85351" lon="3.58793">
        <ele>542.8</ele>
        <time>2015-06-15T11:49:22Z</time>
      </trkpt>
      <trkpt lat="43.85373" lon="3.58785">
        <ele>543.28</ele>
        <time>2015-06-15T11:49:37Z</time>
      </trkpt>
      <trkpt lat="43.8539" lon="3.58781">
        <ele>544.72</ele>
        <time>2015-06-15T11:49:51Z</time>
      </trkpt>
      <trkpt lat="43.85392" lon="3.58781">
        <ele>544.72</ele>
        <time>2015-06-15T11:49:52Z</time>
      </trkpt>
      <trkpt lat="43.85399" lon="3.5878">
        <ele>545.69</ele>
        <time>2015-06-15T11:49:58Z</time>
      </trkpt>
      <trkpt lat="43.85415" lon="3.58783">
        <ele>547.13</ele>
        <time>2015-06-15T11:50:11Z</time>
      </trkpt>
      <trkpt lat="43.85416" lon="3.58783">
        <ele>547.61</ele>
        <time>2015-06-15T11:50:12Z</time>
      </trkpt>
      <trkpt lat="43.85431" lon="3.58792">
        <ele>548.09</ele>
        <time>2015-06-15T11:50:26Z</time>
      </trkpt>
      <trkpt lat="43.85434" lon="3.58794">
        <ele>549.05</ele>
        <time>2015-06-15T11:50:29Z</time>
      </trkpt>
      <trkpt lat="43.85438" lon="3.58796">
        <ele>548.09</ele>
        <time>2015-06-15T11:50:32Z</time>
      </trkpt>
      <trkpt lat="43.85443" lon="3.588">
        <ele>550.01</ele>
        <time>2015-06-15T11:50:36Z</time>
      </trkpt>
      <trkpt lat="43.85448" lon="3.58802">
        <ele>549.53</ele>
        <time>2015-06-15T11:50:40Z</time>
      </trkpt>
      <trkpt lat="43.85454" lon="3.58806">
        <ele>549.05</ele>
        <time>2015-06-15T11:50:45Z</time>
      </trkpt>
      <trkpt lat="43.85466" lon="3.58812">
        <ele>549.05</ele>
        <time>2015-06-15T11:50:56Z</time>
      </trkpt>
      <trkpt lat="43.85478" lon="3.58826">
        <ele>551.45</ele>
        <time>2015-06-15T11:51:08Z</time>
      </trkpt>
      <trkpt lat="43.85482" lon="3.58831">
        <ele>551.45</ele>
        <time>2015-06-15T11:51:12Z</time>
      </trkpt>
      <trkpt lat="43.85492" lon="3.58843">
        <ele>551.45</ele>
        <time>2015-06-15T11:51:23Z</time>
      </trkpt>
      <trkpt lat="43.85502" lon="3.58859">
        <ele>551.93</ele>
        <time>2015-06-15T11:51:34Z</time>
      </trkpt>
      <trkpt lat="43.85512" lon="3.5888">
        <ele>552.41</ele>
        <time>2015-06-15T11:51:47Z</time>
      </trkpt>
      <trkpt lat="43.85518" lon="3.58903">
        <ele>554.34</ele>
        <time>2015-06-15T11:52:01Z</time>
      </trkpt>
      <trkpt lat="43.8552" lon="3.5891">
        <ele>554.82</ele>
        <time>2015-06-15T11:52:06Z</time>
      </trkpt>
      <trkpt lat="43.8552" lon="3.58915">
        <ele>555.3</ele>
        <time>2015-06-15T11:52:09Z</time>
      </trkpt>
      <trkpt lat="43.85524" lon="3.58924">
        <ele>555.3</ele>
        <time>2015-06-15T11:52:15Z</time>
      </trkpt>
      <trkpt lat="43.85526" lon="3.58929">
        <ele>556.26</ele>
        <time>2015-06-15T11:52:18Z</time>
      </trkpt>
      <trkpt lat="43.85529" lon="3.58936">
        <ele>556.26</ele>
        <time>2015-06-15T11:52:24Z</time>
      </trkpt>
      <trkpt lat="43.85529" lon="3.58939">
        <ele>556.26</ele>
        <time>2015-06-15T11:52:26Z</time>
      </trkpt>
      <trkpt lat="43.85538" lon="3.58959">
        <ele>557.7</ele>
        <time>2015-06-15T11:52:40Z</time>
      </trkpt>
      <trkpt lat="43.85541" lon="3.58968">
        <ele>558.66</ele>
        <time>2015-06-15T11:52:46Z</time>
      </trkpt>
      <trkpt lat="43.85541" lon="3.58977">
        <ele>559.62</ele>
        <time>2015-06-15T11:53:00Z</time>
      </trkpt>
      <trkpt lat="43.85541" lon="3.58978">
        <ele>560.11</ele>
        <time>2015-06-15T11:53:04Z</time>
      </trkpt>
      <trkpt lat="43.85544" lon="3.58984">
        <ele>560.11</ele>
        <time>2015-06-15T11:53:08Z</time>
      </trkpt>
      <trkpt lat="43.85549" lon="3.59001">
        <ele>560.59</ele>
        <time>2015-06-15T11:53:21Z</time>
      </trkpt>
      <trkpt lat="43.85555" lon="3.59021">
        <ele>562.99</ele>
        <time>2015-06-15T11:53:35Z</time>
      </trkpt>
      <trkpt lat="43.85559" lon="3.5903">
        <ele>563.47</ele>
        <time>2015-06-15T11:53:42Z</time>
      </trkpt>
      <trkpt lat="43.85565" lon="3.59042">
        <ele>564.43</ele>
        <time>2015-06-15T11:53:52Z</time>
      </trkpt>
      <trkpt lat="43.8557" lon="3.59048">
        <ele>565.39</ele>
        <time>2015-06-15T11:53:57Z</time>
      </trkpt>
      <trkpt lat="43.85578" lon="3.59063">
        <ele>564.91</ele>
        <time>2015-06-15T11:54:10Z</time>
      </trkpt>
      <trkpt lat="43.85582" lon="3.59068">
        <ele>564.91</ele>
        <time>2015-06-15T11:54:14Z</time>
      </trkpt>
      <trkpt lat="43.85587" lon="3.59079">
        <ele>562.99</ele>
        <time>2015-06-15T11:54:21Z</time>
      </trkpt>
      <trkpt lat="43.8559" lon="3.59083">
        <ele>563.95</ele>
        <time>2015-06-15T11:54:25Z</time>
      </trkpt>
      <trkpt lat="43.856" lon="3.59102">
        <ele>562.03</ele>
        <time>2015-06-15T11:54:38Z</time>
      </trkpt>
      <trkpt lat="43.85605" lon="3.59117">
        <ele>561.07</ele>
        <time>2015-06-15T11:54:46Z</time>
      </trkpt>
      <trkpt lat="43.85605" lon="3.59118">
        <ele>560.59</ele>
        <time>2015-06-15T11:54:47Z</time>
      </trkpt>
      <trkpt lat="43.85607" lon="3.5913">
        <ele>560.59</ele>
        <time>2015-06-15T11:54:54Z</time>
      </trkpt>
      <trkpt lat="43.85607" lon="3.59134">
        <ele>560.59</ele>
        <time>2015-06-15T11:54:56Z</time>
      </trkpt>
      <trkpt lat="43.85617" lon="3.59151">
        <ele>560.59</ele>
        <time>2015-06-15T11:55:08Z</time>
      </trkpt>
      <trkpt lat="43.85618" lon="3.59154">
        <ele>559.62</ele>
        <time>2015-06-15T11:55:12Z</time>
      </trkpt>
      <trkpt lat="43.85623" lon="3.59173">
        <ele>558.66</ele>
        <time>2015-06-15T11:55:24Z</time>
      </trkpt>
      <trkpt lat="43.85626" lon="3.59181">
        <ele>558.66</ele>
        <time>2015-06-15T11:55:30Z</time>
      </trkpt>
      <trkpt lat="43.85628" lon="3.59185">
        <ele>559.14</ele>
        <time>2015-06-15T11:55:33Z</time>
      </trkpt>
      <trkpt lat="43.85632" lon="3.59195">
        <ele>559.14</ele>
        <time>2015-06-15T11:55:49Z</time>
      </trkpt>
      <trkpt lat="43.85641" lon="3.59213">
        <ele>557.22</ele>
        <time>2015-06-15T11:56:04Z</time>
      </trkpt>
      <trkpt lat="43.85641" lon="3.59215">
        <ele>558.18</ele>
        <time>2015-06-15T11:56:05Z</time>
      </trkpt>
      <trkpt lat="43.85645" lon="3.59229">
        <ele>556.26</ele>
        <time>2015-06-15T11:56:14Z</time>
      </trkpt>
      <trkpt lat="43.85647" lon="3.59237">
        <ele>555.3</ele>
        <time>2015-06-15T11:56:20Z</time>
      </trkpt>
      <trkpt lat="43.85653" lon="3.59256">
        <ele>552.9</ele>
        <time>2015-06-15T11:56:32Z</time>
      </trkpt>
      <trkpt lat="43.85659" lon="3.59263">
        <ele>551.93</ele>
        <time>2015-06-15T11:56:38Z</time>
      </trkpt>
      <trkpt lat="43.85662" lon="3.59272">
        <ele>552.41</ele>
        <time>2015-06-15T11:56:43Z</time>
      </trkpt>
      <trkpt lat="43.85662" lon="3.59275">
        <ele>550.49</ele>
        <time>2015-06-15T11:56:45Z</time>
      </trkpt>
      <trkpt lat="43.85671" lon="3.59291">
        <ele>549.53</ele>
        <time>2015-06-15T11:56:58Z</time>
      </trkpt>
      <trkpt lat="43.85673" lon="3.59292">
        <ele>549.53</ele>
        <time>2015-06-15T11:57:00Z</time>
      </trkpt>
      <trkpt lat="43.85683" lon="3.59291">
        <ele>550.49</ele>
        <time>2015-06-15T11:57:09Z</time>
      </trkpt>
      <trkpt lat="43.85693" lon="3.59289">
        <ele>549.05</ele>
        <time>2015-06-15T11:57:16Z</time>
      </trkpt>
      <trkpt lat="43.85706" lon="3.59296">
        <ele>549.53</ele>
        <time>2015-06-15T11:57:26Z</time>
      </trkpt>
      <trkpt lat="43.85724" lon="3.59316">
        <ele>549.53</ele>
        <time>2015-06-15T11:57:41Z</time>
      </trkpt>
      <trkpt lat="43.85738" lon="3.5933">
        <ele>548.57</ele>
        <time>2015-06-15T11:57:53Z</time>
      </trkpt>
      <trkpt lat="43.85752" lon="3.59347">
        <ele>547.13</ele>
        <time>2015-06-15T11:58:08Z</time>
      </trkpt>
      <trkpt lat="43.85768" lon="3.59357">
        <ele>545.69</ele>
        <time>2015-06-15T11:58:20Z</time>
      </trkpt>
      <trkpt lat="43.85777" lon="3.59371">
        <ele>545.2</ele>
        <time>2015-06-15T11:58:30Z</time>
      </trkpt>
      <trkpt lat="43.85778" lon="3.59376">
        <ele>543.76</ele>
        <time>2015-06-15T11:58:33Z</time>
      </trkpt>
      <trkpt lat="43.85784" lon="3.59389">
        <ele>541.36</ele>
        <time>2015-06-15T11:58:43Z</time>
      </trkpt>
      <trkpt lat="43.85788" lon="3.59399">
        <ele>537.99</ele>
        <time>2015-06-15T11:58:51Z</time>
      </trkpt>
      <trkpt lat="43.85793" lon="3.59405">
        <ele>537.99</ele>
        <time>2015-06-15T11:58:58Z</time>
      </trkpt>
      <trkpt lat="43.85796" lon="3.59407">
        <ele>538.48</ele>
        <time>2015-06-15T11:59:02Z</time>
      </trkpt>
      <trkpt lat="43.858" lon="3.59407">
        <ele>536.07</ele>
        <time>2015-06-15T11:59:05Z</time>
      </trkpt>
      <trkpt lat="43.85811" lon="3.59402">
        <ele>533.67</ele>
        <time>2015-06-15T11:59:17Z</time>
      </trkpt>
      <trkpt lat="43.85825" lon="3.59395">
        <ele>532.23</ele>
        <time>2015-06-15T11:59:28Z</time>
      </trkpt>
      <trkpt lat="43.85828" lon="3.59395">
        <ele>531.75</ele>
        <time>2015-06-15T11:59:30Z</time>
      </trkpt>
      <trkpt lat="43.85834" lon="3.59398">
        <ele>530.79</ele>
        <time>2015-06-15T11:59:35Z</time>
      </trkpt>
      <trkpt lat="43.85839" lon="3.59403">
        <ele>529.82</ele>
        <time>2015-06-15T11:59:40Z</time>
      </trkpt>
      <trkpt lat="43.85841" lon="3.59408">
        <ele>529.34</ele>
        <time>2015-06-15T11:59:43Z</time>
      </trkpt>
      <trkpt lat="43.85847" lon="3.59415">
        <ele>526.94</ele>
        <time>2015-06-15T11:59:58Z</time>
      </trkpt>
      <trkpt lat="43.85847" lon="3.59415">
        <ele>529.82</ele>
        <time>2015-06-15T11:59:59Z</time>
      </trkpt>
      <trkpt lat="43.8585" lon="3.59419">
        <ele>527.42</ele>
        <time>2015-06-15T12:00:02Z</time>
      </trkpt>
      <trkpt lat="43.8585" lon="3.59423">
        <ele>526.94</ele>
        <time>2015-06-15T12:00:04Z</time>
      </trkpt>
      <trkpt lat="43.85855" lon="3.59431">
        <ele>527.42</ele>
        <time>2015-06-15T12:00:18Z</time>
      </trkpt>
      <trkpt lat="43.85855" lon="3.59433">
        <ele>526.46</ele>
        <time>2015-06-15T12:00:42Z</time>
      </trkpt>
      <trkpt lat="43.85855" lon="3.59433">
        <ele>526.46</ele>
        <time>2015-06-15T12:01:15Z</time>
      </trkpt>
      <trkpt lat="43.85855" lon="3.59436">
        <ele>523.09</ele>
        <time>2015-06-15T12:01:41Z</time>
      </trkpt>
      <trkpt lat="43.85855" lon="3.59438">
        <ele>523.58</ele>
        <time>2015-06-15T12:01:42Z</time>
      </trkpt>
      <trkpt lat="43.85855" lon="3.5944">
        <ele>524.54</ele>
        <time>2015-06-15T12:01:44Z</time>
      </trkpt>
      <trkpt lat="43.85859" lon="3.59449">
        <ele>525.5</ele>
        <time>2015-06-15T12:01:55Z</time>
      </trkpt>
      <trkpt lat="43.85859" lon="3.5945">
        <ele>525.02</ele>
        <time>2015-06-15T12:01:56Z</time>
      </trkpt>
      <trkpt lat="43.85868" lon="3.59468">
        <ele>525.02</ele>
        <time>2015-06-15T12:02:08Z</time>
      </trkpt>
      <trkpt lat="43.85872" lon="3.59481">
        <ele>526.94</ele>
        <time>2015-06-15T12:02:20Z</time>
      </trkpt>
      <trkpt lat="43.85876" lon="3.59488">
        <ele>527.9</ele>
        <time>2015-06-15T12:02:28Z</time>
      </trkpt>
      <trkpt lat="43.85884" lon="3.59503">
        <ele>527.9</ele>
        <time>2015-06-15T12:02:38Z</time>
      </trkpt>
      <trkpt lat="43.85886" lon="3.59506">
        <ele>527.42</ele>
        <time>2015-06-15T12:02:40Z</time>
      </trkpt>
      <trkpt lat="43.8589" lon="3.59516">
        <ele>526.46</ele>
        <time>2015-06-15T12:02:49Z</time>
      </trkpt>
      <trkpt lat="43.85891" lon="3.59527">
        <ele>526.94</ele>
        <time>2015-06-15T12:03:01Z</time>
      </trkpt>
      <trkpt lat="43.85891" lon="3.59533">
        <ele>525.5</ele>
        <time>2015-06-15T12:03:05Z</time>
      </trkpt>
      <trkpt lat="43.85889" lon="3.59546">
        <ele>524.54</ele>
        <time>2015-06-15T12:03:14Z</time>
      </trkpt>
      <trkpt lat="43.85895" lon="3.59563">
        <ele>526.46</ele>
        <time>2015-06-15T12:03:28Z</time>
      </trkpt>
      <trkpt lat="43.85895" lon="3.59564">
        <ele>526.46</ele>
        <time>2015-06-15T12:03:29Z</time>
      </trkpt>
      <trkpt lat="43.85898" lon="3.59573">
        <ele>528.38</ele>
        <time>2015-06-15T12:03:40Z</time>
      </trkpt>
      <trkpt lat="43.85902" lon="3.59584">
        <ele>530.79</ele>
        <time>2015-06-15T12:03:52Z</time>
      </trkpt>
      <trkpt lat="43.85906" lon="3.59596">
        <ele>532.71</ele>
        <time>2015-06-15T12:04:05Z</time>
      </trkpt>
      <trkpt lat="43.8591" lon="3.59607">
        <ele>535.11</ele>
        <time>2015-06-15T12:04:17Z</time>
      </trkpt>
      <trkpt lat="43.85917" lon="3.59618">
        <ele>535.59</ele>
        <time>2015-06-15T12:04:29Z</time>
      </trkpt>
      <trkpt lat="43.85921" lon="3.59627">
        <ele>535.11</ele>
        <time>2015-06-15T12:04:37Z</time>
      </trkpt>
      <trkpt lat="43.85922" lon="3.59631">
        <ele>535.59</ele>
        <time>2015-06-15T12:04:39Z</time>
      </trkpt>
      <trkpt lat="43.8593" lon="3.59652">
        <ele>536.07</ele>
        <time>2015-06-15T12:04:53Z</time>
      </trkpt>
      <trkpt lat="43.85935" lon="3.59671">
        <ele>537.03</ele>
        <time>2015-06-15T12:05:07Z</time>
      </trkpt>
      <trkpt lat="43.85937" lon="3.59688">
        <ele>538.48</ele>
        <time>2015-06-15T12:05:20Z</time>
      </trkpt>
      <trkpt lat="43.85939" lon="3.59699">
        <ele>538.48</ele>
        <time>2015-06-15T12:05:26Z</time>
      </trkpt>
      <trkpt lat="43.85939" lon="3.59703">
        <ele>538.96</ele>
        <time>2015-06-15T12:05:29Z</time>
      </trkpt>
      <trkpt lat="43.85938" lon="3.59709">
        <ele>538.48</ele>
        <time>2015-06-15T12:05:33Z</time>
      </trkpt>
      <trkpt lat="43.85939" lon="3.59712">
        <ele>539.44</ele>
        <time>2015-06-15T12:05:35Z</time>
      </trkpt>
      <trkpt lat="43.85938" lon="3.5972">
        <ele>538.96</ele>
        <time>2015-06-15T12:05:40Z</time>
      </trkpt>
      <trkpt lat="43.85941" lon="3.59735">
        <ele>537.99</ele>
        <time>2015-06-15T12:05:50Z</time>
      </trkpt>
      <trkpt lat="43.85946" lon="3.5975">
        <ele>539.92</ele>
        <time>2015-06-15T12:06:05Z</time>
      </trkpt>
      <trkpt lat="43.85946" lon="3.59751">
        <ele>540.88</ele>
        <time>2015-06-15T12:06:07Z</time>
      </trkpt>
      <trkpt lat="43.85952" lon="3.59759">
        <ele>542.8</ele>
        <time>2015-06-15T12:06:20Z</time>
      </trkpt>
      <trkpt lat="43.85961" lon="3.59776">
        <ele>544.72</ele>
        <time>2015-06-15T12:06:34Z</time>
      </trkpt>
      <trkpt lat="43.85967" lon="3.59783">
        <ele>546.65</ele>
        <time>2015-06-15T12:06:41Z</time>
      </trkpt>
      <trkpt lat="43.85979" lon="3.59796">
        <ele>546.65</ele>
        <time>2015-06-15T12:06:56Z</time>
      </trkpt>
      <trkpt lat="43.85985" lon="3.59808">
        <ele>547.13</ele>
        <time>2015-06-15T12:07:08Z</time>
      </trkpt>
      <trkpt lat="43.85989" lon="3.59817">
        <ele>547.61</ele>
        <time>2015-06-15T12:07:14Z</time>
      </trkpt>
      <trkpt lat="43.85994" lon="3.5983">
        <ele>547.13</ele>
        <time>2015-06-15T12:07:23Z</time>
      </trkpt>
      <trkpt lat="43.85993" lon="3.59839">
        <ele>548.09</ele>
        <time>2015-06-15T12:07:30Z</time>
      </trkpt>
      <trkpt lat="43.85996" lon="3.59859">
        <ele>548.57</ele>
        <time>2015-06-15T12:07:42Z</time>
      </trkpt>
      <trkpt lat="43.85996" lon="3.59862">
        <ele>548.57</ele>
        <time>2015-06-15T12:07:44Z</time>
      </trkpt>
      <trkpt lat="43.85998" lon="3.59882">
        <ele>547.61</ele>
        <time>2015-06-15T12:07:56Z</time>
      </trkpt>
      <trkpt lat="43.85997" lon="3.59886">
        <ele>548.57</ele>
        <time>2015-06-15T12:07:58Z</time>
      </trkpt>
      <trkpt lat="43.85997" lon="3.59889">
        <ele>547.61</ele>
        <time>2015-06-15T12:08:00Z</time>
      </trkpt>
      <trkpt lat="43.85996" lon="3.59892">
        <ele>547.61</ele>
        <time>2015-06-15T12:08:02Z</time>
      </trkpt>
      <trkpt lat="43.85997" lon="3.59897">
        <ele>548.09</ele>
        <time>2015-06-15T12:08:06Z</time>
      </trkpt>
      <trkpt lat="43.85998" lon="3.599">
        <ele>547.61</ele>
        <time>2015-06-15T12:08:08Z</time>
      </trkpt>
      <trkpt lat="43.85992" lon="3.5991">
        <ele>550.01</ele>
        <time>2015-06-15T12:08:20Z</time>
      </trkpt>
      <trkpt lat="43.8599" lon="3.59912">
        <ele>549.53</ele>
        <time>2015-06-15T12:08:22Z</time>
      </trkpt>
      <trkpt lat="43.85989" lon="3.59921">
        <ele>551.45</ele>
        <time>2015-06-15T12:08:31Z</time>
      </trkpt>
      <trkpt lat="43.85985" lon="3.59929">
        <ele>552.9</ele>
        <time>2015-06-15T12:08:41Z</time>
      </trkpt>
      <trkpt lat="43.85977" lon="3.59945">
        <ele>553.38</ele>
        <time>2015-06-15T12:08:56Z</time>
      </trkpt>
      <trkpt lat="43.85976" lon="3.5996">
        <ele>552.9</ele>
        <time>2015-06-15T12:09:09Z</time>
      </trkpt>
      <trkpt lat="43.85976" lon="3.59973">
        <ele>553.38</ele>
        <time>2015-06-15T12:09:18Z</time>
      </trkpt>
      <trkpt lat="43.8597" lon="3.59987">
        <ele>557.22</ele>
        <time>2015-06-15T12:09:32Z</time>
      </trkpt>
      <trkpt lat="43.8597" lon="3.59995">
        <ele>558.18</ele>
        <time>2015-06-15T12:09:45Z</time>
      </trkpt>
      <trkpt lat="43.85972" lon="3.60011">
        <ele>559.62</ele>
        <time>2015-06-15T12:09:59Z</time>
      </trkpt>
      <trkpt lat="43.85979" lon="3.60026">
        <ele>560.11</ele>
        <time>2015-06-15T12:10:10Z</time>
      </trkpt>
      <trkpt lat="43.8598" lon="3.60033">
        <ele>560.11</ele>
        <time>2015-06-15T12:10:15Z</time>
      </trkpt>
      <trkpt lat="43.85986" lon="3.60046">
        <ele>560.11</ele>
        <time>2015-06-15T12:10:26Z</time>
      </trkpt>
      <trkpt lat="43.85987" lon="3.60049">
        <ele>560.59</ele>
        <time>2015-06-15T12:10:28Z</time>
      </trkpt>
      <trkpt lat="43.85991" lon="3.60058">
        <ele>559.62</ele>
        <time>2015-06-15T12:10:37Z</time>
      </trkpt>
      <trkpt lat="43.85992" lon="3.6006">
        <ele>560.11</ele>
        <time>2015-06-15T12:10:39Z</time>
      </trkpt>
      <trkpt lat="43.85994" lon="3.60063">
        <ele>561.07</ele>
        <time>2015-06-15T12:10:41Z</time>
      </trkpt>
      <trkpt lat="43.86001" lon="3.60081">
        <ele>560.11</ele>
        <time>2015-06-15T12:10:53Z</time>
      </trkpt>
      <trkpt lat="43.86002" lon="3.60086">
        <ele>559.14</ele>
        <time>2015-06-15T12:10:56Z</time>
      </trkpt>
      <trkpt lat="43.86007" lon="3.60099">
        <ele>558.66</ele>
        <time>2015-06-15T12:11:05Z</time>
      </trkpt>
      <trkpt lat="43.8601" lon="3.60103">
        <ele>558.18</ele>
        <time>2015-06-15T12:11:08Z</time>
      </trkpt>
      <trkpt lat="43.86015" lon="3.60116">
        <ele>559.14</ele>
        <time>2015-06-15T12:11:20Z</time>
      </trkpt>
      <trkpt lat="43.86018" lon="3.60119">
        <ele>558.66</ele>
        <time>2015-06-15T12:11:23Z</time>
      </trkpt>
      <trkpt lat="43.86021" lon="3.60126">
        <ele>558.18</ele>
        <time>2015-06-15T12:11:31Z</time>
      </trkpt>
      <trkpt lat="43.86022" lon="3.60129">
        <ele>559.14</ele>
        <time>2015-06-15T12:11:33Z</time>
      </trkpt>
      <trkpt lat="43.86023" lon="3.60131">
        <ele>557.7</ele>
        <time>2015-06-15T12:11:34Z</time>
      </trkpt>
      <trkpt lat="43.8603" lon="3.60151">
        <ele>557.7</ele>
        <time>2015-06-15T12:11:47Z</time>
      </trkpt>
      <trkpt lat="43.86031" lon="3.60162">
        <ele>556.26</ele>
        <time>2015-06-15T12:11:55Z</time>
      </trkpt>
      <trkpt lat="43.86032" lon="3.60165">
        <ele>556.26</ele>
        <time>2015-06-15T12:11:59Z</time>
      </trkpt>
      <trkpt lat="43.86033" lon="3.60166">
        <ele>555.78</ele>
        <time>2015-06-15T12:12:01Z</time>
      </trkpt>
      <trkpt lat="43.86036" lon="3.60168">
        <ele>554.82</ele>
        <time>2015-06-15T12:12:05Z</time>
      </trkpt>
      <trkpt lat="43.86042" lon="3.60169">
        <ele>556.26</ele>
        <time>2015-06-15T12:12:11Z</time>
      </trkpt>
      <trkpt lat="43.86049" lon="3.60173">
        <ele>558.18</ele>
        <time>2015-06-15T12:12:19Z</time>
      </trkpt>
      <trkpt lat="43.86055" lon="3.60179">
        <ele>557.22</ele>
        <time>2015-06-15T12:12:34Z</time>
      </trkpt>
      <trkpt lat="43.86055" lon="3.60179">
        <ele>556.74</ele>
        <time>2015-06-15T12:12:41Z</time>
      </trkpt>
      <trkpt lat="43.86063" lon="3.60186">
        <ele>556.26</ele>
        <time>2015-06-15T12:12:54Z</time>
      </trkpt>
      <trkpt lat="43.8607" lon="3.6019">
        <ele>554.34</ele>
        <time>2015-06-15T12:13:06Z</time>
      </trkpt>
      <trkpt lat="43.86072" lon="3.60191">
        <ele>556.26</ele>
        <time>2015-06-15T12:13:08Z</time>
      </trkpt>
      <trkpt lat="43.86077" lon="3.60196">
        <ele>553.86</ele>
        <time>2015-06-15T12:13:23Z</time>
      </trkpt>
      <trkpt lat="43.86077" lon="3.60194">
        <ele>553.38</ele>
        <time>2015-06-15T12:13:43Z</time>
      </trkpt>
      <trkpt lat="43.86077" lon="3.60196">
        <ele>553.38</ele>
        <time>2015-06-15T12:14:06Z</time>
      </trkpt>
      <trkpt lat="43.86078" lon="3.60198">
        <ele>553.38</ele>
        <time>2015-06-15T12:14:26Z</time>
      </trkpt>
      <trkpt lat="43.86078" lon="3.60199">
        <ele>557.22</ele>
        <time>2015-06-15T12:14:42Z</time>
      </trkpt>
      <trkpt lat="43.86078" lon="3.60199">
        <ele>553.38</ele>
        <time>2015-06-15T12:14:43Z</time>
      </trkpt>
      <trkpt lat="43.86077" lon="3.60199">
        <ele>550.49</ele>
        <time>2015-06-15T12:15:06Z</time>
      </trkpt>
      <trkpt lat="43.86077" lon="3.60199">
        <ele>553.86</ele>
        <time>2015-06-15T12:15:07Z</time>
      </trkpt>
      <trkpt lat="43.86077" lon="3.60192">
        <ele>552.9</ele>
        <time>2015-06-15T12:15:24Z</time>
      </trkpt>
      <trkpt lat="43.86081" lon="3.60182">
        <ele>550.97</ele>
        <time>2015-06-15T12:15:38Z</time>
      </trkpt>
      <trkpt lat="43.86083" lon="3.60168">
        <ele>548.57</ele>
        <time>2015-06-15T12:15:54Z</time>
      </trkpt>
      <trkpt lat="43.86089" lon="3.60158">
        <ele>546.65</ele>
        <time>2015-06-15T12:16:05Z</time>
      </trkpt>
      <trkpt lat="43.86095" lon="3.60148">
        <ele>545.2</ele>
        <time>2015-06-15T12:16:16Z</time>
      </trkpt>
      <trkpt lat="43.86101" lon="3.60135">
        <ele>544.72</ele>
        <time>2015-06-15T12:16:29Z</time>
      </trkpt>
      <trkpt lat="43.86108" lon="3.6013">
        <ele>544.24</ele>
        <time>2015-06-15T12:16:44Z</time>
      </trkpt>
      <trkpt lat="43.86113" lon="3.60125">
        <ele>543.76</ele>
        <time>2015-06-15T12:16:56Z</time>
      </trkpt>
      <trkpt lat="43.86113" lon="3.60126">
        <ele>543.76</ele>
        <time>2015-06-15T12:17:05Z</time>
      </trkpt>
      <trkpt lat="43.86114" lon="3.60125">
        <ele>543.28</ele>
        <time>2015-06-15T12:17:25Z</time>
      </trkpt>
      <trkpt lat="43.86114" lon="3.60125">
        <ele>542.8</ele>
        <time>2015-06-15T12:17:27Z</time>
      </trkpt>
      <trkpt lat="43.86114" lon="3.60125">
        <ele>539.92</ele>
        <time>2015-06-15T12:17:50Z</time>
      </trkpt>
      <trkpt lat="43.86114" lon="3.60125">
        <ele>545.2</ele>
        <time>2015-06-15T12:17:51Z</time>
      </trkpt>
      <trkpt lat="43.86115" lon="3.60126">
        <ele>542.32</ele>
        <time>2015-06-15T12:18:12Z</time>
      </trkpt>
      <trkpt lat="43.86116" lon="3.60125">
        <ele>542.32</ele>
        <time>2015-06-15T12:18:41Z</time>
      </trkpt>
      <trkpt lat="43.86117" lon="3.60124">
        <ele>542.32</ele>
        <time>2015-06-15T12:19:11Z</time>
      </trkpt>
      <trkpt lat="43.86116" lon="3.60124">
        <ele>542.32</ele>
        <time>2015-06-15T12:19:54Z</time>
      </trkpt>
      <trkpt lat="43.86117" lon="3.60124">
        <ele>542.8</ele>
        <time>2015-06-15T12:20:16Z</time>
      </trkpt>
      <trkpt lat="43.86117" lon="3.60124">
        <ele>542.32</ele>
        <time>2015-06-15T12:20:49Z</time>
      </trkpt>
      <trkpt lat="43.86117" lon="3.60124">
        <ele>542.32</ele>
        <time>2015-06-15T12:21:15Z</time>
      </trkpt>
      <trkpt lat="43.86117" lon="3.60124">
        <ele>542.32</ele>
        <time>2015-06-15T12:21:43Z</time>
      </trkpt>
      <trkpt lat="43.86117" lon="3.60125">
        <ele>542.32</ele>
        <time>2015-06-15T12:22:14Z</time>
      </trkpt>
      <trkpt lat="43.86116" lon="3.60125">
        <ele>542.8</ele>
        <time>2015-06-15T12:22:52Z</time>
      </trkpt>
      <trkpt lat="43.86116" lon="3.60125">
        <ele>543.28</ele>
        <time>2015-06-15T12:23:22Z</time>
      </trkpt>
      <trkpt lat="43.86116" lon="3.60125">
        <ele>543.28</ele>
        <time>2015-06-15T12:23:53Z</time>
      </trkpt>
      <trkpt lat="43.86116" lon="3.60125">
        <ele>543.28</ele>
        <time>2015-06-15T12:24:24Z</time>
      </trkpt>
      <trkpt lat="43.86116" lon="3.60125">
        <ele>542.8</ele>
        <time>2015-06-15T12:25:00Z</time>
      </trkpt>
      <trkpt lat="43.86116" lon="3.60125">
        <ele>542.8</ele>
        <time>2015-06-15T12:25:36Z</time>
      </trkpt>
      <trkpt lat="43.86115" lon="3.60125">
        <ele>542.8</ele>
        <time>2015-06-15T12:26:14Z</time>
      </trkpt>
      <trkpt lat="43.86116" lon="3.60124">
        <ele>543.28</ele>
        <time>2015-06-15T12:26:53Z</time>
      </trkpt>
      <trkpt lat="43.86116" lon="3.60123">
        <ele>543.28</ele>
        <time>2015-06-15T12:27:26Z</time>
      </trkpt>
      <trkpt lat="43.86116" lon="3.60124">
        <ele>543.28</ele>
        <time>2015-06-15T12:27:58Z</time>
      </trkpt>
      <trkpt lat="43.86116" lon="3.60126">
        <ele>543.76</ele>
        <time>2015-06-15T12:28:31Z</time>
      </trkpt>
      <trkpt lat="43.86116" lon="3.60125">
        <ele>543.76</ele>
        <time>2015-06-15T12:29:07Z</time>
      </trkpt>
      <trkpt lat="43.86117" lon="3.60126">
        <ele>544.24</ele>
        <time>2015-06-15T12:29:48Z</time>
      </trkpt>
      <trkpt lat="43.86117" lon="3.60126">
        <ele>544.24</ele>
        <time>2015-06-15T12:30:21Z</time>
      </trkpt>
      <trkpt lat="43.86117" lon="3.60125">
        <ele>543.76</ele>
        <time>2015-06-15T12:30:52Z</time>
      </trkpt>
      <trkpt lat="43.86117" lon="3.60125">
        <ele>543.76</ele>
        <time>2015-06-15T12:31:27Z</time>
      </trkpt>
      <trkpt lat="43.86117" lon="3.60125">
        <ele>543.76</ele>
        <time>2015-06-15T12:31:55Z</time>
      </trkpt>
      <trkpt lat="43.86116" lon="3.60125">
        <ele>544.24</ele>
        <time>2015-06-15T12:32:33Z</time>
      </trkpt>
      <trkpt lat="43.86116" lon="3.60125">
        <ele>544.24</ele>
        <time>2015-06-15T12:33:08Z</time>
      </trkpt>
      <trkpt lat="43.86116" lon="3.60125">
        <ele>543.76</ele>
        <time>2015-06-15T12:33:46Z</time>
      </trkpt>
      <trkpt lat="43.86115" lon="3.60124">
        <ele>543.76</ele>
        <time>2015-06-15T12:34:18Z</time>
      </trkpt>
      <trkpt lat="43.86115" lon="3.60124">
        <ele>544.24</ele>
        <time>2015-06-15T12:34:53Z</time>
      </trkpt>
      <trkpt lat="43.86115" lon="3.60124">
        <ele>543.28</ele>
        <time>2015-06-15T12:35:26Z</time>
      </trkpt>
      <trkpt lat="43.86116" lon="3.60123">
        <ele>544.24</ele>
        <time>2015-06-15T12:36:00Z</time>
      </trkpt>
      <trkpt lat="43.86116" lon="3.60123">
        <ele>543.76</ele>
        <time>2015-06-15T12:36:34Z</time>
      </trkpt>
      <trkpt lat="43.86116" lon="3.60123">
        <ele>543.76</ele>
        <time>2015-06-15T12:37:06Z</time>
      </trkpt>
      <trkpt lat="43.86117" lon="3.60122">
        <ele>544.24</ele>
        <time>2015-06-15T12:37:34Z</time>
      </trkpt>
      <trkpt lat="43.86117" lon="3.60124">
        <ele>544.24</ele>
        <time>2015-06-15T12:38:09Z</time>
      </trkpt>
      <trkpt lat="43.86118" lon="3.60123">
        <ele>544.24</ele>
        <time>2015-06-15T12:38:42Z</time>
      </trkpt>
      <trkpt lat="43.86117" lon="3.60122">
        <ele>544.24</ele>
        <time>2015-06-15T12:39:17Z</time>
      </trkpt>
      <trkpt lat="43.86118" lon="3.60123">
        <ele>544.24</ele>
        <time>2015-06-15T12:39:52Z</time>
      </trkpt>
      <trkpt lat="43.86118" lon="3.60123">
        <ele>544.24</ele>
        <time>2015-06-15T12:40:24Z</time>
      </trkpt>
      <trkpt lat="43.86118" lon="3.60123">
        <ele>543.76</ele>
        <time>2015-06-15T12:40:58Z</time>
      </trkpt>
      <trkpt lat="43.86119" lon="3.60123">
        <ele>544.72</ele>
        <time>2015-06-15T12:41:29Z</time>
      </trkpt>
      <trkpt lat="43.86119" lon="3.60123">
        <ele>544.72</ele>
        <time>2015-06-15T12:42:03Z</time>
      </trkpt>
      <trkpt lat="43.86119" lon="3.60123">
        <ele>545.2</ele>
        <time>2015-06-15T12:42:36Z</time>
      </trkpt>
      <trkpt lat="43.86118" lon="3.60124">
        <ele>544.72</ele>
        <time>2015-06-15T12:43:10Z</time>
      </trkpt>
      <trkpt lat="43.86118" lon="3.60124">
        <ele>544.24</ele>
        <time>2015-06-15T12:43:44Z</time>
      </trkpt>
      <trkpt lat="43.86118" lon="3.60125">
        <ele>544.72</ele>
        <time>2015-06-15T12:44:14Z</time>
      </trkpt>
      <trkpt lat="43.86117" lon="3.60125">
        <ele>544.24</ele>
        <time>2015-06-15T12:44:43Z</time>
      </trkpt>
      <trkpt lat="43.86117" lon="3.60125">
        <ele>544.72</ele>
        <time>2015-06-15T12:45:12Z</time>
      </trkpt>
      <trkpt lat="43.86117" lon="3.60123">
        <ele>545.69</ele>
        <time>2015-06-15T12:45:44Z</time>
      </trkpt>
      <trkpt lat="43.86117" lon="3.60122">
        <ele>544.72</ele>
        <time>2015-06-15T12:46:15Z</time>
      </trkpt>
      <trkpt lat="43.86118" lon="3.60123">
        <ele>544.72</ele>
        <time>2015-06-15T12:46:43Z</time>
      </trkpt>
      <trkpt lat="43.86119" lon="3.60123">
        <ele>544.24</ele>
        <time>2015-06-15T12:47:14Z</time>
      </trkpt>
      <trkpt lat="43.86119" lon="3.60123">
        <ele>544.24</ele>
        <time>2015-06-15T12:47:42Z</time>
      </trkpt>
      <trkpt lat="43.86119" lon="3.60123">
        <ele>544.24</ele>
        <time>2015-06-15T12:48:15Z</time>
      </trkpt>
      <trkpt lat="43.86119" lon="3.60125">
        <ele>544.24</ele>
        <time>2015-06-15T12:48:45Z</time>
      </trkpt>
      <trkpt lat="43.86119" lon="3.60124">
        <ele>544.24</ele>
        <time>2015-06-15T12:49:21Z</time>
      </trkpt>
      <trkpt lat="43.86119" lon="3.60124">
        <ele>544.72</ele>
        <time>2015-06-15T12:49:54Z</time>
      </trkpt>
      <trkpt lat="43.86119" lon="3.60125">
        <ele>544.72</ele>
        <time>2015-06-15T12:50:09Z</time>
      </trkpt>
      <trkpt lat="43.86119" lon="3.60125">
        <ele>545.2</ele>
        <time>2015-06-15T12:50:31Z</time>
      </trkpt>
      <trkpt lat="43.86119" lon="3.60126">
        <ele>543.76</ele>
        <time>2015-06-15T12:51:01Z</time>
      </trkpt>
      <trkpt lat="43.86119" lon="3.60125">
        <ele>544.72</ele>
        <time>2015-06-15T12:51:34Z</time>
      </trkpt>
      <trkpt lat="43.86119" lon="3.60124">
        <ele>545.2</ele>
        <time>2015-06-15T12:52:04Z</time>
      </trkpt>
      <trkpt lat="43.86119" lon="3.60124">
        <ele>545.69</ele>
        <time>2015-06-15T12:52:21Z</time>
      </trkpt>
      <trkpt lat="43.86119" lon="3.60124">
        <ele>545.69</ele>
        <time>2015-06-15T12:52:40Z</time>
      </trkpt>
      <trkpt lat="43.86118" lon="3.60125">
        <ele>545.69</ele>
        <time>2015-06-15T12:52:54Z</time>
      </trkpt>
      <trkpt lat="43.86118" lon="3.60126">
        <ele>545.2</ele>
        <time>2015-06-15T12:53:13Z</time>
      </trkpt>
      <trkpt lat="43.86118" lon="3.60125">
        <ele>545.2</ele>
        <time>2015-06-15T12:53:36Z</time>
      </trkpt>
      <trkpt lat="43.86118" lon="3.6013">
        <ele>545.2</ele>
        <time>2015-06-15T12:53:52Z</time>
      </trkpt>
      <trkpt lat="43.86107" lon="3.60127">
        <ele>545.2</ele>
        <time>2015-06-15T12:54:05Z</time>
      </trkpt>
      <trkpt lat="43.861" lon="3.60116">
        <ele>543.76</ele>
        <time>2015-06-15T12:54:18Z</time>
      </trkpt>
      <trkpt lat="43.86093" lon="3.60102">
        <ele>542.32</ele>
        <time>2015-06-15T12:54:32Z</time>
      </trkpt>
      <trkpt lat="43.86095" lon="3.60097">
        <ele>541.84</ele>
        <time>2015-06-15T12:54:45Z</time>
      </trkpt>
      <trkpt lat="43.86096" lon="3.60096">
        <ele>541.84</ele>
        <time>2015-06-15T12:55:04Z</time>
      </trkpt>
      <trkpt lat="43.86095" lon="3.60096">
        <ele>542.32</ele>
        <time>2015-06-15T12:55:27Z</time>
      </trkpt>
      <trkpt lat="43.86095" lon="3.60096">
        <ele>542.32</ele>
        <time>2015-06-15T12:55:28Z</time>
      </trkpt>
      <trkpt lat="43.86096" lon="3.60101">
        <ele>543.28</ele>
        <time>2015-06-15T12:55:39Z</time>
      </trkpt>
      <trkpt lat="43.86096" lon="3.60093">
        <ele>541.84</ele>
        <time>2015-06-15T12:55:52Z</time>
      </trkpt>
      <trkpt lat="43.86096" lon="3.60091">
        <ele>541.84</ele>
        <time>2015-06-15T12:56:07Z</time>
      </trkpt>
      <trkpt lat="43.86097" lon="3.6009">
        <ele>541.84</ele>
        <time>2015-06-15T12:56:34Z</time>
      </trkpt>
      <trkpt lat="43.86096" lon="3.60088">
        <ele>541.36</ele>
        <time>2015-06-15T12:57:02Z</time>
      </trkpt>
      <trkpt lat="43.86096" lon="3.60081">
        <ele>540.4</ele>
        <time>2015-06-15T12:57:13Z</time>
      </trkpt>
      <trkpt lat="43.86095" lon="3.60076">
        <ele>539.92</ele>
        <time>2015-06-15T12:57:17Z</time>
      </trkpt>
      <trkpt lat="43.86099" lon="3.60063">
        <ele>537.99</ele>
        <time>2015-06-15T12:57:26Z</time>
      </trkpt>
      <trkpt lat="43.86101" lon="3.60054">
        <ele>537.03</ele>
        <time>2015-06-15T12:57:32Z</time>
      </trkpt>
      <trkpt lat="43.86102" lon="3.60047">
        <ele>536.07</ele>
        <time>2015-06-15T12:57:36Z</time>
      </trkpt>
      <trkpt lat="43.86102" lon="3.60038">
        <ele>535.59</ele>
        <time>2015-06-15T12:57:43Z</time>
      </trkpt>
      <trkpt lat="43.86103" lon="3.60021">
        <ele>535.59</ele>
        <time>2015-06-15T12:57:55Z</time>
      </trkpt>
      <trkpt lat="43.8611" lon="3.60015">
        <ele>534.63</ele>
        <time>2015-06-15T12:58:02Z</time>
      </trkpt>
      <trkpt lat="43.86112" lon="3.60007">
        <ele>533.67</ele>
        <time>2015-06-15T12:58:06Z</time>
      </trkpt>
      <trkpt lat="43.86117" lon="3.59988">
        <ele>530.79</ele>
        <time>2015-06-15T12:58:20Z</time>
      </trkpt>
      <trkpt lat="43.86125" lon="3.59976">
        <ele>528.86</ele>
        <time>2015-06-15T12:58:33Z</time>
      </trkpt>
      <trkpt lat="43.86132" lon="3.59959">
        <ele>527.42</ele>
        <time>2015-06-15T12:58:44Z</time>
      </trkpt>
      <trkpt lat="43.86141" lon="3.59943">
        <ele>525.5</ele>
        <time>2015-06-15T12:58:59Z</time>
      </trkpt>
      <trkpt lat="43.86145" lon="3.59928">
        <ele>522.61</ele>
        <time>2015-06-15T12:59:13Z</time>
      </trkpt>
      <trkpt lat="43.86151" lon="3.59913">
        <ele>521.65</ele>
        <time>2015-06-15T12:59:26Z</time>
      </trkpt>
      <trkpt lat="43.86163" lon="3.59897">
        <ele>520.21</ele>
        <time>2015-06-15T12:59:39Z</time>
      </trkpt>
      <trkpt lat="43.86173" lon="3.59882">
        <ele>518.77</ele>
        <time>2015-06-15T12:59:54Z</time>
      </trkpt>
      <trkpt lat="43.86177" lon="3.59873">
        <ele>518.29</ele>
        <time>2015-06-15T13:00:01Z</time>
      </trkpt>
      <trkpt lat="43.86184" lon="3.59857">
        <ele>515.88</ele>
        <time>2015-06-15T13:00:13Z</time>
      </trkpt>
      <trkpt lat="43.86192" lon="3.59842">
        <ele>513.48</ele>
        <time>2015-06-15T13:00:28Z</time>
      </trkpt>
      <trkpt lat="43.86207" lon="3.59837">
        <ele>512.04</ele>
        <time>2015-06-15T13:00:43Z</time>
      </trkpt>
      <trkpt lat="43.86219" lon="3.59846">
        <ele>511.08</ele>
        <time>2015-06-15T13:00:56Z</time>
      </trkpt>
      <trkpt lat="43.86229" lon="3.59839">
        <ele>510.12</ele>
        <time>2015-06-15T13:01:05Z</time>
      </trkpt>
      <trkpt lat="43.86233" lon="3.59836">
        <ele>510.12</ele>
        <time>2015-06-15T13:01:07Z</time>
      </trkpt>
      <trkpt lat="43.86239" lon="3.59831">
        <ele>509.16</ele>
        <time>2015-06-15T13:01:12Z</time>
      </trkpt>
      <trkpt lat="43.86249" lon="3.59824">
        <ele>507.71</ele>
        <time>2015-06-15T13:01:23Z</time>
      </trkpt>
      <trkpt lat="43.86262" lon="3.59812">
        <ele>506.27</ele>
        <time>2015-06-15T13:01:38Z</time>
      </trkpt>
      <trkpt lat="43.86266" lon="3.59806">
        <ele>504.83</ele>
        <time>2015-06-15T13:01:44Z</time>
      </trkpt>
      <trkpt lat="43.86277" lon="3.59793">
        <ele>501.95</ele>
        <time>2015-06-15T13:01:56Z</time>
      </trkpt>
      <trkpt lat="43.86281" lon="3.59793">
        <ele>502.43</ele>
        <time>2015-06-15T13:02:13Z</time>
      </trkpt>
      <trkpt lat="43.86281" lon="3.59795">
        <ele>500.02</ele>
        <time>2015-06-15T13:02:34Z</time>
      </trkpt>
      <trkpt lat="43.86284" lon="3.59797">
        <ele>499.54</ele>
        <time>2015-06-15T13:02:48Z</time>
      </trkpt>
      <trkpt lat="43.86288" lon="3.59799">
        <ele>499.06</ele>
        <time>2015-06-15T13:03:05Z</time>
      </trkpt>
      <trkpt lat="43.8629" lon="3.59796">
        <ele>497.62</ele>
        <time>2015-06-15T13:03:12Z</time>
      </trkpt>
      <trkpt lat="43.86289" lon="3.59796">
        <ele>497.14</ele>
        <time>2015-06-15T13:03:13Z</time>
      </trkpt>
      <trkpt lat="43.86285" lon="3.59795">
        <ele>497.14</ele>
        <time>2015-06-15T13:03:18Z</time>
      </trkpt>
      <trkpt lat="43.86288" lon="3.5979">
        <ele>494.26</ele>
        <time>2015-06-15T13:03:27Z</time>
      </trkpt>
      <trkpt lat="43.86295" lon="3.59789">
        <ele>492.81</ele>
        <time>2015-06-15T13:03:36Z</time>
      </trkpt>
      <trkpt lat="43.86298" lon="3.59789">
        <ele>493.77</ele>
        <time>2015-06-15T13:03:38Z</time>
      </trkpt>
      <trkpt lat="43.8631" lon="3.59794">
        <ele>494.74</ele>
        <time>2015-06-15T13:03:50Z</time>
      </trkpt>
      <trkpt lat="43.8631" lon="3.59808">
        <ele>492.33</ele>
        <time>2015-06-15T13:04:02Z</time>
      </trkpt>
      <trkpt lat="43.8631" lon="3.59823">
        <ele>491.85</ele>
        <time>2015-06-15T13:04:10Z</time>
      </trkpt>
      <trkpt lat="43.86311" lon="3.59827">
        <ele>491.37</ele>
        <time>2015-06-15T13:04:13Z</time>
      </trkpt>
      <trkpt lat="43.86313" lon="3.59834">
        <ele>489.93</ele>
        <time>2015-06-15T13:04:17Z</time>
      </trkpt>
      <trkpt lat="43.86314" lon="3.59839">
        <ele>489.45</ele>
        <time>2015-06-15T13:04:20Z</time>
      </trkpt>
      <trkpt lat="43.86321" lon="3.59852">
        <ele>486.56</ele>
        <time>2015-06-15T13:04:30Z</time>
      </trkpt>
      <trkpt lat="43.86323" lon="3.59857">
        <ele>486.08</ele>
        <time>2015-06-15T13:04:34Z</time>
      </trkpt>
      <trkpt lat="43.86325" lon="3.59859">
        <ele>487.05</ele>
        <time>2015-06-15T13:04:49Z</time>
      </trkpt>
      <trkpt lat="43.86325" lon="3.59859">
        <ele>488.49</ele>
        <time>2015-06-15T13:04:51Z</time>
      </trkpt>
      <trkpt lat="43.86325" lon="3.5986">
        <ele>488.49</ele>
        <time>2015-06-15T13:05:01Z</time>
      </trkpt>
      <trkpt lat="43.86331" lon="3.5987">
        <ele>487.05</ele>
        <time>2015-06-15T13:05:13Z</time>
      </trkpt>
      <trkpt lat="43.86333" lon="3.59869">
        <ele>484.16</ele>
        <time>2015-06-15T13:05:26Z</time>
      </trkpt>
      <trkpt lat="43.86331" lon="3.59853">
        <ele>482.72</ele>
        <time>2015-06-15T13:05:39Z</time>
      </trkpt>
      <trkpt lat="43.86329" lon="3.59833">
        <ele>479.84</ele>
        <time>2015-06-15T13:05:54Z</time>
      </trkpt>
      <trkpt lat="43.86329" lon="3.5983">
        <ele>479.35</ele>
        <time>2015-06-15T13:05:56Z</time>
      </trkpt>
      <trkpt lat="43.8633" lon="3.59826">
        <ele>479.35</ele>
        <time>2015-06-15T13:05:59Z</time>
      </trkpt>
      <trkpt lat="43.86331" lon="3.59807">
        <ele>477.91</ele>
        <time>2015-06-15T13:06:12Z</time>
      </trkpt>
      <trkpt lat="43.86332" lon="3.598">
        <ele>477.91</ele>
        <time>2015-06-15T13:06:16Z</time>
      </trkpt>
      <trkpt lat="43.86338" lon="3.59782">
        <ele>474.55</ele>
        <time>2015-06-15T13:06:29Z</time>
      </trkpt>
      <trkpt lat="43.86337" lon="3.59779">
        <ele>473.11</ele>
        <time>2015-06-15T13:06:39Z</time>
      </trkpt>
      <trkpt lat="43.86339" lon="3.59767">
        <ele>470.22</ele>
        <time>2015-06-15T13:06:56Z</time>
      </trkpt>
      <trkpt lat="43.8634" lon="3.59762">
        <ele>469.74</ele>
        <time>2015-06-15T13:07:07Z</time>
      </trkpt>
      <trkpt lat="43.86342" lon="3.59756">
        <ele>468.78</ele>
        <time>2015-06-15T13:07:11Z</time>
      </trkpt>
      <trkpt lat="43.86339" lon="3.59742">
        <ele>468.3</ele>
        <time>2015-06-15T13:07:21Z</time>
      </trkpt>
      <trkpt lat="43.86326" lon="3.59739">
        <ele>466.86</ele>
        <time>2015-06-15T13:07:35Z</time>
      </trkpt>
      <trkpt lat="43.86311" lon="3.59745">
        <ele>464.45</ele>
        <time>2015-06-15T13:07:48Z</time>
      </trkpt>
      <trkpt lat="43.86311" lon="3.59745">
        <ele>463.97</ele>
        <time>2015-06-15T13:07:49Z</time>
      </trkpt>
      <trkpt lat="43.8631" lon="3.59745">
        <ele>463.97</ele>
        <time>2015-06-15T13:07:50Z</time>
      </trkpt>
      <trkpt lat="43.86303" lon="3.59746">
        <ele>463.01</ele>
        <time>2015-06-15T13:07:55Z</time>
      </trkpt>
      <trkpt lat="43.86291" lon="3.59746">
        <ele>460.61</ele>
        <time>2015-06-15T13:08:07Z</time>
      </trkpt>
      <trkpt lat="43.86285" lon="3.59747">
        <ele>460.61</ele>
        <time>2015-06-15T13:08:12Z</time>
      </trkpt>
      <trkpt lat="43.86283" lon="3.59749">
        <ele>460.13</ele>
        <time>2015-06-15T13:08:13Z</time>
      </trkpt>
      <trkpt lat="43.86276" lon="3.59754">
        <ele>459.17</ele>
        <time>2015-06-15T13:08:20Z</time>
      </trkpt>
      <trkpt lat="43.86274" lon="3.59755">
        <ele>459.17</ele>
        <time>2015-06-15T13:08:22Z</time>
      </trkpt>
      <trkpt lat="43.86271" lon="3.59756">
        <ele>458.69</ele>
        <time>2015-06-15T13:08:27Z</time>
      </trkpt>
      <trkpt lat="43.86265" lon="3.5975">
        <ele>458.69</ele>
        <time>2015-06-15T13:08:32Z</time>
      </trkpt>
      <trkpt lat="43.86263" lon="3.59745">
        <ele>458.21</ele>
        <time>2015-06-15T13:08:35Z</time>
      </trkpt>
      <trkpt lat="43.8626" lon="3.59742">
        <ele>458.21</ele>
        <time>2015-06-15T13:08:38Z</time>
      </trkpt>
      <trkpt lat="43.86259" lon="3.5974">
        <ele>458.21</ele>
        <time>2015-06-15T13:08:40Z</time>
      </trkpt>
      <trkpt lat="43.86257" lon="3.59732">
        <ele>457.24</ele>
        <time>2015-06-15T13:08:46Z</time>
      </trkpt>
      <trkpt lat="43.86257" lon="3.5973">
        <ele>456.76</ele>
        <time>2015-06-15T13:08:47Z</time>
      </trkpt>
      <trkpt lat="43.86255" lon="3.5972">
        <ele>456.28</ele>
        <time>2015-06-15T13:08:52Z</time>
      </trkpt>
      <trkpt lat="43.86259" lon="3.59705">
        <ele>454.84</ele>
        <time>2015-06-15T13:09:03Z</time>
      </trkpt>
      <trkpt lat="43.86259" lon="3.59688">
        <ele>454.36</ele>
        <time>2015-06-15T13:09:16Z</time>
      </trkpt>
      <trkpt lat="43.86259" lon="3.59671">
        <ele>453.88</ele>
        <time>2015-06-15T13:09:28Z</time>
      </trkpt>
      <trkpt lat="43.86255" lon="3.59659">
        <ele>452.92</ele>
        <time>2015-06-15T13:09:40Z</time>
      </trkpt>
      <trkpt lat="43.8626" lon="3.59641">
        <ele>451.48</ele>
        <time>2015-06-15T13:09:54Z</time>
      </trkpt>
      <trkpt lat="43.86259" lon="3.59626">
        <ele>451.48</ele>
        <time>2015-06-15T13:10:06Z</time>
      </trkpt>
      <trkpt lat="43.86259" lon="3.59608">
        <ele>451</ele>
        <time>2015-06-15T13:10:20Z</time>
      </trkpt>
      <trkpt lat="43.86258" lon="3.59607">
        <ele>450.52</ele>
        <time>2015-06-15T13:10:21Z</time>
      </trkpt>
      <trkpt lat="43.86257" lon="3.59601">
        <ele>450.03</ele>
        <time>2015-06-15T13:10:24Z</time>
      </trkpt>
      <trkpt lat="43.86249" lon="3.59579">
        <ele>447.63</ele>
        <time>2015-06-15T13:10:40Z</time>
      </trkpt>
      <trkpt lat="43.86249" lon="3.59576">
        <ele>447.15</ele>
        <time>2015-06-15T13:10:42Z</time>
      </trkpt>
      <trkpt lat="43.86247" lon="3.59566">
        <ele>446.19</ele>
        <time>2015-06-15T13:10:48Z</time>
      </trkpt>
      <trkpt lat="43.86245" lon="3.59553">
        <ele>444.75</ele>
        <time>2015-06-15T13:10:56Z</time>
      </trkpt>
      <trkpt lat="43.86239" lon="3.5954">
        <ele>443.79</ele>
        <time>2015-06-15T13:11:07Z</time>
      </trkpt>
      <trkpt lat="43.86237" lon="3.59537">
        <ele>443.79</ele>
        <time>2015-06-15T13:11:09Z</time>
      </trkpt>
      <trkpt lat="43.86218" lon="3.59525">
        <ele>442.34</ele>
        <time>2015-06-15T13:11:26Z</time>
      </trkpt>
      <trkpt lat="43.86212" lon="3.59521">
        <ele>441.38</ele>
        <time>2015-06-15T13:11:36Z</time>
      </trkpt>
      <trkpt lat="43.86204" lon="3.5952">
        <ele>440.42</ele>
        <time>2015-06-15T13:11:49Z</time>
      </trkpt>
      <trkpt lat="43.86202" lon="3.59517">
        <ele>439.94</ele>
        <time>2015-06-15T13:11:58Z</time>
      </trkpt>
      <trkpt lat="43.86201" lon="3.59514">
        <ele>439.94</ele>
        <time>2015-06-15T13:12:00Z</time>
      </trkpt>
      <trkpt lat="43.86201" lon="3.59509">
        <ele>439.46</ele>
        <time>2015-06-15T13:12:03Z</time>
      </trkpt>
      <trkpt lat="43.86202" lon="3.595">
        <ele>438.98</ele>
        <time>2015-06-15T13:12:08Z</time>
      </trkpt>
      <trkpt lat="43.86204" lon="3.59494">
        <ele>438.02</ele>
        <time>2015-06-15T13:12:12Z</time>
      </trkpt>
      <trkpt lat="43.86205" lon="3.5949">
        <ele>438.02</ele>
        <time>2015-06-15T13:12:15Z</time>
      </trkpt>
      <trkpt lat="43.86208" lon="3.59483">
        <ele>438.5</ele>
        <time>2015-06-15T13:12:22Z</time>
      </trkpt>
      <trkpt lat="43.86209" lon="3.59478">
        <ele>438.02</ele>
        <time>2015-06-15T13:12:37Z</time>
      </trkpt>
      <trkpt lat="43.86214" lon="3.59471">
        <ele>437.54</ele>
        <time>2015-06-15T13:12:50Z</time>
      </trkpt>
      <trkpt lat="43.86216" lon="3.59465">
        <ele>437.54</ele>
        <time>2015-06-15T13:12:56Z</time>
      </trkpt>
      <trkpt lat="43.86227" lon="3.59448">
        <ele>436.58</ele>
        <time>2015-06-15T13:13:10Z</time>
      </trkpt>
      <trkpt lat="43.86234" lon="3.5944">
        <ele>435.61</ele>
        <time>2015-06-15T13:13:18Z</time>
      </trkpt>
      <trkpt lat="43.86247" lon="3.5943">
        <ele>434.17</ele>
        <time>2015-06-15T13:13:32Z</time>
      </trkpt>
      <trkpt lat="43.86248" lon="3.59429">
        <ele>434.17</ele>
        <time>2015-06-15T13:13:34Z</time>
      </trkpt>
      <trkpt lat="43.8625" lon="3.59427">
        <ele>433.69</ele>
        <time>2015-06-15T13:13:37Z</time>
      </trkpt>
      <trkpt lat="43.86255" lon="3.59423">
        <ele>433.21</ele>
        <time>2015-06-15T13:13:49Z</time>
      </trkpt>
      <trkpt lat="43.86269" lon="3.59411">
        <ele>431.77</ele>
        <time>2015-06-15T13:14:03Z</time>
      </trkpt>
      <trkpt lat="43.8627" lon="3.59409">
        <ele>431.77</ele>
        <time>2015-06-15T13:14:04Z</time>
      </trkpt>
      <trkpt lat="43.86277" lon="3.59403">
        <ele>431.29</ele>
        <time>2015-06-15T13:14:12Z</time>
      </trkpt>
      <trkpt lat="43.86284" lon="3.59402">
        <ele>430.33</ele>
        <time>2015-06-15T13:14:19Z</time>
      </trkpt>
      <trkpt lat="43.86286" lon="3.59401">
        <ele>430.33</ele>
        <time>2015-06-15T13:14:36Z</time>
      </trkpt>
      <trkpt lat="43.8629" lon="3.59395">
        <ele>429.85</ele>
        <time>2015-06-15T13:14:48Z</time>
      </trkpt>
      <trkpt lat="43.86292" lon="3.5939">
        <ele>428.89</ele>
        <time>2015-06-15T13:14:52Z</time>
      </trkpt>
      <trkpt lat="43.86292" lon="3.59384">
        <ele>427.44</ele>
        <time>2015-06-15T13:14:56Z</time>
      </trkpt>
      <trkpt lat="43.86295" lon="3.59377">
        <ele>427.44</ele>
        <time>2015-06-15T13:15:01Z</time>
      </trkpt>
      <trkpt lat="43.86299" lon="3.59361">
        <ele>426</ele>
        <time>2015-06-15T13:15:11Z</time>
      </trkpt>
      <trkpt lat="43.86302" lon="3.59351">
        <ele>425.52</ele>
        <time>2015-06-15T13:15:18Z</time>
      </trkpt>
      <trkpt lat="43.86304" lon="3.59349">
        <ele>425.52</ele>
        <time>2015-06-15T13:15:20Z</time>
      </trkpt>
      <trkpt lat="43.86306" lon="3.59344">
        <ele>425.52</ele>
        <time>2015-06-15T13:15:23Z</time>
      </trkpt>
      <trkpt lat="43.86308" lon="3.59338">
        <ele>425.04</ele>
        <time>2015-06-15T13:15:27Z</time>
      </trkpt>
      <trkpt lat="43.86311" lon="3.59323">
        <ele>424.08</ele>
        <time>2015-06-15T13:15:36Z</time>
      </trkpt>
      <trkpt lat="43.86315" lon="3.59311">
        <ele>424.08</ele>
        <time>2015-06-15T13:15:45Z</time>
      </trkpt>
      <trkpt lat="43.86317" lon="3.59306">
        <ele>424.08</ele>
        <time>2015-06-15T13:15:49Z</time>
      </trkpt>
      <trkpt lat="43.8632" lon="3.59296">
        <ele>423.12</ele>
        <time>2015-06-15T13:15:55Z</time>
      </trkpt>
      <trkpt lat="43.8633" lon="3.59279">
        <ele>422.64</ele>
        <time>2015-06-15T13:16:09Z</time>
      </trkpt>
      <trkpt lat="43.86334" lon="3.59276">
        <ele>421.68</ele>
        <time>2015-06-15T13:16:13Z</time>
      </trkpt>
      <trkpt lat="43.86342" lon="3.5927">
        <ele>421.68</ele>
        <time>2015-06-15T13:16:20Z</time>
      </trkpt>
      <trkpt lat="43.86345" lon="3.59266">
        <ele>421.19</ele>
        <time>2015-06-15T13:16:23Z</time>
      </trkpt>
      <trkpt lat="43.8635" lon="3.59262">
        <ele>421.19</ele>
        <time>2015-06-15T13:16:28Z</time>
      </trkpt>
      <trkpt lat="43.86357" lon="3.59245">
        <ele>419.27</ele>
        <time>2015-06-15T13:16:40Z</time>
      </trkpt>
      <trkpt lat="43.86357" lon="3.59244">
        <ele>418.79</ele>
        <time>2015-06-15T13:16:41Z</time>
      </trkpt>
      <trkpt lat="43.86354" lon="3.59235">
        <ele>417.83</ele>
        <time>2015-06-15T13:16:46Z</time>
      </trkpt>
      <trkpt lat="43.86353" lon="3.59232">
        <ele>416.87</ele>
        <time>2015-06-15T13:16:48Z</time>
      </trkpt>
      <trkpt lat="43.86351" lon="3.59227">
        <ele>415.43</ele>
        <time>2015-06-15T13:16:52Z</time>
      </trkpt>
      <trkpt lat="43.86349" lon="3.59217">
        <ele>415.43</ele>
        <time>2015-06-15T13:16:58Z</time>
      </trkpt>
      <trkpt lat="43.86342" lon="3.59193">
        <ele>415.91</ele>
        <time>2015-06-15T13:17:15Z</time>
      </trkpt>
      <trkpt lat="43.8634" lon="3.59187">
        <ele>415.43</ele>
        <time>2015-06-15T13:17:18Z</time>
      </trkpt>
      <trkpt lat="43.86337" lon="3.59169">
        <ele>413.98</ele>
        <time>2015-06-15T13:17:29Z</time>
      </trkpt>
      <trkpt lat="43.86339" lon="3.59155">
        <ele>412.54</ele>
        <time>2015-06-15T13:17:38Z</time>
      </trkpt>
      <trkpt lat="43.86339" lon="3.59149">
        <ele>412.06</ele>
        <time>2015-06-15T13:17:42Z</time>
      </trkpt>
      <trkpt lat="43.86351" lon="3.59138">
        <ele>411.58</ele>
        <time>2015-06-15T13:17:55Z</time>
      </trkpt>
      <trkpt lat="43.86355" lon="3.59131">
        <ele>410.14</ele>
        <time>2015-06-15T13:18:01Z</time>
      </trkpt>
      <trkpt lat="43.86361" lon="3.59112">
        <ele>408.7</ele>
        <time>2015-06-15T13:18:14Z</time>
      </trkpt>
      <trkpt lat="43.86362" lon="3.59106">
        <ele>408.22</ele>
        <time>2015-06-15T13:18:18Z</time>
      </trkpt>
      <trkpt lat="43.86354" lon="3.59084">
        <ele>406.29</ele>
        <time>2015-06-15T13:18:33Z</time>
      </trkpt>
      <trkpt lat="43.86354" lon="3.59083">
        <ele>406.29</ele>
        <time>2015-06-15T13:18:34Z</time>
      </trkpt>
      <trkpt lat="43.86349" lon="3.59079">
        <ele>405.81</ele>
        <time>2015-06-15T13:18:39Z</time>
      </trkpt>
      <trkpt lat="43.86337" lon="3.59066">
        <ele>404.37</ele>
        <time>2015-06-15T13:18:52Z</time>
      </trkpt>
      <trkpt lat="43.86336" lon="3.59065">
        <ele>403.89</ele>
        <time>2015-06-15T13:18:53Z</time>
      </trkpt>
      <trkpt lat="43.86334" lon="3.59061">
        <ele>402.93</ele>
        <time>2015-06-15T13:18:56Z</time>
      </trkpt>
      <trkpt lat="43.86323" lon="3.59051">
        <ele>401.97</ele>
        <time>2015-06-15T13:19:10Z</time>
      </trkpt>
      <trkpt lat="43.86321" lon="3.59052">
        <ele>401.49</ele>
        <time>2015-06-15T13:19:12Z</time>
      </trkpt>
      <trkpt lat="43.86315" lon="3.59052">
        <ele>401.01</ele>
        <time>2015-06-15T13:19:17Z</time>
      </trkpt>
      <trkpt lat="43.86306" lon="3.59056">
        <ele>400.05</ele>
        <time>2015-06-15T13:19:27Z</time>
      </trkpt>
      <trkpt lat="43.863" lon="3.59051">
        <ele>399.08</ele>
        <time>2015-06-15T13:19:34Z</time>
      </trkpt>
      <trkpt lat="43.86291" lon="3.59049">
        <ele>398.12</ele>
        <time>2015-06-15T13:19:43Z</time>
      </trkpt>
      <trkpt lat="43.86288" lon="3.59047">
        <ele>397.64</ele>
        <time>2015-06-15T13:19:46Z</time>
      </trkpt>
      <trkpt lat="43.86273" lon="3.59045">
        <ele>396.68</ele>
        <time>2015-06-15T13:19:59Z</time>
      </trkpt>
      <trkpt lat="43.86265" lon="3.59043">
        <ele>394.76</ele>
        <time>2015-06-15T13:20:07Z</time>
      </trkpt>
      <trkpt lat="43.86248" lon="3.59038">
        <ele>393.32</ele>
        <time>2015-06-15T13:20:21Z</time>
      </trkpt>
      <trkpt lat="43.86239" lon="3.59036">
        <ele>392.36</ele>
        <time>2015-06-15T13:20:30Z</time>
      </trkpt>
      <trkpt lat="43.86231" lon="3.59037">
        <ele>391.39</ele>
        <time>2015-06-15T13:20:42Z</time>
      </trkpt>
      <trkpt lat="43.86228" lon="3.59038">
        <ele>391.39</ele>
        <time>2015-06-15T13:21:02Z</time>
      </trkpt>
      <trkpt lat="43.86223" lon="3.59037">
        <ele>389.95</ele>
        <time>2015-06-15T13:21:17Z</time>
      </trkpt>
      <trkpt lat="43.86218" lon="3.59034">
        <ele>389.47</ele>
        <time>2015-06-15T13:21:23Z</time>
      </trkpt>
      <trkpt lat="43.86213" lon="3.59035">
        <ele>388.51</ele>
        <time>2015-06-15T13:21:27Z</time>
      </trkpt>
      <trkpt lat="43.86197" lon="3.59042">
        <ele>387.07</ele>
        <time>2015-06-15T13:21:41Z</time>
      </trkpt>
      <trkpt lat="43.86193" lon="3.59043">
        <ele>386.11</ele>
        <time>2015-06-15T13:21:47Z</time>
      </trkpt>
      <trkpt lat="43.86186" lon="3.59044">
        <ele>384.66</ele>
        <time>2015-06-15T13:21:55Z</time>
      </trkpt>
      <trkpt lat="43.86175" lon="3.59049">
        <ele>381.78</ele>
        <time>2015-06-15T13:22:07Z</time>
      </trkpt>
      <trkpt lat="43.86168" lon="3.59056">
        <ele>382.26</ele>
        <time>2015-06-15T13:22:16Z</time>
      </trkpt>
      <trkpt lat="43.86162" lon="3.59058">
        <ele>381.3</ele>
        <time>2015-06-15T13:22:22Z</time>
      </trkpt>
      <trkpt lat="43.86157" lon="3.59059">
        <ele>380.82</ele>
        <time>2015-06-15T13:22:26Z</time>
      </trkpt>
      <trkpt lat="43.86143" lon="3.59063">
        <ele>378.9</ele>
        <time>2015-06-15T13:22:37Z</time>
      </trkpt>
      <trkpt lat="43.86137" lon="3.59064">
        <ele>377.45</ele>
        <time>2015-06-15T13:22:43Z</time>
      </trkpt>
      <trkpt lat="43.86132" lon="3.59064">
        <ele>376.97</ele>
        <time>2015-06-15T13:22:47Z</time>
      </trkpt>
      <trkpt lat="43.86126" lon="3.59063">
        <ele>376.49</ele>
        <time>2015-06-15T13:22:52Z</time>
      </trkpt>
      <trkpt lat="43.86117" lon="3.59062">
        <ele>375.53</ele>
        <time>2015-06-15T13:23:01Z</time>
      </trkpt>
      <trkpt lat="43.86113" lon="3.59061">
        <ele>374.57</ele>
        <time>2015-06-15T13:23:05Z</time>
      </trkpt>
      <trkpt lat="43.86107" lon="3.59059">
        <ele>373.61</ele>
        <time>2015-06-15T13:23:10Z</time>
      </trkpt>
      <trkpt lat="43.86099" lon="3.59055">
        <ele>372.65</ele>
        <time>2015-06-15T13:23:17Z</time>
      </trkpt>
      <trkpt lat="43.86085" lon="3.59051">
        <ele>370.73</ele>
        <time>2015-06-15T13:23:29Z</time>
      </trkpt>
      <trkpt lat="43.86074" lon="3.59042">
        <ele>369.28</ele>
        <time>2015-06-15T13:23:43Z</time>
      </trkpt>
      <trkpt lat="43.86073" lon="3.59042">
        <ele>368.8</ele>
        <time>2015-06-15T13:23:44Z</time>
      </trkpt>
      <trkpt lat="43.86063" lon="3.59039">
        <ele>368.8</ele>
        <time>2015-06-15T13:23:52Z</time>
      </trkpt>
      <trkpt lat="43.8605" lon="3.59031">
        <ele>366.88</ele>
        <time>2015-06-15T13:24:06Z</time>
      </trkpt>
      <trkpt lat="43.86038" lon="3.5903">
        <ele>364.48</ele>
        <time>2015-06-15T13:24:19Z</time>
      </trkpt>
      <trkpt lat="43.86037" lon="3.5903">
        <ele>364.48</ele>
        <time>2015-06-15T13:24:20Z</time>
      </trkpt>
      <trkpt lat="43.8603" lon="3.5903">
        <ele>364.48</ele>
        <time>2015-06-15T13:24:29Z</time>
      </trkpt>
      <trkpt lat="43.86027" lon="3.59031">
        <ele>364.48</ele>
        <time>2015-06-15T13:24:32Z</time>
      </trkpt>
      <trkpt lat="43.86014" lon="3.59033">
        <ele>362.55</ele>
        <time>2015-06-15T13:24:43Z</time>
      </trkpt>
      <trkpt lat="43.8601" lon="3.59033">
        <ele>362.07</ele>
        <time>2015-06-15T13:24:49Z</time>
      </trkpt>
      <trkpt lat="43.86" lon="3.59028">
        <ele>360.63</ele>
        <time>2015-06-15T13:24:59Z</time>
      </trkpt>
      <trkpt lat="43.85999" lon="3.59027">
        <ele>360.15</ele>
        <time>2015-06-15T13:25:00Z</time>
      </trkpt>
      <trkpt lat="43.85977" lon="3.59012">
        <ele>357.75</ele>
        <time>2015-06-15T13:25:15Z</time>
      </trkpt>
      <trkpt lat="43.85963" lon="3.59001">
        <ele>356.31</ele>
        <time>2015-06-15T13:25:27Z</time>
      </trkpt>
      <trkpt lat="43.85953" lon="3.58994">
        <ele>354.38</ele>
        <time>2015-06-15T13:25:36Z</time>
      </trkpt>
      <trkpt lat="43.85947" lon="3.58989">
        <ele>353.42</ele>
        <time>2015-06-15T13:25:42Z</time>
      </trkpt>
      <trkpt lat="43.85939" lon="3.58983">
        <ele>352.46</ele>
        <time>2015-06-15T13:25:50Z</time>
      </trkpt>
      <trkpt lat="43.85924" lon="3.58976">
        <ele>350.54</ele>
        <time>2015-06-15T13:26:05Z</time>
      </trkpt>
      <trkpt lat="43.85911" lon="3.58968">
        <ele>348.13</ele>
        <time>2015-06-15T13:26:19Z</time>
      </trkpt>
      <trkpt lat="43.85909" lon="3.58966">
        <ele>348.13</ele>
        <time>2015-06-15T13:26:21Z</time>
      </trkpt>
      <trkpt lat="43.85893" lon="3.58951">
        <ele>345.73</ele>
        <time>2015-06-15T13:26:35Z</time>
      </trkpt>
      <trkpt lat="43.85888" lon="3.58939">
        <ele>342.37</ele>
        <time>2015-06-15T13:26:49Z</time>
      </trkpt>
      <trkpt lat="43.85891" lon="3.58939">
        <ele>341.89</ele>
        <time>2015-06-15T13:26:55Z</time>
      </trkpt>
      <trkpt lat="43.859" lon="3.5894">
        <ele>340.44</ele>
        <time>2015-06-15T13:27:06Z</time>
      </trkpt>
      <trkpt lat="43.85909" lon="3.58941">
        <ele>338.52</ele>
        <time>2015-06-15T13:27:19Z</time>
      </trkpt>
      <trkpt lat="43.85928" lon="3.58942">
        <ele>336.6</ele>
        <time>2015-06-15T13:27:32Z</time>
      </trkpt>
      <trkpt lat="43.85942" lon="3.5894">
        <ele>334.68</ele>
        <time>2015-06-15T13:27:45Z</time>
      </trkpt>
      <trkpt lat="43.85943" lon="3.5894">
        <ele>334.68</ele>
        <time>2015-06-15T13:27:46Z</time>
      </trkpt>
      <trkpt lat="43.85963" lon="3.5894">
        <ele>332.75</ele>
        <time>2015-06-15T13:27:59Z</time>
      </trkpt>
      <trkpt lat="43.85966" lon="3.58939">
        <ele>332.27</ele>
        <time>2015-06-15T13:28:03Z</time>
      </trkpt>
      <trkpt lat="43.85969" lon="3.58941">
        <ele>331.79</ele>
        <time>2015-06-15T13:28:05Z</time>
      </trkpt>
      <trkpt lat="43.85978" lon="3.58942">
        <ele>330.35</ele>
        <time>2015-06-15T13:28:16Z</time>
      </trkpt>
      <trkpt lat="43.85974" lon="3.58938">
        <ele>329.39</ele>
        <time>2015-06-15T13:28:22Z</time>
      </trkpt>
      <trkpt lat="43.8596" lon="3.58935">
        <ele>327.95</ele>
        <time>2015-06-15T13:28:37Z</time>
      </trkpt>
      <trkpt lat="43.85952" lon="3.58928">
        <ele>326.5</ele>
        <time>2015-06-15T13:28:49Z</time>
      </trkpt>
      <trkpt lat="43.85946" lon="3.58922">
        <ele>325.54</ele>
        <time>2015-06-15T13:28:56Z</time>
      </trkpt>
      <trkpt lat="43.8594" lon="3.58916">
        <ele>324.58</ele>
        <time>2015-06-15T13:29:02Z</time>
      </trkpt>
      <trkpt lat="43.85935" lon="3.58913">
        <ele>324.1</ele>
        <time>2015-06-15T13:29:07Z</time>
      </trkpt>
      <trkpt lat="43.85928" lon="3.58909">
        <ele>323.62</ele>
        <time>2015-06-15T13:29:12Z</time>
      </trkpt>
      <trkpt lat="43.85918" lon="3.58903">
        <ele>322.18</ele>
        <time>2015-06-15T13:29:21Z</time>
      </trkpt>
      <trkpt lat="43.8591" lon="3.58895">
        <ele>320.74</ele>
        <time>2015-06-15T13:29:29Z</time>
      </trkpt>
      <trkpt lat="43.85895" lon="3.58882">
        <ele>319.78</ele>
        <time>2015-06-15T13:29:44Z</time>
      </trkpt>
      <trkpt lat="43.85886" lon="3.58881">
        <ele>318.81</ele>
        <time>2015-06-15T13:29:58Z</time>
      </trkpt>
      <trkpt lat="43.85884" lon="3.58879">
        <ele>318.81</ele>
        <time>2015-06-15T13:30:01Z</time>
      </trkpt>
      <trkpt lat="43.85876" lon="3.58872">
        <ele>318.33</ele>
        <time>2015-06-15T13:30:08Z</time>
      </trkpt>
      <trkpt lat="43.85866" lon="3.58871">
        <ele>316.89</ele>
        <time>2015-06-15T13:30:17Z</time>
      </trkpt>
      <trkpt lat="43.85861" lon="3.5887">
        <ele>316.89</ele>
        <time>2015-06-15T13:30:22Z</time>
      </trkpt>
      <trkpt lat="43.85849" lon="3.58874">
        <ele>315.93</ele>
        <time>2015-06-15T13:30:39Z</time>
      </trkpt>
      <trkpt lat="43.8585" lon="3.58869">
        <ele>316.41</ele>
        <time>2015-06-15T13:30:54Z</time>
      </trkpt>
      <trkpt lat="43.85851" lon="3.5886">
        <ele>315.93</ele>
        <time>2015-06-15T13:31:00Z</time>
      </trkpt>
      <trkpt lat="43.85855" lon="3.58841">
        <ele>314.49</ele>
        <time>2015-06-15T13:31:12Z</time>
      </trkpt>
      <trkpt lat="43.85853" lon="3.58821">
        <ele>313.53</ele>
        <time>2015-06-15T13:31:25Z</time>
      </trkpt>
      <trkpt lat="43.85854" lon="3.58815">
        <ele>313.53</ele>
        <time>2015-06-15T13:31:30Z</time>
      </trkpt>
      <trkpt lat="43.85852" lon="3.58802">
        <ele>313.05</ele>
        <time>2015-06-15T13:31:37Z</time>
      </trkpt>
      <trkpt lat="43.85851" lon="3.58784">
        <ele>312.09</ele>
        <time>2015-06-15T13:31:49Z</time>
      </trkpt>
      <trkpt lat="43.85849" lon="3.58778">
        <ele>311.6</ele>
        <time>2015-06-15T13:31:52Z</time>
      </trkpt>
      <trkpt lat="43.85849" lon="3.58774">
        <ele>311.12</ele>
        <time>2015-06-15T13:31:54Z</time>
      </trkpt>
      <trkpt lat="43.85848" lon="3.5877">
        <ele>311.12</ele>
        <time>2015-06-15T13:31:56Z</time>
      </trkpt>
      <trkpt lat="43.85843" lon="3.5876">
        <ele>310.16</ele>
        <time>2015-06-15T13:32:04Z</time>
      </trkpt>
      <trkpt lat="43.8583" lon="3.58744">
        <ele>308.72</ele>
        <time>2015-06-15T13:32:20Z</time>
      </trkpt>
      <trkpt lat="43.85818" lon="3.58739">
        <ele>307.76</ele>
        <time>2015-06-15T13:32:36Z</time>
      </trkpt>
      <trkpt lat="43.85811" lon="3.58731">
        <ele>306.8</ele>
        <time>2015-06-15T13:32:49Z</time>
      </trkpt>
      <trkpt lat="43.85809" lon="3.58699">
        <ele>304.39</ele>
        <time>2015-06-15T13:33:04Z</time>
      </trkpt>
      <trkpt lat="43.85811" lon="3.58689">
        <ele>303.43</ele>
        <time>2015-06-15T13:33:11Z</time>
      </trkpt>
      <trkpt lat="43.85816" lon="3.58673">
        <ele>301.99</ele>
        <time>2015-06-15T13:33:24Z</time>
      </trkpt>
      <trkpt lat="43.85818" lon="3.58679">
        <ele>300.55</ele>
        <time>2015-06-15T13:33:33Z</time>
      </trkpt>
      <trkpt lat="43.85815" lon="3.58695">
        <ele>299.59</ele>
        <time>2015-06-15T13:33:45Z</time>
      </trkpt>
      <trkpt lat="43.8582" lon="3.58709">
        <ele>298.15</ele>
        <time>2015-06-15T13:33:58Z</time>
      </trkpt>
      <trkpt lat="43.8583" lon="3.58706">
        <ele>296.7</ele>
        <time>2015-06-15T13:34:09Z</time>
      </trkpt>
      <trkpt lat="43.85851" lon="3.5871">
        <ele>294.78</ele>
        <time>2015-06-15T13:34:24Z</time>
      </trkpt>
      <trkpt lat="43.85866" lon="3.58727">
        <ele>293.34</ele>
        <time>2015-06-15T13:34:38Z</time>
      </trkpt>
      <trkpt lat="43.85878" lon="3.58745">
        <ele>291.9</ele>
        <time>2015-06-15T13:34:51Z</time>
      </trkpt>
      <trkpt lat="43.85887" lon="3.58772">
        <ele>289.97</ele>
        <time>2015-06-15T13:35:05Z</time>
      </trkpt>
      <trkpt lat="43.85887" lon="3.58774">
        <ele>289.97</ele>
        <time>2015-06-15T13:35:07Z</time>
      </trkpt>
      <trkpt lat="43.85883" lon="3.58792">
        <ele>289.01</ele>
        <time>2015-06-15T13:35:21Z</time>
      </trkpt>
      <trkpt lat="43.85883" lon="3.58794">
        <ele>289.01</ele>
        <time>2015-06-15T13:35:23Z</time>
      </trkpt>
      <trkpt lat="43.85875" lon="3.58809">
        <ele>288.05</ele>
        <time>2015-06-15T13:35:38Z</time>
      </trkpt>
      <trkpt lat="43.85875" lon="3.58814">
        <ele>287.57</ele>
        <time>2015-06-15T13:35:43Z</time>
      </trkpt>
      <trkpt lat="43.85889" lon="3.58823">
        <ele>286.13</ele>
        <time>2015-06-15T13:35:56Z</time>
      </trkpt>
      <trkpt lat="43.85903" lon="3.58819">
        <ele>285.17</ele>
        <time>2015-06-15T13:36:12Z</time>
      </trkpt>
      <trkpt lat="43.85905" lon="3.58817">
        <ele>284.69</ele>
        <time>2015-06-15T13:36:15Z</time>
      </trkpt>
      <trkpt lat="43.85921" lon="3.58812">
        <ele>283.25</ele>
        <time>2015-06-15T13:36:27Z</time>
      </trkpt>
      <trkpt lat="43.85928" lon="3.58803">
        <ele>281.8</ele>
        <time>2015-06-15T13:36:39Z</time>
      </trkpt>
      <trkpt lat="43.85932" lon="3.58801">
        <ele>281.8</ele>
        <time>2015-06-15T13:36:42Z</time>
      </trkpt>
      <trkpt lat="43.85946" lon="3.58798">
        <ele>280.36</ele>
        <time>2015-06-15T13:36:55Z</time>
      </trkpt>
      <trkpt lat="43.85947" lon="3.58798">
        <ele>280.84</ele>
        <time>2015-06-15T13:36:56Z</time>
      </trkpt>
      <trkpt lat="43.85961" lon="3.58818">
        <ele>279.4</ele>
        <time>2015-06-15T13:37:09Z</time>
      </trkpt>
      <trkpt lat="43.85972" lon="3.58825">
        <ele>277.96</ele>
        <time>2015-06-15T13:37:22Z</time>
      </trkpt>
      <trkpt lat="43.85988" lon="3.58831">
        <ele>276.52</ele>
        <time>2015-06-15T13:37:34Z</time>
      </trkpt>
      <trkpt lat="43.86007" lon="3.58831">
        <ele>275.07</ele>
        <time>2015-06-15T13:37:48Z</time>
      </trkpt>
      <trkpt lat="43.86018" lon="3.58828">
        <ele>273.15</ele>
        <time>2015-06-15T13:38:01Z</time>
      </trkpt>
      <trkpt lat="43.86028" lon="3.58827">
        <ele>272.19</ele>
        <time>2015-06-15T13:38:13Z</time>
      </trkpt>
      <trkpt lat="43.86029" lon="3.58828">
        <ele>271.71</ele>
        <time>2015-06-15T13:38:14Z</time>
      </trkpt>
      <trkpt lat="43.86036" lon="3.5883">
        <ele>271.23</ele>
        <time>2015-06-15T13:38:19Z</time>
      </trkpt>
      <trkpt lat="43.86043" lon="3.58835">
        <ele>271.23</ele>
        <time>2015-06-15T13:38:24Z</time>
      </trkpt>
      <trkpt lat="43.86054" lon="3.58846">
        <ele>269.31</ele>
        <time>2015-06-15T13:38:37Z</time>
      </trkpt>
      <trkpt lat="43.86061" lon="3.58852">
        <ele>268.83</ele>
        <time>2015-06-15T13:38:42Z</time>
      </trkpt>
      <trkpt lat="43.86065" lon="3.5887">
        <ele>268.83</ele>
        <time>2015-06-15T13:38:52Z</time>
      </trkpt>
      <trkpt lat="43.86087" lon="3.58881">
        <ele>266.9</ele>
        <time>2015-06-15T13:39:07Z</time>
      </trkpt>
      <trkpt lat="43.86098" lon="3.5888">
        <ele>265.46</ele>
        <time>2015-06-15T13:39:19Z</time>
      </trkpt>
      <trkpt lat="43.86101" lon="3.58876">
        <ele>264.98</ele>
        <time>2015-06-15T13:39:23Z</time>
      </trkpt>
      <trkpt lat="43.86109" lon="3.58866">
        <ele>263.06</ele>
        <time>2015-06-15T13:39:31Z</time>
      </trkpt>
      <trkpt lat="43.86115" lon="3.58862">
        <ele>262.58</ele>
        <time>2015-06-15T13:39:37Z</time>
      </trkpt>
      <trkpt lat="43.86119" lon="3.58861">
        <ele>262.1</ele>
        <time>2015-06-15T13:39:41Z</time>
      </trkpt>
      <trkpt lat="43.8613" lon="3.58855">
        <ele>261.62</ele>
        <time>2015-06-15T13:39:50Z</time>
      </trkpt>
      <trkpt lat="43.86136" lon="3.58854">
        <ele>261.14</ele>
        <time>2015-06-15T13:39:55Z</time>
      </trkpt>
      <trkpt lat="43.86149" lon="3.58858">
        <ele>260.17</ele>
        <time>2015-06-15T13:40:09Z</time>
      </trkpt>
      <trkpt lat="43.8615" lon="3.58858">
        <ele>260.17</ele>
        <time>2015-06-15T13:40:10Z</time>
      </trkpt>
      <trkpt lat="43.86155" lon="3.58853">
        <ele>259.69</ele>
        <time>2015-06-15T13:40:15Z</time>
      </trkpt>
      <trkpt lat="43.86161" lon="3.58841">
        <ele>258.73</ele>
        <time>2015-06-15T13:40:26Z</time>
      </trkpt>
      <trkpt lat="43.86161" lon="3.58839">
        <ele>258.73</ele>
        <time>2015-06-15T13:40:27Z</time>
      </trkpt>
      <trkpt lat="43.86167" lon="3.58833">
        <ele>257.77</ele>
        <time>2015-06-15T13:40:32Z</time>
      </trkpt>
      <trkpt lat="43.86182" lon="3.58802">
        <ele>256.33</ele>
        <time>2015-06-15T13:40:45Z</time>
      </trkpt>
      <trkpt lat="43.86183" lon="3.58801">
        <ele>255.85</ele>
        <time>2015-06-15T13:40:46Z</time>
      </trkpt>
      <trkpt lat="43.86192" lon="3.58799">
        <ele>254.89</ele>
        <time>2015-06-15T13:40:57Z</time>
      </trkpt>
      <trkpt lat="43.86195" lon="3.588">
        <ele>253.93</ele>
        <time>2015-06-15T13:41:00Z</time>
      </trkpt>
      <trkpt lat="43.86203" lon="3.58801">
        <ele>253.44</ele>
        <time>2015-06-15T13:41:10Z</time>
      </trkpt>
      <trkpt lat="43.86212" lon="3.58795">
        <ele>252.96</ele>
        <time>2015-06-15T13:41:21Z</time>
      </trkpt>
      <trkpt lat="43.86215" lon="3.58792">
        <ele>251.52</ele>
        <time>2015-06-15T13:41:28Z</time>
      </trkpt>
      <trkpt lat="43.86223" lon="3.58785">
        <ele>250.56</ele>
        <time>2015-06-15T13:41:38Z</time>
      </trkpt>
      <trkpt lat="43.86226" lon="3.58784">
        <ele>250.08</ele>
        <time>2015-06-15T13:41:41Z</time>
      </trkpt>
      <trkpt lat="43.86241" lon="3.58777">
        <ele>249.12</ele>
        <time>2015-06-15T13:41:55Z</time>
      </trkpt>
      <trkpt lat="43.86247" lon="3.58772">
        <ele>248.16</ele>
        <time>2015-06-15T13:42:03Z</time>
      </trkpt>
      <trkpt lat="43.86259" lon="3.58767">
        <ele>247.2</ele>
        <time>2015-06-15T13:42:13Z</time>
      </trkpt>
      <trkpt lat="43.86274" lon="3.58765">
        <ele>245.75</ele>
        <time>2015-06-15T13:42:25Z</time>
      </trkpt>
      <trkpt lat="43.86287" lon="3.58761">
        <ele>244.79</ele>
        <time>2015-06-15T13:42:37Z</time>
      </trkpt>
      <trkpt lat="43.86294" lon="3.5876">
        <ele>244.31</ele>
        <time>2015-06-15T13:42:44Z</time>
      </trkpt>
      <trkpt lat="43.86297" lon="3.5876">
        <ele>243.83</ele>
        <time>2015-06-15T13:42:46Z</time>
      </trkpt>
      <trkpt lat="43.86311" lon="3.58761">
        <ele>243.83</ele>
        <time>2015-06-15T13:42:59Z</time>
      </trkpt>
      <trkpt lat="43.86326" lon="3.58756">
        <ele>243.35</ele>
        <time>2015-06-15T13:43:13Z</time>
      </trkpt>
      <trkpt lat="43.86329" lon="3.58756">
        <ele>243.35</ele>
        <time>2015-06-15T13:43:15Z</time>
      </trkpt>
      <trkpt lat="43.86332" lon="3.58756">
        <ele>242.87</ele>
        <time>2015-06-15T13:43:17Z</time>
      </trkpt>
      <trkpt lat="43.86351" lon="3.58755">
        <ele>241.91</ele>
        <time>2015-06-15T13:43:30Z</time>
      </trkpt>
      <trkpt lat="43.86357" lon="3.58755">
        <ele>241.43</ele>
        <time>2015-06-15T13:43:35Z</time>
      </trkpt>
      <trkpt lat="43.8637" lon="3.58756">
        <ele>240.47</ele>
        <time>2015-06-15T13:43:47Z</time>
      </trkpt>
      <trkpt lat="43.86376" lon="3.58756">
        <ele>239.99</ele>
        <time>2015-06-15T13:43:52Z</time>
      </trkpt>
      <trkpt lat="43.8638" lon="3.58757">
        <ele>239.99</ele>
        <time>2015-06-15T13:43:56Z</time>
      </trkpt>
      <trkpt lat="43.86395" lon="3.58755">
        <ele>238.06</ele>
        <time>2015-06-15T13:44:09Z</time>
      </trkpt>
      <trkpt lat="43.86398" lon="3.58755">
        <ele>238.06</ele>
        <time>2015-06-15T13:44:12Z</time>
      </trkpt>
      <trkpt lat="43.86406" lon="3.58755">
        <ele>237.1</ele>
        <time>2015-06-15T13:44:19Z</time>
      </trkpt>
      <trkpt lat="43.86417" lon="3.58757">
        <ele>235.18</ele>
        <time>2015-06-15T13:44:32Z</time>
      </trkpt>
      <trkpt lat="43.86413" lon="3.58754">
        <ele>232.78</ele>
        <time>2015-06-15T13:44:47Z</time>
      </trkpt>
      <trkpt lat="43.86408" lon="3.58751">
        <ele>230.85</ele>
        <time>2015-06-15T13:45:02Z</time>
      </trkpt>
      <trkpt lat="43.86397" lon="3.58748">
        <ele>229.41</ele>
        <time>2015-06-15T13:45:18Z</time>
      </trkpt>
      <trkpt lat="43.86392" lon="3.58744">
        <ele>227.49</ele>
        <time>2015-06-15T13:45:33Z</time>
      </trkpt>
      <trkpt lat="43.86385" lon="3.58742">
        <ele>228.45</ele>
        <time>2015-06-15T13:45:55Z</time>
      </trkpt>
      <trkpt lat="43.86381" lon="3.58744">
        <ele>228.45</ele>
        <time>2015-06-15T13:46:18Z</time>
      </trkpt>
      <trkpt lat="43.86383" lon="3.58742">
        <ele>228.93</ele>
        <time>2015-06-15T13:46:45Z</time>
      </trkpt>
      <trkpt lat="43.86376" lon="3.58734">
        <ele>228.93</ele>
        <time>2015-06-15T13:47:14Z</time>
      </trkpt>
      <trkpt lat="43.86379" lon="3.58736">
        <ele>228.45</ele>
        <time>2015-06-15T13:47:34Z</time>
      </trkpt>
      <trkpt lat="43.86379" lon="3.58736">
        <ele>227.97</ele>
        <time>2015-06-15T13:48:01Z</time>
      </trkpt>
      <trkpt lat="43.86378" lon="3.58737">
        <ele>228.45</ele>
        <time>2015-06-15T13:48:18Z</time>
      </trkpt>
      <trkpt lat="43.86374" lon="3.58736">
        <ele>228.93</ele>
        <time>2015-06-15T13:48:35Z</time>
      </trkpt>
      <trkpt lat="43.8637" lon="3.58736">
        <ele>228.93</ele>
        <time>2015-06-15T13:48:41Z</time>
      </trkpt>
      <trkpt lat="43.86354" lon="3.58737">
        <ele>229.41</ele>
        <time>2015-06-15T13:48:56Z</time>
      </trkpt>
      <trkpt lat="43.86342" lon="3.58739">
        <ele>229.41</ele>
        <time>2015-06-15T13:49:12Z</time>
      </trkpt>
      <trkpt lat="43.86326" lon="3.58734">
        <ele>229.41</ele>
        <time>2015-06-15T13:49:29Z</time>
      </trkpt>
      <trkpt lat="43.8631" lon="3.58737">
        <ele>227.97</ele>
        <time>2015-06-15T13:49:44Z</time>
      </trkpt>
      <trkpt lat="43.86291" lon="3.58738">
        <ele>226.53</ele>
        <time>2015-06-15T13:49:59Z</time>
      </trkpt>
      <trkpt lat="43.86275" lon="3.58741">
        <ele>225.57</ele>
        <time>2015-06-15T13:50:14Z</time>
      </trkpt>
      <trkpt lat="43.86267" lon="3.58745">
        <ele>226.05</ele>
        <time>2015-06-15T13:50:27Z</time>
      </trkpt>
      <trkpt lat="43.86254" lon="3.58751">
        <ele>226.53</ele>
        <time>2015-06-15T13:50:41Z</time>
      </trkpt>
      <trkpt lat="43.86239" lon="3.58751">
        <ele>226.05</ele>
        <time>2015-06-15T13:50:56Z</time>
      </trkpt>
      <trkpt lat="43.86215" lon="3.58747">
        <ele>227.97</ele>
        <time>2015-06-15T13:51:14Z</time>
      </trkpt>
      <trkpt lat="43.86197" lon="3.58743">
        <ele>227.97</ele>
        <time>2015-06-15T13:51:27Z</time>
      </trkpt>
      <trkpt lat="43.86188" lon="3.58737">
        <ele>227.97</ele>
        <time>2015-06-15T13:51:42Z</time>
      </trkpt>
      <trkpt lat="43.86179" lon="3.58734">
        <ele>227.97</ele>
        <time>2015-06-15T13:52:04Z</time>
      </trkpt>
      <trkpt lat="43.86175" lon="3.58735">
        <ele>227.49</ele>
        <time>2015-06-15T13:52:09Z</time>
      </trkpt>
      <trkpt lat="43.86162" lon="3.58743">
        <ele>227.01</ele>
        <time>2015-06-15T13:52:23Z</time>
      </trkpt>
      <trkpt lat="43.86158" lon="3.58749">
        <ele>226.53</ele>
        <time>2015-06-15T13:52:29Z</time>
      </trkpt>
      <trkpt lat="43.86153" lon="3.58762">
        <ele>226.53</ele>
        <time>2015-06-15T13:52:40Z</time>
      </trkpt>
      <trkpt lat="43.86142" lon="3.58772">
        <ele>227.01</ele>
        <time>2015-06-15T13:52:57Z</time>
      </trkpt>
      <trkpt lat="43.86129" lon="3.58767">
        <ele>227.97</ele>
        <time>2015-06-15T13:53:12Z</time>
      </trkpt>
      <trkpt lat="43.8611" lon="3.58755">
        <ele>227.49</ele>
        <time>2015-06-15T13:53:29Z</time>
      </trkpt>
      <trkpt lat="43.86099" lon="3.58747">
        <ele>227.97</ele>
        <time>2015-06-15T13:53:43Z</time>
      </trkpt>
      <trkpt lat="43.86083" lon="3.58739">
        <ele>227.49</ele>
        <time>2015-06-15T13:54:01Z</time>
      </trkpt>
      <trkpt lat="43.86075" lon="3.58737">
        <ele>227.49</ele>
        <time>2015-06-15T13:54:08Z</time>
      </trkpt>
      <trkpt lat="43.8606" lon="3.58728">
        <ele>227.49</ele>
        <time>2015-06-15T13:54:21Z</time>
      </trkpt>
      <trkpt lat="43.86044" lon="3.58716">
        <ele>228.45</ele>
        <time>2015-06-15T13:54:39Z</time>
      </trkpt>
      <trkpt lat="43.86033" lon="3.5871">
        <ele>228.93</ele>
        <time>2015-06-15T13:54:55Z</time>
      </trkpt>
      <trkpt lat="43.86027" lon="3.58707">
        <ele>225.57</ele>
        <time>2015-06-15T13:55:07Z</time>
      </trkpt>
      <trkpt lat="43.86014" lon="3.58699">
        <ele>226.53</ele>
        <time>2015-06-15T13:55:23Z</time>
      </trkpt>
      <trkpt lat="43.86006" lon="3.58692">
        <ele>224.61</ele>
        <time>2015-06-15T13:55:37Z</time>
      </trkpt>
      <trkpt lat="43.85997" lon="3.58674">
        <ele>223.64</ele>
        <time>2015-06-15T13:55:56Z</time>
      </trkpt>
      <trkpt lat="43.85992" lon="3.58667">
        <ele>223.16</ele>
        <time>2015-06-15T13:56:09Z</time>
      </trkpt>
      <trkpt lat="43.85983" lon="3.58644">
        <ele>221.72</ele>
        <time>2015-06-15T13:56:25Z</time>
      </trkpt>
      <trkpt lat="43.85968" lon="3.58646">
        <ele>222.68</ele>
        <time>2015-06-15T13:56:43Z</time>
      </trkpt>
      <trkpt lat="43.85967" lon="3.5864">
        <ele>222.2</ele>
        <time>2015-06-15T13:57:04Z</time>
      </trkpt>
      <trkpt lat="43.85956" lon="3.58628">
        <ele>222.2</ele>
        <time>2015-06-15T13:57:23Z</time>
      </trkpt>
      <trkpt lat="43.85963" lon="3.58627">
        <ele>222.2</ele>
        <time>2015-06-15T13:57:38Z</time>
      </trkpt>
      <trkpt lat="43.85953" lon="3.58625">
        <ele>221.24</ele>
        <time>2015-06-15T13:57:54Z</time>
      </trkpt>
      <trkpt lat="43.85968" lon="3.5863">
        <ele>221.72</ele>
        <time>2015-06-15T13:58:11Z</time>
      </trkpt>
      <trkpt lat="43.85969" lon="3.58628">
        <ele>221.24</ele>
        <time>2015-06-15T13:58:27Z</time>
      </trkpt>
      <trkpt lat="43.85988" lon="3.58632">
        <ele>221.24</ele>
        <time>2015-06-15T13:58:48Z</time>
      </trkpt>
      <trkpt lat="43.85982" lon="3.58633">
        <ele>220.76</ele>
        <time>2015-06-15T13:59:06Z</time>
      </trkpt>
      <trkpt lat="43.85992" lon="3.58635">
        <ele>220.76</ele>
        <time>2015-06-15T13:59:17Z</time>
      </trkpt>
      <trkpt lat="43.86002" lon="3.58642">
        <ele>221.72</ele>
        <time>2015-06-15T13:59:33Z</time>
      </trkpt>
      <trkpt lat="43.86006" lon="3.58646">
        <ele>221.24</ele>
        <time>2015-06-15T13:59:46Z</time>
      </trkpt>
      <trkpt lat="43.86007" lon="3.58647">
        <ele>221.72</ele>
        <time>2015-06-15T14:00:02Z</time>
      </trkpt>
      <trkpt lat="43.86013" lon="3.58654">
        <ele>222.2</ele>
        <time>2015-06-15T14:00:15Z</time>
      </trkpt>
      <trkpt lat="43.86014" lon="3.58656">
        <ele>220.76</ele>
        <time>2015-06-15T14:00:33Z</time>
      </trkpt>
      <trkpt lat="43.86015" lon="3.58655">
        <ele>219.8</ele>
        <time>2015-06-15T14:00:47Z</time>
      </trkpt>
      <trkpt lat="43.86019" lon="3.58653">
        <ele>220.76</ele>
        <time>2015-06-15T14:01:00Z</time>
      </trkpt>
      <trkpt lat="43.86022" lon="3.58662">
        <ele>221.72</ele>
        <time>2015-06-15T14:01:14Z</time>
      </trkpt>
      <trkpt lat="43.86022" lon="3.58664">
        <ele>221.72</ele>
        <time>2015-06-15T14:01:33Z</time>
      </trkpt>
      <trkpt lat="43.86021" lon="3.58663">
        <ele>221.72</ele>
        <time>2015-06-15T14:01:34Z</time>
      </trkpt>
      <trkpt lat="43.86006" lon="3.58663">
        <ele>221.24</ele>
        <time>2015-06-15T14:01:49Z</time>
      </trkpt>
      <trkpt lat="43.86005" lon="3.58662">
        <ele>221.72</ele>
        <time>2015-06-15T14:02:05Z</time>
      </trkpt>
      <trkpt lat="43.85993" lon="3.5865">
        <ele>220.76</ele>
        <time>2015-06-15T14:02:18Z</time>
      </trkpt>
      <trkpt lat="43.85986" lon="3.58642">
        <ele>220.76</ele>
        <time>2015-06-15T14:02:33Z</time>
      </trkpt>
      <trkpt lat="43.85988" lon="3.58647">
        <ele>220.28</ele>
        <time>2015-06-15T14:02:49Z</time>
      </trkpt>
      <trkpt lat="43.8599" lon="3.58652">
        <ele>220.28</ele>
        <time>2015-06-15T14:03:14Z</time>
      </trkpt>
      <trkpt lat="43.85985" lon="3.58649">
        <ele>220.28</ele>
        <time>2015-06-15T14:03:40Z</time>
      </trkpt>
      <trkpt lat="43.85988" lon="3.58651">
        <ele>220.28</ele>
        <time>2015-06-15T14:04:02Z</time>
      </trkpt>
      <trkpt lat="43.85991" lon="3.58655">
        <ele>220.28</ele>
        <time>2015-06-15T14:04:26Z</time>
      </trkpt>
      <trkpt lat="43.85984" lon="3.58655">
        <ele>220.28</ele>
        <time>2015-06-15T14:04:51Z</time>
      </trkpt>
      <trkpt lat="43.85984" lon="3.58656">
        <ele>220.28</ele>
        <time>2015-06-15T14:05:21Z</time>
      </trkpt>
      <trkpt lat="43.8598" lon="3.58654">
        <ele>220.28</ele>
        <time>2015-06-15T14:05:50Z</time>
      </trkpt>
      <trkpt lat="43.85971" lon="3.5865">
        <ele>220.76</ele>
        <time>2015-06-15T14:06:15Z</time>
      </trkpt>
      <trkpt lat="43.85964" lon="3.58647">
        <ele>221.24</ele>
        <time>2015-06-15T14:06:38Z</time>
      </trkpt>
      <trkpt lat="43.85957" lon="3.58643">
        <ele>221.24</ele>
        <time>2015-06-15T14:07:01Z</time>
      </trkpt>
      <trkpt lat="43.85955" lon="3.58638">
        <ele>220.76</ele>
        <time>2015-06-15T14:07:27Z</time>
      </trkpt>
      <trkpt lat="43.85955" lon="3.58636">
        <ele>220.76</ele>
        <time>2015-06-15T14:07:42Z</time>
      </trkpt>
      <trkpt lat="43.85953" lon="3.58635">
        <ele>220.76</ele>
        <time>2015-06-15T14:07:44Z</time>
      </trkpt>
      <trkpt lat="43.85946" lon="3.58631">
        <ele>220.76</ele>
        <time>2015-06-15T14:08:05Z</time>
      </trkpt>
      <trkpt lat="43.85936" lon="3.58628">
        <ele>221.24</ele>
        <time>2015-06-15T14:08:28Z</time>
      </trkpt>
      <trkpt lat="43.8593" lon="3.58628">
        <ele>220.76</ele>
        <time>2015-06-15T14:08:49Z</time>
      </trkpt>
      <trkpt lat="43.85928" lon="3.58629">
        <ele>221.72</ele>
        <time>2015-06-15T14:09:07Z</time>
      </trkpt>
      <trkpt lat="43.85925" lon="3.5863">
        <ele>220.76</ele>
        <time>2015-06-15T14:09:22Z</time>
      </trkpt>
      <trkpt lat="43.85933" lon="3.58635">
        <ele>220.76</ele>
        <time>2015-06-15T14:09:45Z</time>
      </trkpt>
      <trkpt lat="43.85933" lon="3.58639">
        <ele>220.28</ele>
        <time>2015-06-15T14:09:54Z</time>
      </trkpt>
      <trkpt lat="43.85936" lon="3.58643">
        <ele>219.32</ele>
        <time>2015-06-15T14:10:13Z</time>
      </trkpt>
      <trkpt lat="43.85934" lon="3.58642">
        <ele>220.28</ele>
        <time>2015-06-15T14:10:51Z</time>
      </trkpt>
      <trkpt lat="43.85941" lon="3.58641">
        <ele>220.28</ele>
        <time>2015-06-15T14:11:09Z</time>
      </trkpt>
      <trkpt lat="43.85941" lon="3.58639">
        <ele>219.8</ele>
        <time>2015-06-15T14:11:33Z</time>
      </trkpt>
      <trkpt lat="43.85942" lon="3.58638">
        <ele>219.8</ele>
        <time>2015-06-15T14:11:59Z</time>
      </trkpt>
      <trkpt lat="43.85947" lon="3.58641">
        <ele>219.8</ele>
        <time>2015-06-15T14:12:22Z</time>
      </trkpt>
      <trkpt lat="43.85961" lon="3.58646">
        <ele>219.32</ele>
        <time>2015-06-15T14:12:51Z</time>
      </trkpt>
      <trkpt lat="43.85958" lon="3.58646">
        <ele>219.32</ele>
        <time>2015-06-15T14:13:15Z</time>
      </trkpt>
      <trkpt lat="43.85966" lon="3.58645">
        <ele>219.32</ele>
        <time>2015-06-15T14:13:37Z</time>
      </trkpt>
      <trkpt lat="43.85963" lon="3.58644">
        <ele>219.32</ele>
        <time>2015-06-15T14:14:01Z</time>
      </trkpt>
      <trkpt lat="43.85961" lon="3.58644">
        <ele>218.84</ele>
        <time>2015-06-15T14:14:25Z</time>
      </trkpt>
      <trkpt lat="43.85959" lon="3.58642">
        <ele>219.8</ele>
        <time>2015-06-15T14:14:51Z</time>
      </trkpt>
      <trkpt lat="43.85961" lon="3.58643">
        <ele>219.8</ele>
        <time>2015-06-15T14:15:16Z</time>
      </trkpt>
      <trkpt lat="43.85953" lon="3.58645">
        <ele>219.8</ele>
        <time>2015-06-15T14:15:37Z</time>
      </trkpt>
      <trkpt lat="43.85952" lon="3.58644">
        <ele>219.8</ele>
        <time>2015-06-15T14:16:01Z</time>
      </trkpt>
      <trkpt lat="43.85951" lon="3.58644">
        <ele>219.32</ele>
        <time>2015-06-15T14:16:26Z</time>
      </trkpt>
      <trkpt lat="43.86003" lon="3.58653">
        <ele>218.84</ele>
        <time>2015-06-15T14:16:51Z</time>
      </trkpt>
      <trkpt lat="43.86006" lon="3.58654">
        <ele>219.8</ele>
        <time>2015-06-15T14:17:16Z</time>
      </trkpt>
      <trkpt lat="43.86008" lon="3.58654">
        <ele>219.32</ele>
        <time>2015-06-15T14:17:42Z</time>
      </trkpt>
      <trkpt lat="43.86005" lon="3.58653">
        <ele>219.8</ele>
        <time>2015-06-15T14:18:14Z</time>
      </trkpt>
      <trkpt lat="43.85981" lon="3.58654">
        <ele>219.8</ele>
        <time>2015-06-15T14:18:33Z</time>
      </trkpt>
      <trkpt lat="43.85998" lon="3.58653">
        <ele>220.28</ele>
        <time>2015-06-15T14:18:51Z</time>
      </trkpt>
      <trkpt lat="43.85999" lon="3.58653">
        <ele>219.8</ele>
        <time>2015-06-15T14:18:55Z</time>
      </trkpt>
      <trkpt lat="43.86" lon="3.58651">
        <ele>220.28</ele>
        <time>2015-06-15T14:19:15Z</time>
      </trkpt>
      <trkpt lat="43.86007" lon="3.58653">
        <ele>219.8</ele>
        <time>2015-06-15T14:19:38Z</time>
      </trkpt>
      <trkpt lat="43.86008" lon="3.58655">
        <ele>220.28</ele>
        <time>2015-06-15T14:19:54Z</time>
      </trkpt>
      <trkpt lat="43.8601" lon="3.58654">
        <ele>219.32</ele>
        <time>2015-06-15T14:20:13Z</time>
      </trkpt>
      <trkpt lat="43.86011" lon="3.58655">
        <ele>220.28</ele>
        <time>2015-06-15T14:20:29Z</time>
      </trkpt>
      <trkpt lat="43.86013" lon="3.58658">
        <ele>221.24</ele>
        <time>2015-06-15T14:20:42Z</time>
      </trkpt>
      <trkpt lat="43.86016" lon="3.58662">
        <ele>222.2</ele>
        <time>2015-06-15T14:20:50Z</time>
      </trkpt>
      <trkpt lat="43.86012" lon="3.58661">
        <ele>223.64</ele>
        <time>2015-06-15T14:21:03Z</time>
      </trkpt>
      <trkpt lat="43.86003" lon="3.5866">
        <ele>226.05</ele>
        <time>2015-06-15T14:21:19Z</time>
      </trkpt>
      <trkpt lat="43.8598" lon="3.58649">
        <ele>227.49</ele>
        <time>2015-06-15T14:21:36Z</time>
      </trkpt>
      <trkpt lat="43.85974" lon="3.58641">
        <ele>227.97</ele>
        <time>2015-06-15T14:21:54Z</time>
      </trkpt>
      <trkpt lat="43.85968" lon="3.58627">
        <ele>227.97</ele>
        <time>2015-06-15T14:22:11Z</time>
      </trkpt>
      <trkpt lat="43.85957" lon="3.58615">
        <ele>227.97</ele>
        <time>2015-06-15T14:22:24Z</time>
      </trkpt>
      <trkpt lat="43.85944" lon="3.58597">
        <ele>227.97</ele>
        <time>2015-06-15T14:22:40Z</time>
      </trkpt>
      <trkpt lat="43.85936" lon="3.5859">
        <ele>227.49</ele>
        <time>2015-06-15T14:22:54Z</time>
      </trkpt>
      <trkpt lat="43.85921" lon="3.58567">
        <ele>224.61</ele>
        <time>2015-06-15T14:23:10Z</time>
      </trkpt>
      <trkpt lat="43.85913" lon="3.58551">
        <ele>224.61</ele>
        <time>2015-06-15T14:23:24Z</time>
      </trkpt>
      <trkpt lat="43.85897" lon="3.58526">
        <ele>223.64</ele>
        <time>2015-06-15T14:23:42Z</time>
      </trkpt>
      <trkpt lat="43.85878" lon="3.58503">
        <ele>223.16</ele>
        <time>2015-06-15T14:24:03Z</time>
      </trkpt>
      <trkpt lat="43.85872" lon="3.58479">
        <ele>222.2</ele>
        <time>2015-06-15T14:24:20Z</time>
      </trkpt>
      <trkpt lat="43.85866" lon="3.58457">
        <ele>223.16</ele>
        <time>2015-06-15T14:24:38Z</time>
      </trkpt>
      <trkpt lat="43.85863" lon="3.58438">
        <ele>223.16</ele>
        <time>2015-06-15T14:24:56Z</time>
      </trkpt>
      <trkpt lat="43.85865" lon="3.58423">
        <ele>223.16</ele>
        <time>2015-06-15T14:25:10Z</time>
      </trkpt>
      <trkpt lat="43.85869" lon="3.58399">
        <ele>224.12</ele>
        <time>2015-06-15T14:25:27Z</time>
      </trkpt>
      <trkpt lat="43.85868" lon="3.58384">
        <ele>224.12</ele>
        <time>2015-06-15T14:25:42Z</time>
      </trkpt>
      <trkpt lat="43.85869" lon="3.58375">
        <ele>221.72</ele>
        <time>2015-06-15T14:26:03Z</time>
      </trkpt>
      <trkpt lat="43.85868" lon="3.58364">
        <ele>220.76</ele>
        <time>2015-06-15T14:26:18Z</time>
      </trkpt>
      <trkpt lat="43.8587" lon="3.5836">
        <ele>220.76</ele>
        <time>2015-06-15T14:26:25Z</time>
      </trkpt>
      <trkpt lat="43.85874" lon="3.58343">
        <ele>219.8</ele>
        <time>2015-06-15T14:26:45Z</time>
      </trkpt>
      <trkpt lat="43.85875" lon="3.58337">
        <ele>219.32</ele>
        <time>2015-06-15T14:27:08Z</time>
      </trkpt>
      <trkpt lat="43.85877" lon="3.58334">
        <ele>219.8</ele>
        <time>2015-06-15T14:27:27Z</time>
      </trkpt>
      <trkpt lat="43.85877" lon="3.58333">
        <ele>218.84</ele>
        <time>2015-06-15T14:27:44Z</time>
      </trkpt>
      <trkpt lat="43.85881" lon="3.58329">
        <ele>219.32</ele>
        <time>2015-06-15T14:28:16Z</time>
      </trkpt>
      <trkpt lat="43.85884" lon="3.58329">
        <ele>219.8</ele>
        <time>2015-06-15T14:28:45Z</time>
      </trkpt>
      <trkpt lat="43.85884" lon="3.58328">
        <ele>219.32</ele>
        <time>2015-06-15T14:29:17Z</time>
      </trkpt>
      <trkpt lat="43.85884" lon="3.5833">
        <ele>220.28</ele>
        <time>2015-06-15T14:29:45Z</time>
      </trkpt>
      <trkpt lat="43.85884" lon="3.58331">
        <ele>219.8</ele>
        <time>2015-06-15T14:30:13Z</time>
      </trkpt>
      <trkpt lat="43.85885" lon="3.58331">
        <ele>220.28</ele>
        <time>2015-06-15T14:30:46Z</time>
      </trkpt>
      <trkpt lat="43.85882" lon="3.5833">
        <ele>220.28</ele>
        <time>2015-06-15T14:31:16Z</time>
      </trkpt>
      <trkpt lat="43.85882" lon="3.5833">
        <ele>220.28</ele>
        <time>2015-06-15T14:31:43Z</time>
      </trkpt>
      <trkpt lat="43.85881" lon="3.58329">
        <ele>220.28</ele>
        <time>2015-06-15T14:32:12Z</time>
      </trkpt>
      <trkpt lat="43.85879" lon="3.58328">
        <ele>220.28</ele>
        <time>2015-06-15T14:32:37Z</time>
      </trkpt>
      <trkpt lat="43.85879" lon="3.58329">
        <ele>220.28</ele>
        <time>2015-06-15T14:33:03Z</time>
      </trkpt>
      <trkpt lat="43.85879" lon="3.58328">
        <ele>220.76</ele>
        <time>2015-06-15T14:33:29Z</time>
      </trkpt>
      <trkpt lat="43.85877" lon="3.58327">
        <ele>221.24</ele>
        <time>2015-06-15T14:33:58Z</time>
      </trkpt>
      <trkpt lat="43.8588" lon="3.58328">
        <ele>220.76</ele>
        <time>2015-06-15T14:34:26Z</time>
      </trkpt>
      <trkpt lat="43.85881" lon="3.58328">
        <ele>221.24</ele>
        <time>2015-06-15T14:34:54Z</time>
      </trkpt>
      <trkpt lat="43.85882" lon="3.58329">
        <ele>220.76</ele>
        <time>2015-06-15T14:35:21Z</time>
      </trkpt>
      <trkpt lat="43.85883" lon="3.58329">
        <ele>221.24</ele>
        <time>2015-06-15T14:35:50Z</time>
      </trkpt>
      <trkpt lat="43.85881" lon="3.5833">
        <ele>221.24</ele>
        <time>2015-06-15T14:36:21Z</time>
      </trkpt>
      <trkpt lat="43.8588" lon="3.58331">
        <ele>221.24</ele>
        <time>2015-06-15T14:36:47Z</time>
      </trkpt>
      <trkpt lat="43.85879" lon="3.5833">
        <ele>221.72</ele>
        <time>2015-06-15T14:37:14Z</time>
      </trkpt>
      <trkpt lat="43.8588" lon="3.58331">
        <ele>222.2</ele>
        <time>2015-06-15T14:37:41Z</time>
      </trkpt>
      <trkpt lat="43.8588" lon="3.58331">
        <ele>222.2</ele>
        <time>2015-06-15T14:38:07Z</time>
      </trkpt>
      <trkpt lat="43.85879" lon="3.58329">
        <ele>221.72</ele>
        <time>2015-06-15T14:38:37Z</time>
      </trkpt>
      <trkpt lat="43.85879" lon="3.5833">
        <ele>223.16</ele>
        <time>2015-06-15T14:39:10Z</time>
      </trkpt>
      <trkpt lat="43.85878" lon="3.5833">
        <ele>222.68</ele>
        <time>2015-06-15T14:39:42Z</time>
      </trkpt>
      <trkpt lat="43.85878" lon="3.5833">
        <ele>222.2</ele>
        <time>2015-06-15T14:40:06Z</time>
      </trkpt>
      <trkpt lat="43.85878" lon="3.58329">
        <ele>222.68</ele>
        <time>2015-06-15T14:40:32Z</time>
      </trkpt>
      <trkpt lat="43.8588" lon="3.58327">
        <ele>222.68</ele>
        <time>2015-06-15T14:40:55Z</time>
      </trkpt>
      <trkpt lat="43.85878" lon="3.58325">
        <ele>222.68</ele>
        <time>2015-06-15T14:41:24Z</time>
      </trkpt>
      <trkpt lat="43.85877" lon="3.58328">
        <ele>223.64</ele>
        <time>2015-06-15T14:41:39Z</time>
      </trkpt>
      <trkpt lat="43.85872" lon="3.5833">
        <ele>223.64</ele>
        <time>2015-06-15T14:41:56Z</time>
      </trkpt>
      <trkpt lat="43.85872" lon="3.58332">
        <ele>224.12</ele>
        <time>2015-06-15T14:42:24Z</time>
      </trkpt>
      <trkpt lat="43.85871" lon="3.58331">
        <ele>224.12</ele>
        <time>2015-06-15T14:42:54Z</time>
      </trkpt>
      <trkpt lat="43.85872" lon="3.58331">
        <ele>223.64</ele>
        <time>2015-06-15T14:43:08Z</time>
      </trkpt>
      <trkpt lat="43.85873" lon="3.58334">
        <ele>224.61</ele>
        <time>2015-06-15T14:43:18Z</time>
      </trkpt>
      <trkpt lat="43.8587" lon="3.58337">
        <ele>224.61</ele>
        <time>2015-06-15T14:43:42Z</time>
      </trkpt>
      <trkpt lat="43.8587" lon="3.58338">
        <ele>225.09</ele>
        <time>2015-06-15T14:44:09Z</time>
      </trkpt>
      <trkpt lat="43.85866" lon="3.58338">
        <ele>227.01</ele>
        <time>2015-06-15T14:44:25Z</time>
      </trkpt>
      <trkpt lat="43.85866" lon="3.58322">
        <ele>225.09</ele>
        <time>2015-06-15T14:44:38Z</time>
      </trkpt>
      <trkpt lat="43.85861" lon="3.58316">
        <ele>226.05</ele>
        <time>2015-06-15T14:44:44Z</time>
      </trkpt>
      <trkpt lat="43.85858" lon="3.58295">
        <ele>226.05</ele>
        <time>2015-06-15T14:44:58Z</time>
      </trkpt>
      <trkpt lat="43.85851" lon="3.58276">
        <ele>226.53</ele>
        <time>2015-06-15T14:45:13Z</time>
      </trkpt>
      <trkpt lat="43.85841" lon="3.5826">
        <ele>228.45</ele>
        <time>2015-06-15T14:45:30Z</time>
      </trkpt>
      <trkpt lat="43.85832" lon="3.58237">
        <ele>229.41</ele>
        <time>2015-06-15T14:45:46Z</time>
      </trkpt>
      <trkpt lat="43.85828" lon="3.5821">
        <ele>228.45</ele>
        <time>2015-06-15T14:46:01Z</time>
      </trkpt>
      <trkpt lat="43.85824" lon="3.58194">
        <ele>228.45</ele>
        <time>2015-06-15T14:46:14Z</time>
      </trkpt>
      <trkpt lat="43.85819" lon="3.58171">
        <ele>228.45</ele>
        <time>2015-06-15T14:46:30Z</time>
      </trkpt>
      <trkpt lat="43.85811" lon="3.58144">
        <ele>227.97</ele>
        <time>2015-06-15T14:46:48Z</time>
      </trkpt>
      <trkpt lat="43.85806" lon="3.58121">
        <ele>228.45</ele>
        <time>2015-06-15T14:47:04Z</time>
      </trkpt>
      <trkpt lat="43.85804" lon="3.58115">
        <ele>228.45</ele>
        <time>2015-06-15T14:47:09Z</time>
      </trkpt>
      <trkpt lat="43.85803" lon="3.58092">
        <ele>230.85</ele>
        <time>2015-06-15T14:47:24Z</time>
      </trkpt>
      <trkpt lat="43.85801" lon="3.58075">
        <ele>233.26</ele>
        <time>2015-06-15T14:47:37Z</time>
      </trkpt>
      <trkpt lat="43.85801" lon="3.58066">
        <ele>233.26</ele>
        <time>2015-06-15T14:47:42Z</time>
      </trkpt>
      <trkpt lat="43.85801" lon="3.58061">
        <ele>233.74</ele>
        <time>2015-06-15T14:47:44Z</time>
      </trkpt>
      <trkpt lat="43.85803" lon="3.58052">
        <ele>233.74</ele>
        <time>2015-06-15T14:47:48Z</time>
      </trkpt>
      <trkpt lat="43.85805" lon="3.5803">
        <ele>231.81</ele>
        <time>2015-06-15T14:48:01Z</time>
      </trkpt>
      <trkpt lat="43.85803" lon="3.58021">
        <ele>230.37</ele>
        <time>2015-06-15T14:48:08Z</time>
      </trkpt>
      <trkpt lat="43.858" lon="3.58011">
        <ele>229.89</ele>
        <time>2015-06-15T14:48:14Z</time>
      </trkpt>
      <trkpt lat="43.858" lon="3.57991">
        <ele>230.85</ele>
        <time>2015-06-15T14:48:27Z</time>
      </trkpt>
      <trkpt lat="43.85804" lon="3.57977">
        <ele>231.33</ele>
        <time>2015-06-15T14:48:37Z</time>
      </trkpt>
      <trkpt lat="43.85807" lon="3.57956">
        <ele>231.81</ele>
        <time>2015-06-15T14:48:49Z</time>
      </trkpt>
      <trkpt lat="43.85808" lon="3.5795">
        <ele>231.81</ele>
        <time>2015-06-15T14:48:55Z</time>
      </trkpt>
      <trkpt lat="43.85806" lon="3.57941">
        <ele>232.3</ele>
        <time>2015-06-15T14:49:01Z</time>
      </trkpt>
      <trkpt lat="43.85796" lon="3.57921">
        <ele>232.3</ele>
        <time>2015-06-15T14:49:17Z</time>
      </trkpt>
      <trkpt lat="43.85786" lon="3.57907">
        <ele>232.78</ele>
        <time>2015-06-15T14:49:30Z</time>
      </trkpt>
      <trkpt lat="43.85784" lon="3.57903">
        <ele>233.26</ele>
        <time>2015-06-15T14:49:33Z</time>
      </trkpt>
      <trkpt lat="43.85775" lon="3.5789">
        <ele>233.74</ele>
        <time>2015-06-15T14:49:42Z</time>
      </trkpt>
      <trkpt lat="43.85771" lon="3.57883">
        <ele>234.7</ele>
        <time>2015-06-15T14:49:48Z</time>
      </trkpt>
      <trkpt lat="43.85759" lon="3.57886">
        <ele>235.66</ele>
        <time>2015-06-15T14:50:02Z</time>
      </trkpt>
      <trkpt lat="43.85748" lon="3.57881">
        <ele>236.62</ele>
        <time>2015-06-15T14:50:15Z</time>
      </trkpt>
      <trkpt lat="43.85747" lon="3.57872">
        <ele>236.62</ele>
        <time>2015-06-15T14:50:32Z</time>
      </trkpt>
      <trkpt lat="43.85745" lon="3.57857">
        <ele>233.74</ele>
        <time>2015-06-15T14:50:48Z</time>
      </trkpt>
      <trkpt lat="43.8574" lon="3.57841">
        <ele>232.78</ele>
        <time>2015-06-15T14:51:03Z</time>
      </trkpt>
      <trkpt lat="43.85741" lon="3.57835">
        <ele>232.3</ele>
        <time>2015-06-15T14:51:08Z</time>
      </trkpt>
      <trkpt lat="43.85738" lon="3.57814">
        <ele>231.33</ele>
        <time>2015-06-15T14:51:21Z</time>
      </trkpt>
      <trkpt lat="43.85727" lon="3.57796">
        <ele>232.3</ele>
        <time>2015-06-15T14:51:36Z</time>
      </trkpt>
      <trkpt lat="43.85714" lon="3.57777">
        <ele>233.74</ele>
        <time>2015-06-15T14:51:52Z</time>
      </trkpt>
      <trkpt lat="43.85707" lon="3.57758">
        <ele>233.26</ele>
        <time>2015-06-15T14:52:08Z</time>
      </trkpt>
      <trkpt lat="43.85699" lon="3.57742">
        <ele>233.74</ele>
        <time>2015-06-15T14:52:23Z</time>
      </trkpt>
      <trkpt lat="43.85689" lon="3.57723">
        <ele>234.22</ele>
        <time>2015-06-15T14:52:38Z</time>
      </trkpt>
      <trkpt lat="43.85675" lon="3.57699">
        <ele>235.18</ele>
        <time>2015-06-15T14:52:55Z</time>
      </trkpt>
      <trkpt lat="43.85674" lon="3.57696">
        <ele>235.18</ele>
        <time>2015-06-15T14:52:57Z</time>
      </trkpt>
      <trkpt lat="43.85671" lon="3.57688">
        <ele>235.66</ele>
        <time>2015-06-15T14:53:01Z</time>
      </trkpt>
      <trkpt lat="43.85665" lon="3.57678">
        <ele>236.62</ele>
        <time>2015-06-15T14:53:10Z</time>
      </trkpt>
      <trkpt lat="43.85664" lon="3.57671">
        <ele>237.1</ele>
        <time>2015-06-15T14:53:13Z</time>
      </trkpt>
      <trkpt lat="43.85663" lon="3.57665">
        <ele>237.1</ele>
        <time>2015-06-15T14:53:16Z</time>
      </trkpt>
      <trkpt lat="43.85662" lon="3.57662">
        <ele>237.1</ele>
        <time>2015-06-15T14:53:18Z</time>
      </trkpt>
      <trkpt lat="43.85652" lon="3.57647">
        <ele>237.1</ele>
        <time>2015-06-15T14:53:31Z</time>
      </trkpt>
      <trkpt lat="43.85646" lon="3.57639">
        <ele>237.58</ele>
        <time>2015-06-15T14:53:39Z</time>
      </trkpt>
      <trkpt lat="43.85637" lon="3.57628">
        <ele>237.58</ele>
        <time>2015-06-15T14:53:52Z</time>
      </trkpt>
      <trkpt lat="43.85629" lon="3.57619">
        <ele>238.06</ele>
        <time>2015-06-15T14:54:07Z</time>
      </trkpt>
      <trkpt lat="43.85626" lon="3.57608">
        <ele>238.06</ele>
        <time>2015-06-15T14:54:20Z</time>
      </trkpt>
      <trkpt lat="43.85625" lon="3.57594">
        <ele>238.06</ele>
        <time>2015-06-15T14:54:29Z</time>
      </trkpt>
      <trkpt lat="43.8562" lon="3.57588">
        <ele>238.54</ele>
        <time>2015-06-15T14:54:34Z</time>
      </trkpt>
      <trkpt lat="43.85619" lon="3.57585">
        <ele>238.54</ele>
        <time>2015-06-15T14:54:36Z</time>
      </trkpt>
      <trkpt lat="43.85608" lon="3.57568">
        <ele>239.02</ele>
        <time>2015-06-15T14:54:49Z</time>
      </trkpt>
      <trkpt lat="43.85597" lon="3.57554">
        <ele>238.54</ele>
        <time>2015-06-15T14:55:01Z</time>
      </trkpt>
      <trkpt lat="43.85589" lon="3.5754">
        <ele>239.02</ele>
        <time>2015-06-15T14:55:12Z</time>
      </trkpt>
      <trkpt lat="43.85587" lon="3.57538">
        <ele>238.54</ele>
        <time>2015-06-15T14:55:13Z</time>
      </trkpt>
      <trkpt lat="43.8558" lon="3.57523">
        <ele>238.54</ele>
        <time>2015-06-15T14:55:24Z</time>
      </trkpt>
      <trkpt lat="43.85576" lon="3.57517">
        <ele>238.06</ele>
        <time>2015-06-15T14:55:29Z</time>
      </trkpt>
      <trkpt lat="43.85574" lon="3.57514">
        <ele>238.54</ele>
        <time>2015-06-15T14:55:32Z</time>
      </trkpt>
      <trkpt lat="43.8557" lon="3.57507">
        <ele>238.06</ele>
        <time>2015-06-15T14:55:37Z</time>
      </trkpt>
      <trkpt lat="43.85565" lon="3.57502">
        <ele>238.06</ele>
        <time>2015-06-15T14:55:42Z</time>
      </trkpt>
      <trkpt lat="43.85562" lon="3.57496">
        <ele>238.06</ele>
        <time>2015-06-15T14:55:48Z</time>
      </trkpt>
      <trkpt lat="43.85558" lon="3.57488">
        <ele>238.06</ele>
        <time>2015-06-15T14:55:54Z</time>
      </trkpt>
      <trkpt lat="43.85549" lon="3.57473">
        <ele>238.54</ele>
        <time>2015-06-15T14:56:06Z</time>
      </trkpt>
      <trkpt lat="43.85549" lon="3.57472">
        <ele>238.54</ele>
        <time>2015-06-15T14:56:07Z</time>
      </trkpt>
      <trkpt lat="43.85545" lon="3.57465">
        <ele>238.54</ele>
        <time>2015-06-15T14:56:11Z</time>
      </trkpt>
      <trkpt lat="43.85537" lon="3.57454">
        <ele>238.06</ele>
        <time>2015-06-15T14:56:20Z</time>
      </trkpt>
      <trkpt lat="43.85534" lon="3.57449">
        <ele>238.06</ele>
        <time>2015-06-15T14:56:22Z</time>
      </trkpt>
      <trkpt lat="43.85531" lon="3.57447">
        <ele>238.06</ele>
        <time>2015-06-15T14:56:25Z</time>
      </trkpt>
      <trkpt lat="43.85526" lon="3.5744">
        <ele>237.58</ele>
        <time>2015-06-15T14:56:30Z</time>
      </trkpt>
      <trkpt lat="43.85523" lon="3.57436">
        <ele>237.58</ele>
        <time>2015-06-15T14:56:33Z</time>
      </trkpt>
      <trkpt lat="43.85512" lon="3.57427">
        <ele>237.58</ele>
        <time>2015-06-15T14:56:42Z</time>
      </trkpt>
      <trkpt lat="43.85506" lon="3.57426">
        <ele>237.58</ele>
        <time>2015-06-15T14:56:48Z</time>
      </trkpt>
      <trkpt lat="43.85495" lon="3.57427">
        <ele>238.06</ele>
        <time>2015-06-15T14:57:02Z</time>
      </trkpt>
      <trkpt lat="43.85486" lon="3.57423">
        <ele>238.06</ele>
        <time>2015-06-15T14:57:13Z</time>
      </trkpt>
      <trkpt lat="43.85486" lon="3.57422">
        <ele>238.06</ele>
        <time>2015-06-15T14:57:14Z</time>
      </trkpt>
      <trkpt lat="43.85473" lon="3.57406">
        <ele>237.58</ele>
        <time>2015-06-15T14:57:26Z</time>
      </trkpt>
      <trkpt lat="43.85472" lon="3.57401">
        <ele>237.58</ele>
        <time>2015-06-15T14:57:29Z</time>
      </trkpt>
      <trkpt lat="43.85461" lon="3.57379">
        <ele>237.58</ele>
        <time>2015-06-15T14:57:43Z</time>
      </trkpt>
      <trkpt lat="43.85453" lon="3.57359">
        <ele>236.14</ele>
        <time>2015-06-15T14:57:56Z</time>
      </trkpt>
      <trkpt lat="43.85445" lon="3.57339">
        <ele>235.18</ele>
        <time>2015-06-15T14:58:07Z</time>
      </trkpt>
      <trkpt lat="43.85441" lon="3.57332">
        <ele>234.22</ele>
        <time>2015-06-15T14:58:12Z</time>
      </trkpt>
      <trkpt lat="43.85435" lon="3.57323">
        <ele>233.74</ele>
        <time>2015-06-15T14:58:18Z</time>
      </trkpt>
      <trkpt lat="43.8543" lon="3.57314">
        <ele>232.3</ele>
        <time>2015-06-15T14:58:29Z</time>
      </trkpt>
      <trkpt lat="43.85426" lon="3.57306">
        <ele>232.78</ele>
        <time>2015-06-15T14:58:38Z</time>
      </trkpt>
      <trkpt lat="43.85425" lon="3.57304">
        <ele>233.26</ele>
        <time>2015-06-15T14:58:39Z</time>
      </trkpt>
      <trkpt lat="43.85421" lon="3.573">
        <ele>233.74</ele>
        <time>2015-06-15T14:58:44Z</time>
      </trkpt>
      <trkpt lat="43.85412" lon="3.57293">
        <ele>235.18</ele>
        <time>2015-06-15T14:58:54Z</time>
      </trkpt>
      <trkpt lat="43.8541" lon="3.57292">
        <ele>235.18</ele>
        <time>2015-06-15T14:58:55Z</time>
      </trkpt>
      <trkpt lat="43.85399" lon="3.57285">
        <ele>233.74</ele>
        <time>2015-06-15T14:59:10Z</time>
      </trkpt>
      <trkpt lat="43.85393" lon="3.57271">
        <ele>234.7</ele>
        <time>2015-06-15T14:59:26Z</time>
      </trkpt>
      <trkpt lat="43.85384" lon="3.57254">
        <ele>236.14</ele>
        <time>2015-06-15T14:59:41Z</time>
      </trkpt>
      <trkpt lat="43.8538" lon="3.57245">
        <ele>237.1</ele>
        <time>2015-06-15T14:59:53Z</time>
      </trkpt>
      <trkpt lat="43.85376" lon="3.57237">
        <ele>237.1</ele>
        <time>2015-06-15T15:00:08Z</time>
      </trkpt>
      <trkpt lat="43.85373" lon="3.57229">
        <ele>236.62</ele>
        <time>2015-06-15T15:00:26Z</time>
      </trkpt>
      <trkpt lat="43.85373" lon="3.57225">
        <ele>236.14</ele>
        <time>2015-06-15T15:00:44Z</time>
      </trkpt>
      <trkpt lat="43.85373" lon="3.57224">
        <ele>233.74</ele>
        <time>2015-06-15T15:01:01Z</time>
      </trkpt>
      <trkpt lat="43.85373" lon="3.57222">
        <ele>233.26</ele>
        <time>2015-06-15T15:01:15Z</time>
      </trkpt>
      <trkpt lat="43.85375" lon="3.5722">
        <ele>233.26</ele>
        <time>2015-06-15T15:01:33Z</time>
      </trkpt>
      <trkpt lat="43.85376" lon="3.57218">
        <ele>232.78</ele>
        <time>2015-06-15T15:01:55Z</time>
      </trkpt>
      <trkpt lat="43.85377" lon="3.57217">
        <ele>233.26</ele>
        <time>2015-06-15T15:02:24Z</time>
      </trkpt>
      <trkpt lat="43.85377" lon="3.57217">
        <ele>233.26</ele>
        <time>2015-06-15T15:02:34Z</time>
      </trkpt>
      <trkpt lat="43.85378" lon="3.57215">
        <ele>231.81</ele>
        <time>2015-06-15T15:02:54Z</time>
      </trkpt>
      <trkpt lat="43.85381" lon="3.57213">
        <ele>231.33</ele>
        <time>2015-06-15T15:03:09Z</time>
      </trkpt>
      <trkpt lat="43.85384" lon="3.57216">
        <ele>230.85</ele>
        <time>2015-06-15T15:03:25Z</time>
      </trkpt>
      <trkpt lat="43.85377" lon="3.5721">
        <ele>231.81</ele>
        <time>2015-06-15T15:03:42Z</time>
      </trkpt>
      <trkpt lat="43.85377" lon="3.57212">
        <ele>231.81</ele>
        <time>2015-06-15T15:03:56Z</time>
      </trkpt>
      <trkpt lat="43.85379" lon="3.57215">
        <ele>232.3</ele>
        <time>2015-06-15T15:04:12Z</time>
      </trkpt>
      <trkpt lat="43.85382" lon="3.57213">
        <ele>231.81</ele>
        <time>2015-06-15T15:04:28Z</time>
      </trkpt>
      <trkpt lat="43.85383" lon="3.57215">
        <ele>231.81</ele>
        <time>2015-06-15T15:04:47Z</time>
      </trkpt>
      <trkpt lat="43.85382" lon="3.57217">
        <ele>231.33</ele>
        <time>2015-06-15T15:05:09Z</time>
      </trkpt>
      <trkpt lat="43.85385" lon="3.57217">
        <ele>230.85</ele>
        <time>2015-06-15T15:05:28Z</time>
      </trkpt>
      <trkpt lat="43.85391" lon="3.57224">
        <ele>230.85</ele>
        <time>2015-06-15T15:05:41Z</time>
      </trkpt>
      <trkpt lat="43.85393" lon="3.5723">
        <ele>231.81</ele>
        <time>2015-06-15T15:05:56Z</time>
      </trkpt>
      <trkpt lat="43.85389" lon="3.57228">
        <ele>231.81</ele>
        <time>2015-06-15T15:06:13Z</time>
      </trkpt>
      <trkpt lat="43.85382" lon="3.57221">
        <ele>232.3</ele>
        <time>2015-06-15T15:06:26Z</time>
      </trkpt>
      <trkpt lat="43.8538" lon="3.57213">
        <ele>232.3</ele>
        <time>2015-06-15T15:06:40Z</time>
      </trkpt>
      <trkpt lat="43.85375" lon="3.57208">
        <ele>233.26</ele>
        <time>2015-06-15T15:06:52Z</time>
      </trkpt>
      <trkpt lat="43.85373" lon="3.57206">
        <ele>233.26</ele>
        <time>2015-06-15T15:06:54Z</time>
      </trkpt>
      <trkpt lat="43.85365" lon="3.57196">
        <ele>234.7</ele>
        <time>2015-06-15T15:07:08Z</time>
      </trkpt>
      <trkpt lat="43.85359" lon="3.57195">
        <ele>236.62</ele>
        <time>2015-06-15T15:07:19Z</time>
      </trkpt>
      <trkpt lat="43.85357" lon="3.57193">
        <ele>237.58</ele>
        <time>2015-06-15T15:07:22Z</time>
      </trkpt>
      <trkpt lat="43.8535" lon="3.57181">
        <ele>238.54</ele>
        <time>2015-06-15T15:07:34Z</time>
      </trkpt>
      <trkpt lat="43.85341" lon="3.57176">
        <ele>239.02</ele>
        <time>2015-06-15T15:07:47Z</time>
      </trkpt>
      <trkpt lat="43.85328" lon="3.57165">
        <ele>238.54</ele>
        <time>2015-06-15T15:08:02Z</time>
      </trkpt>
      <trkpt lat="43.85315" lon="3.57149">
        <ele>238.54</ele>
        <time>2015-06-15T15:08:15Z</time>
      </trkpt>
      <trkpt lat="43.85304" lon="3.57137">
        <ele>236.62</ele>
        <time>2015-06-15T15:08:29Z</time>
      </trkpt>
      <trkpt lat="43.85292" lon="3.57111">
        <ele>236.62</ele>
        <time>2015-06-15T15:08:45Z</time>
      </trkpt>
      <trkpt lat="43.85287" lon="3.57102">
        <ele>236.62</ele>
        <time>2015-06-15T15:08:50Z</time>
      </trkpt>
      <trkpt lat="43.85282" lon="3.57077">
        <ele>236.14</ele>
        <time>2015-06-15T15:09:04Z</time>
      </trkpt>
      <trkpt lat="43.85279" lon="3.57067">
        <ele>237.1</ele>
        <time>2015-06-15T15:09:12Z</time>
      </trkpt>
      <trkpt lat="43.85278" lon="3.57064">
        <ele>238.06</ele>
        <time>2015-06-15T15:09:14Z</time>
      </trkpt>
      <trkpt lat="43.85276" lon="3.57046">
        <ele>237.58</ele>
        <time>2015-06-15T15:09:24Z</time>
      </trkpt>
      <trkpt lat="43.85277" lon="3.57036">
        <ele>237.1</ele>
        <time>2015-06-15T15:09:29Z</time>
      </trkpt>
      <trkpt lat="43.85274" lon="3.57017">
        <ele>237.1</ele>
        <time>2015-06-15T15:09:42Z</time>
      </trkpt>
      <trkpt lat="43.85271" lon="3.57008">
        <ele>237.58</ele>
        <time>2015-06-15T15:09:49Z</time>
      </trkpt>
      <trkpt lat="43.8527" lon="3.57003">
        <ele>237.58</ele>
        <time>2015-06-15T15:09:52Z</time>
      </trkpt>
      <trkpt lat="43.85269" lon="3.56993">
        <ele>237.58</ele>
        <time>2015-06-15T15:09:59Z</time>
      </trkpt>
      <trkpt lat="43.85266" lon="3.56984">
        <ele>238.06</ele>
        <time>2015-06-15T15:10:05Z</time>
      </trkpt>
      <trkpt lat="43.85257" lon="3.56967">
        <ele>238.54</ele>
        <time>2015-06-15T15:10:17Z</time>
      </trkpt>
      <trkpt lat="43.85252" lon="3.56954">
        <ele>239.02</ele>
        <time>2015-06-15T15:10:26Z</time>
      </trkpt>
      <trkpt lat="43.85248" lon="3.56939">
        <ele>239.51</ele>
        <time>2015-06-15T15:10:36Z</time>
      </trkpt>
      <trkpt lat="43.85247" lon="3.56917">
        <ele>239.99</ele>
        <time>2015-06-15T15:10:48Z</time>
      </trkpt>
      <trkpt lat="43.85245" lon="3.56893">
        <ele>240.47</ele>
        <time>2015-06-15T15:11:02Z</time>
      </trkpt>
      <trkpt lat="43.85244" lon="3.56887">
        <ele>240.47</ele>
        <time>2015-06-15T15:11:05Z</time>
      </trkpt>
      <trkpt lat="43.85244" lon="3.56868">
        <ele>240.47</ele>
        <time>2015-06-15T15:11:17Z</time>
      </trkpt>
      <trkpt lat="43.85246" lon="3.56851">
        <ele>239.02</ele>
        <time>2015-06-15T15:11:28Z</time>
      </trkpt>
      <trkpt lat="43.85245" lon="3.56845">
        <ele>238.54</ele>
        <time>2015-06-15T15:11:33Z</time>
      </trkpt>
      <trkpt lat="43.85241" lon="3.56835">
        <ele>237.58</ele>
        <time>2015-06-15T15:11:40Z</time>
      </trkpt>
      <trkpt lat="43.85239" lon="3.56832">
        <ele>237.1</ele>
        <time>2015-06-15T15:11:42Z</time>
      </trkpt>
      <trkpt lat="43.85234" lon="3.56818">
        <ele>239.02</ele>
        <time>2015-06-15T15:11:57Z</time>
      </trkpt>
      <trkpt lat="43.85236" lon="3.56799">
        <ele>240.95</ele>
        <time>2015-06-15T15:12:11Z</time>
      </trkpt>
      <trkpt lat="43.85232" lon="3.56795">
        <ele>243.35</ele>
        <time>2015-06-15T15:12:22Z</time>
      </trkpt>
      <trkpt lat="43.8523" lon="3.56784">
        <ele>245.27</ele>
        <time>2015-06-15T15:12:34Z</time>
      </trkpt>
      <trkpt lat="43.85226" lon="3.56772">
        <ele>247.2</ele>
        <time>2015-06-15T15:12:48Z</time>
      </trkpt>
      <trkpt lat="43.85223" lon="3.5676">
        <ele>250.08</ele>
        <time>2015-06-15T15:13:03Z</time>
      </trkpt>
      <trkpt lat="43.85223" lon="3.56751">
        <ele>251.52</ele>
        <time>2015-06-15T15:13:16Z</time>
      </trkpt>
      <trkpt lat="43.85218" lon="3.56737">
        <ele>252.96</ele>
        <time>2015-06-15T15:13:29Z</time>
      </trkpt>
      <trkpt lat="43.85217" lon="3.56721">
        <ele>254.41</ele>
        <time>2015-06-15T15:13:43Z</time>
      </trkpt>
      <trkpt lat="43.85216" lon="3.56718">
        <ele>254.41</ele>
        <time>2015-06-15T15:13:45Z</time>
      </trkpt>
      <trkpt lat="43.85215" lon="3.56706">
        <ele>256.81</ele>
        <time>2015-06-15T15:13:59Z</time>
      </trkpt>
      <trkpt lat="43.85214" lon="3.56693">
        <ele>257.29</ele>
        <time>2015-06-15T15:14:09Z</time>
      </trkpt>
      <trkpt lat="43.85216" lon="3.56687">
        <ele>257.29</ele>
        <time>2015-06-15T15:14:14Z</time>
      </trkpt>
      <trkpt lat="43.85217" lon="3.56664">
        <ele>257.77</ele>
        <time>2015-06-15T15:14:30Z</time>
      </trkpt>
      <trkpt lat="43.85218" lon="3.56657">
        <ele>257.29</ele>
        <time>2015-06-15T15:14:34Z</time>
      </trkpt>
      <trkpt lat="43.85219" lon="3.56638">
        <ele>259.69</ele>
        <time>2015-06-15T15:14:49Z</time>
      </trkpt>
      <trkpt lat="43.85217" lon="3.56625">
        <ele>261.62</ele>
        <time>2015-06-15T15:15:02Z</time>
      </trkpt>
      <trkpt lat="43.85217" lon="3.56618">
        <ele>262.1</ele>
        <time>2015-06-15T15:15:12Z</time>
      </trkpt>
      <trkpt lat="43.85218" lon="3.56617">
        <ele>261.62</ele>
        <time>2015-06-15T15:15:15Z</time>
      </trkpt>
      <trkpt lat="43.85222" lon="3.5661">
        <ele>259.69</ele>
        <time>2015-06-15T15:15:22Z</time>
      </trkpt>
      <trkpt lat="43.85225" lon="3.56604">
        <ele>259.21</ele>
        <time>2015-06-15T15:15:26Z</time>
      </trkpt>
      <trkpt lat="43.85226" lon="3.56601">
        <ele>259.21</ele>
        <time>2015-06-15T15:15:28Z</time>
      </trkpt>
      <trkpt lat="43.85232" lon="3.56585">
        <ele>257.77</ele>
        <time>2015-06-15T15:15:40Z</time>
      </trkpt>
      <trkpt lat="43.85236" lon="3.5658">
        <ele>257.29</ele>
        <time>2015-06-15T15:15:45Z</time>
      </trkpt>
      <trkpt lat="43.85241" lon="3.56564">
        <ele>255.85</ele>
        <time>2015-06-15T15:15:55Z</time>
      </trkpt>
      <trkpt lat="43.85245" lon="3.56555">
        <ele>255.85</ele>
        <time>2015-06-15T15:16:01Z</time>
      </trkpt>
      <trkpt lat="43.8525" lon="3.56543">
        <ele>255.85</ele>
        <time>2015-06-15T15:16:08Z</time>
      </trkpt>
      <trkpt lat="43.85261" lon="3.56532">
        <ele>254.89</ele>
        <time>2015-06-15T15:16:19Z</time>
      </trkpt>
      <trkpt lat="43.85276" lon="3.56519">
        <ele>253.93</ele>
        <time>2015-06-15T15:16:32Z</time>
      </trkpt>
      <trkpt lat="43.8528" lon="3.56517">
        <ele>253.44</ele>
        <time>2015-06-15T15:16:36Z</time>
      </trkpt>
      <trkpt lat="43.85285" lon="3.56511">
        <ele>252.96</ele>
        <time>2015-06-15T15:16:41Z</time>
      </trkpt>
      <trkpt lat="43.85293" lon="3.565">
        <ele>251.04</ele>
        <time>2015-06-15T15:16:49Z</time>
      </trkpt>
      <trkpt lat="43.85295" lon="3.56489">
        <ele>249.6</ele>
        <time>2015-06-15T15:16:56Z</time>
      </trkpt>
      <trkpt lat="43.85297" lon="3.56486">
        <ele>249.12</ele>
        <time>2015-06-15T15:16:58Z</time>
      </trkpt>
      <trkpt lat="43.853" lon="3.56479">
        <ele>248.16</ele>
        <time>2015-06-15T15:17:03Z</time>
      </trkpt>
      <trkpt lat="43.85301" lon="3.56476">
        <ele>248.16</ele>
        <time>2015-06-15T15:17:05Z</time>
      </trkpt>
      <trkpt lat="43.85301" lon="3.56464">
        <ele>247.2</ele>
        <time>2015-06-15T15:17:11Z</time>
      </trkpt>
      <trkpt lat="43.85304" lon="3.56457">
        <ele>246.72</ele>
        <time>2015-06-15T15:17:15Z</time>
      </trkpt>
      <trkpt lat="43.8531" lon="3.56434">
        <ele>248.16</ele>
        <time>2015-06-15T15:17:28Z</time>
      </trkpt>
      <trkpt lat="43.85315" lon="3.56427">
        <ele>248.64</ele>
        <time>2015-06-15T15:17:32Z</time>
      </trkpt>
      <trkpt lat="43.85323" lon="3.56415">
        <ele>250.08</ele>
        <time>2015-06-15T15:17:42Z</time>
      </trkpt>
      <trkpt lat="43.85328" lon="3.56408">
        <ele>250.08</ele>
        <time>2015-06-15T15:17:48Z</time>
      </trkpt>
      <trkpt lat="43.85338" lon="3.56386">
        <ele>250.56</ele>
        <time>2015-06-15T15:18:03Z</time>
      </trkpt>
      <trkpt lat="43.85347" lon="3.5637">
        <ele>251.04</ele>
        <time>2015-06-15T15:18:16Z</time>
      </trkpt>
      <trkpt lat="43.85347" lon="3.56368">
        <ele>251.04</ele>
        <time>2015-06-15T15:18:17Z</time>
      </trkpt>
      <trkpt lat="43.85355" lon="3.56348">
        <ele>252</ele>
        <time>2015-06-15T15:18:31Z</time>
      </trkpt>
      <trkpt lat="43.85364" lon="3.56331">
        <ele>252.96</ele>
        <time>2015-06-15T15:18:44Z</time>
      </trkpt>
      <trkpt lat="43.85375" lon="3.56342">
        <ele>252.96</ele>
        <time>2015-06-15T15:18:54Z</time>
      </trkpt>
      <trkpt lat="43.85379" lon="3.56348">
        <ele>253.44</ele>
        <time>2015-06-15T15:19:00Z</time>
      </trkpt>
      <trkpt lat="43.8539" lon="3.56358">
        <ele>252.96</ele>
        <time>2015-06-15T15:19:13Z</time>
      </trkpt>
      <trkpt lat="43.85392" lon="3.56362">
        <ele>252.48</ele>
        <time>2015-06-15T15:19:17Z</time>
      </trkpt>
      <trkpt lat="43.85394" lon="3.56368">
        <ele>252.48</ele>
        <time>2015-06-15T15:19:20Z</time>
      </trkpt>
      <trkpt lat="43.85404" lon="3.56383">
        <ele>252.96</ele>
        <time>2015-06-15T15:19:32Z</time>
      </trkpt>
      <trkpt lat="43.85414" lon="3.56398">
        <ele>252.48</ele>
        <time>2015-06-15T15:19:43Z</time>
      </trkpt>
      <trkpt lat="43.85424" lon="3.56418">
        <ele>252.48</ele>
        <time>2015-06-15T15:19:56Z</time>
      </trkpt>
      <trkpt lat="43.85428" lon="3.56428">
        <ele>252.96</ele>
        <time>2015-06-15T15:20:03Z</time>
      </trkpt>
      <trkpt lat="43.85431" lon="3.56436">
        <ele>253.44</ele>
        <time>2015-06-15T15:20:07Z</time>
      </trkpt>
      <trkpt lat="43.85437" lon="3.56451">
        <ele>253.44</ele>
        <time>2015-06-15T15:20:17Z</time>
      </trkpt>
      <trkpt lat="43.85438" lon="3.56455">
        <ele>253.44</ele>
        <time>2015-06-15T15:20:19Z</time>
      </trkpt>
      <trkpt lat="43.85442" lon="3.56463">
        <ele>253.44</ele>
        <time>2015-06-15T15:20:25Z</time>
      </trkpt>
      <trkpt lat="43.85445" lon="3.56464">
        <ele>253.44</ele>
        <time>2015-06-15T15:20:27Z</time>
      </trkpt>
      <trkpt lat="43.8545" lon="3.56468">
        <ele>253.93</ele>
        <time>2015-06-15T15:20:33Z</time>
      </trkpt>
      <trkpt lat="43.85452" lon="3.56474">
        <ele>254.41</ele>
        <time>2015-06-15T15:20:38Z</time>
      </trkpt>
      <trkpt lat="43.85448" lon="3.565">
        <ele>254.89</ele>
        <time>2015-06-15T15:20:52Z</time>
      </trkpt>
      <trkpt lat="43.85447" lon="3.56521">
        <ele>254.89</ele>
        <time>2015-06-15T15:21:06Z</time>
      </trkpt>
      <trkpt lat="43.85447" lon="3.56525">
        <ele>254.89</ele>
        <time>2015-06-15T15:21:17Z</time>
      </trkpt>
      <trkpt lat="43.85445" lon="3.56525">
        <ele>254.89</ele>
        <time>2015-06-15T15:21:32Z</time>
      </trkpt>
      <trkpt lat="43.85446" lon="3.56524">
        <ele>255.37</ele>
        <time>2015-06-15T15:21:50Z</time>
      </trkpt>
    </trkseg>
  </trk>
</gpx>